[[{"header":{"parameterUnit":"m.s-1","parameterCategory":1,"la1":30.6,"la2":28.766,"lo1":-90.7593,"lo2":-88.6598,"dy":0.0162,"dx":0.0183,"nx":116,"ny":114,"refTime":"2024-06-29T06:00:00:Z","depth":0,"parameterNumber":2,"parameterNumberName":"U-component_of_WINDS"},"data":[0.0,0.0,0.0,0.0,0.0,0.0,0.0,0.0,0.0,0.0,0.0,0.0,0.0,0.0,0.0,0.0,0.0,0.0,0.0,0.0,0.0,0.0,0.0,0.0,0.0,0.0,0.0,0.0,0.0,0.0,0.0,0.0,0.0,0.0,0.0,0.0,0.0,0.0,0.0,0.0,0.0,0.0,0.0,0.0,0.0,0.0,0.0,0.0,0.0,0.0,0.0,0.0,0.0,0.0,0.0,0.0,0.0,0.0,0.0,0.0,0.0,0.0,0.0,0.0,0.0,0.0,0.0,0.0,0.0,0.0,0.0,0.0,0.0,0.0,0.0,0.0,0.0,0.0,0.0,0.0,0.0,0.0,0.0,0.0,0.0,0.0,0.0,0.0,0.0,0.0,0.0,0.0,0.0,0.0,0.0,0.0,0.0,0.0,0.0,0.0,0.0,0.0,0.0,0.0,0.0,0.0,0.0,0.0,0.0,0.0,0.0,0.0,0.0,0.0,0.0,0.0,0.0,0.0,0.0,0.0,0.0,0.0,0.0,0.0,0.0,0.0,0.0,0.0,0.0,0.0,0.0,0.0,0.0,0.0,0.0,0.0,0.0,0.0,0.0,0.0,0.0,0.0,0.0,0.0,0.0,0.0,0.0,0.0,0.0,0.0,0.0,0.0,0.0,0.0,0.0,0.0,0.0,0.0,0.0,0.0,0.0,0.0,0.0,0.0,0.0,0.0,0.0,0.0,0.0,0.0,0.0,0.0,0.0,0.0,0.0,0.0,0.0,0.0,0.0,0.0,0.0,0.0,0.0,0.0,0.0,0.0,0.0,0.0,0.0,0.0,0.0,0.0,0.0,0.0,0.0,0.0,0.0,0.0,0.0,0.0,0.0,0.0,0.0,0.0,0.0,0.0,0.0,0.0,0.0,0.0,0.0,0.0,0.0,0.0,0.0,0.0,0.0,0.0,0.0,0.0,0.0,0.0,0.0,0.0,0.0,0.0,0.0,0.0,0.0,0.0,0.0,0.0,0.0,0.0,0.0,0.0,0.0,0.0,0.0,0.0,0.0,0.0,0.0,0.0,0.0,0.0,0.0,0.0,0.0,0.0,0.0,0.0,0.0,0.0,0.0,0.0,0.0,0.0,0.0,0.0,0.0,0.0,0.0,0.0,0.0,0.0,0.0,0.0,0.0,0.0,0.0,0.0,0.0,0.0,0.0,0.0,0.0,0.0,0.0,0.0,0.0,0.0,0.0,0.0,0.0,0.0,0.0,0.0,0.0,0.0,0.0,0.0,0.0,0.0,0.0,0.0,0.0,0.0,0.0,0.0,0.0,0.0,0.0,0.0,0.0,0.0,0.0,0.0,0.0,0.0,0.0,0.0,0.0,0.0,0.0,0.0,0.0,0.0,0.0,0.0,0.0,0.0,0.0,0.0,0.0,0.0,0.0,0.0,0.0,0.0,0.0,0.0,0.0,0.0,0.0,0.0,0.0,0.0,0.0,0.0,0.0,0.0,0.0,0.0,0.0,0.0,0.0,0.0,0.0,0.0,0.0,0.0,0.0,0.0,0.0,0.0,0.0,0.0,0.0,0.0,0.0,0.0,0.0,0.0,0.0,0.0,0.0,0.0,0.0,0.0,0.0,0.0,0.0,0.0,0.0,0.0,0.0,0.0,0.0,0.0,0.0,0.0,0.0,0.0,0.0,0.0,0.0,0.0,0.0,0.0,0.0,0.0,0.0,0.0,0.0,0.0,0.0,0.0,0.0,0.0,0.0,0.0,0.0,0.0,0.0,0.0,0.0,0.0,0.0,0.0,0.0,0.0,0.0,0.0,0.0,0.0,0.0,0.0,0.0,0.0,0.0,0.0,0.0,0.0,0.0,0.0,0.0,0.0,0.0,0.0,0.0,0.0,0.0,0.0,0.0,0.0,0.0,0.0,0.0,0.0,0.0,0.0,0.0,0.0,0.0,0.0,0.0,0.0,0.0,0.0,0.0,0.0,0.0,0.0,0.0,0.0,0.0,0.0,0.0,0.0,0.0,0.0,0.0,0.0,0.0,0.0,0.0,0.0,0.0,0.0,0.0,0.0,0.0,0.0,0.0,0.0,0.0,0.0,0.0,0.0,0.0,0.0,0.0,0.0,0.0,0.0,0.0,0.0,0.0,0.0,0.0,0.0,0.0,0.0,0.0,0.0,0.0,0.0,0.0,0.0,0.0,0.0,0.0,0.0,0.0,0.0,0.0,0.0,0.0,0.0,0.0,0.0,0.0,0.0,0.0,0.0,0.0,0.0,0.0,0.0,0.0,0.0,0.0,0.0,0.0,0.0,0.0,0.0,0.0,0.0,0.0,0.0,0.0,0.0,0.0,0.0,0.0,0.0,0.0,0.0,0.0,0.0,0.0,0.0,0.0,0.0,0.0,0.0,0.0,0.0,0.0,0.0,0.0,0.0,0.0,0.0,0.0,0.0,0.0,0.0,0.0,0.0,0.0,0.0,0.0,0.0,0.0,0.0,0.0,0.0,0.0,0.0,0.0,0.0,0.0,0.0,0.0,0.0,0.0,0.0,0.0,0.0,0.0,0.0,0.0,0.0,0.0,0.0,0.0,0.0,0.0,0.0,0.0,0.0,0.0,0.0,0.0,0.0,0.0,0.0,0.0,0.0,0.0,0.0,0.0,0.0,0.0,0.0,0.0,0.0,0.0,0.0,0.0,0.0,0.0,0.0,0.0,0.0,0.0,0.0,0.0,0.0,0.0,0.0,0.0,0.0,0.0,0.0,0.0,0.0,0.0,0.0,0.0,0.0,0.0,0.0,0.0,0.0,0.0,0.0,0.0,0.0,0.0,0.0,0.0,0.0,0.0,0.0,0.0,0.0,0.0,0.0,0.0,0.0,0.0,0.0,0.0,0.0,0.0,0.0,0.0,0.0,0.0,0.0,0.0,0.0,0.0,0.0,0.0,0.0,0.0,0.0,0.0,0.0,0.0,0.0,0.0,0.0,0.0,0.0,0.0,0.0,0.0,0.0,0.0,0.0,0.0,0.0,0.0,0.0,0.0,0.0,0.0,0.0,0.0,0.0,0.0,0.0,0.0,0.0,0.0,0.0,0.0,0.0,0.0,0.0,0.0,0.0,0.0,0.0,0.0,0.0,0.0,0.0,0.0,0.0,0.0,0.0,0.0,0.0,0.0,0.0,0.0,0.0,0.0,0.0,0.0,0.0,0.0,0.0,0.0,0.0,0.0,0.0,0.0,0.0,0.0,0.0,0.0,0.0,0.0,0.0,0.0,0.0,0.0,0.0,0.0,0.0,0.0,0.0,0.0,0.0,0.0,0.0,0.0,0.0,0.0,0.0,0.0,0.0,0.0,0.0,0.0,0.0,0.0,0.0,0.0,0.0,0.0,0.0,0.0,0.0,0.0,0.0,0.0,0.0,0.0,0.0,0.0,0.0,0.0,0.0,0.0,0.0,0.0,0.0,0.0,0.0,0.0,0.0,0.0,0.0,0.0,0.0,0.0,0.0,0.0,0.0,0.0,0.0,0.0,0.0,0.0,0.0,0.0,0.0,0.0,0.0,0.0,0.0,0.0,0.0,0.0,0.0,0.0,0.0,0.0,0.0,0.0,0.0,0.0,0.0,0.0,0.0,0.0,0.0,0.0,0.0,0.0,0.0,0.0,0.0,0.0,0.0,0.0,0.0,0.0,0.0,0.0,0.0,0.0,0.0,0.0,0.0,0.0,0.0,0.0,0.0,0.0,0.0,0.0,0.0,0.0,0.0,0.0,0.0,0.0,0.0,0.0,0.0,0.0,0.0,0.0,0.0,0.0,0.0,0.0,0.0,0.0,0.0,0.0,0.0,0.0,0.0,0.0,0.0,0.0,0.0,0.0,0.0,0.0,0.0,0.0,0.0,0.0,0.0,0.0,0.0,0.0,0.0,0.0,0.0,0.0,0.0,0.0,0.0,0.0,0.0,0.0,0.0,0.0,0.0,0.0,0.0,0.0,0.0,0.0,0.0,0.0,0.0,0.0,0.0,0.0,0.0,0.0,0.0,0.0,0.0,0.0,0.0,0.0,0.0,0.0,0.0,0.0,0.0,0.0,0.0,0.0,0.0,0.0,0.0,0.0,0.0,0.0,0.0,0.0,0.0,0.0,0.0,0.0,0.0,0.0,0.0,0.0,0.0,0.0,0.0,0.0,0.0,0.0,0.0,0.0,0.0,0.0,0.0,0.0,0.0,0.0,0.0,0.0,0.0,0.0,0.0,0.0,0.0,0.0,0.0,0.0,0.0,0.0,0.0,0.0,0.0,0.0,0.0,0.0,0.0,0.0,0.0,0.0,0.0,0.0,0.0,0.0,0.0,0.0,0.0,0.0,0.0,0.0,0.0,0.0,0.0,0.0,0.0,0.0,0.0,0.0,0.0,0.0,0.0,0.0,0.0,0.0,0.0,0.0,0.0,0.0,0.0,0.0,0.0,0.0,0.0,0.0,0.0,0.0,0.0,0.0,0.0,0.0,0.0,0.0,0.0,0.0,0.0,0.0,0.0,0.0,0.0,0.0,0.0,0.0,0.0,0.0,0.0,0.0,0.0,0.0,0.0,0.0,0.0,0.0,0.0,0.0,0.0,0.0,0.0,0.0,0.0,0.0,0.0,0.0,0.0,0.0,0.0,0.0,0.0,0.0,0.0,0.0,0.0,0.0,0.0,0.0,0.0,0.0,0.0,0.0,0.0,0.0,0.0,0.0,0.0,0.0,0.0,0.0,0.0,0.0,0.0,0.0,0.0,0.0,0.0,0.0,0.0,0.0,0.0,0.0,0.0,0.0,0.0,0.0,0.0,0.0,0.0,0.0,0.0,0.0,0.0,0.0,0.0,0.0,0.0,0.0,0.0,0.0,0.0,0.0,0.0,0.0,0.0,0.0,0.0,0.0,0.0,0.0,0.0,0.0,0.0,0.0,0.0,0.0,0.0,0.0,0.0,0.0,0.0,0.0,0.0,0.0,0.0,0.0,0.0,0.0,0.0,0.0,0.0,0.0,0.0,0.0,0.0,0.0,0.0,0.0,0.0,0.0,0.0,0.0,0.0,0.0,0.0,0.0,0.0,0.0,0.0,0.0,0.0,0.0,0.0,0.0,0.0,0.0,0.0,0.0,0.0,0.0,0.0,0.0,0.0,0.0,0.0,0.0,0.0,0.0,0.0,0.0,0.0,0.0,0.0,0.0,0.0,0.0,0.0,0.0,0.0,0.0,0.0,0.0,0.0,0.0,0.0,0.0,0.0,0.0,0.0,0.0,0.0,0.0,0.0,0.0,0.0,0.0,0.0,0.0,0.0,0.0,0.0,0.0,0.0,0.0,0.0,0.0,0.0,0.0,0.0,0.0,0.0,0.0,0.0,0.0,0.0,0.0,0.0,0.0,0.0,0.0,0.0,0.0,0.0,0.0,0.0,0.0,0.0,0.0,0.0,0.0,0.0,0.0,0.0,0.0,0.0,0.0,0.0,0.0,0.0,0.0,0.0,0.0,0.0,0.0,0.0,0.0,0.0,0.0,0.0,0.0,0.0,0.0,0.0,0.0,0.0,0.0,0.0,0.0,0.0,0.0,0.0,0.0,0.0,0.0,0.0,0.0,0.0,0.0,0.0,0.0,0.0,0.0,0.0,0.0,0.0,0.0,0.0,0.0,0.0,0.0,0.0,0.0,0.0,0.0,0.0,0.0,0.0,0.0,0.0,0.0,0.0,0.0,0.0,0.0,0.0,0.0,0.0,0.0,0.0,0.0,0.0,0.0,0.0,0.0,0.0,0.0,0.0,0.0,0.0,0.0,0.0,0.0,0.0,0.0,0.0,0.0,0.0,0.0,0.0,0.0,0.0,0.0,0.0,0.0,0.0,0.0,0.0,0.0,0.0,0.0,0.0,0.0,0.0,0.0,0.0,0.0,0.0,0.0,0.0,0.0,0.0,0.0,0.0,0.0,0.0,0.0,0.0,0.0,0.0,0.0,0.0,0.0,0.0,0.0,0.0,0.0,0.0,0.0,0.0,0.0,0.0,0.0,0.0,0.0,0.0,0.0,0.0,0.0,0.0,0.0,0.0,0.0,0.0,-2.5386,0.0,0.0,0.0,0.0,0.0,0.0,0.0,0.0,0.0,0.0,0.0,0.0,0.0,0.0,0.0,0.0,0.0,0.0,0.0,0.0,0.0,0.0,0.0,0.0,-1.1459,-1.1784,-1.263,-1.3079,-1.3329,-1.3316,0.0,0.0,0.0,0.0,0.0,-1.2715,-1.2722,-1.3143,-1.3956,-1.4828,-1.5879,-1.7066,-1.6617,-1.5781,-1.4661,0.0,0.0,0.0,0.0,0.0,0.0,0.0,0.0,0.0,0.0,0.0,0.0,0.0,0.0,0.0,0.0,0.0,0.0,0.0,0.0,0.0,0.0,0.0,0.0,0.0,0.0,0.0,0.0,0.0,0.0,0.0,0.0,0.0,0.0,0.0,0.0,0.0,0.0,0.0,0.0,0.0,0.0,0.0,0.0,0.0,0.0,0.0,0.0,0.0,0.0,0.0,0.0,0.0,0.0,0.0,0.0,0.0,0.0,0.0,0.0,0.0,0.0,0.0,0.0,0.0,0.0,0.0,0.0,0.0,0.0,0.0,-2.7227,0.0,0.0,0.0,0.0,0.0,0.0,0.0,0.0,0.0,0.0,0.0,0.0,0.0,0.0,0.0,0.0,0.0,0.0,0.0,0.0,0.0,-1.0802,-1.1822,-1.2055,-1.2523,-1.348,-1.4224,-1.46,-1.4445,-1.5114,0.0,0.0,0.0,-1.3968,-1.3256,-1.3379,-1.4235,-1.583,-1.7082,-1.8929,-2.1286,-2.1442,-2.043,-1.8456,-1.7694,0.0,0.0,0.0,0.0,0.0,0.0,0.0,0.0,0.0,0.0,0.0,0.0,0.0,0.0,0.0,0.0,0.0,0.0,0.0,0.0,0.0,0.0,0.0,0.0,0.0,0.0,0.0,0.0,0.0,0.0,0.0,0.0,0.0,0.0,0.0,0.0,0.0,0.0,0.0,0.0,0.0,0.0,0.0,0.0,0.0,0.0,0.0,0.0,0.0,0.0,0.0,0.0,0.0,0.0,0.0,0.0,0.0,0.0,0.0,0.0,0.0,0.0,0.0,-3.4691,-3.5073,-3.5073,-3.5073,-3.544,-3.5922,-3.3369,-3.2096,-3.1617,-2.8943,0.0,0.0,0.0,0.0,0.0,0.0,0.0,0.0,0.0,0.0,0.0,0.0,0.0,0.0,0.0,0.0,0.0,0.0,0.0,-1.1931,-1.3499,-1.43,-1.534,-1.6897,-1.7144,-1.6916,-1.6223,-1.6283,0.0,0.0,-1.5101,-1.5089,-1.4974,-1.5718,-1.6584,-1.7577,-2.0585,-2.3025,-2.4838,-2.5593,-2.5814,-2.5385,-2.1656,-1.9892,-1.959,0.0,0.0,0.0,0.0,0.0,0.0,0.0,0.0,0.0,0.0,0.0,0.0,0.0,0.0,0.0,0.0,0.0,0.0,0.0,0.0,0.0,0.0,0.0,0.0,0.0,0.0,0.0,0.0,0.0,0.0,0.0,0.0,0.0,0.0,0.0,0.0,0.0,0.0,0.0,0.0,0.0,-2.1257,-2.2271,0.0,0.0,0.0,0.0,0.0,0.0,0.0,0.0,0.0,0.0,0.0,0.0,0.0,-3.3306,-3.4507,-3.6287,-3.7424,-3.7945,-3.9423,-4.0141,-4.0141,-4.0141,-4.0196,-4.027,-3.9861,0.0,-3.344,-3.3036,0.0,0.0,0.0,0.0,0.0,0.0,0.0,0.0,0.0,0.0,0.0,0.0,0.0,0.0,0.0,0.0,0.0,0.0,0.0,0.0,0.0,-1.5441,-1.6608,-1.828,-1.8873,-1.8792,-1.7953,0.0,0.0,-1.5965,-1.5988,-1.6008,-1.5973,-1.7354,-1.914,-2.1377,-2.3844,-2.5657,-2.6852,-2.7239,0.0,-2.7487,-2.5613,-2.3733,-2.193,-2.0778,0.0,0.0,0.0,0.0,0.0,0.0,0.0,0.0,0.0,0.0,0.0,0.0,0.0,0.0,0.0,0.0,0.0,0.0,0.0,0.0,0.0,0.0,0.0,0.0,0.0,0.0,0.0,0.0,0.0,0.0,0.0,0.0,0.0,0.0,0.0,0.0,0.0,0.0,0.0,-2.0881,-2.373,-2.3584,-2.4833,-2.5274,0.0,0.0,0.0,0.0,0.0,0.0,0.0,0.0,0.0,-3.4327,-3.5623,-3.6791,-3.7878,-3.9519,-4.047,-4.0744,-4.1901,-4.2451,-4.2451,-4.2451,-4.2451,-4.2451,-4.2451,-4.0983,-3.8432,-3.6615,-3.4284,-3.172,0.0,0.0,0.0,0.0,-2.9677,-3.0087,0.0,0.0,0.0,0.0,0.0,0.0,0.0,0.0,0.0,0.0,0.0,0.0,-1.5559,-1.6776,-1.8094,-1.9815,-2.0573,0.0,0.0,0.0,-1.7813,-1.7222,-1.6802,-1.678,-1.7159,-1.9325,-2.1759,-2.4407,-2.6367,-2.7615,0.0,0.0,0.0,0.0,0.0,0.0,0.0,0.0,0.0,0.0,0.0,0.0,0.0,0.0,0.0,0.0,0.0,0.0,0.0,0.0,0.0,0.0,0.0,0.0,0.0,0.0,0.0,0.0,0.0,0.0,0.0,0.0,0.0,0.0,0.0,0.0,0.0,0.0,0.0,0.0,0.0,0.0,0.0,0.0,0.0,0.0,0.0,-2.3686,-2.6105,-2.5462,-2.7838,-2.8744,0.0,0.0,0.0,0.0,0.0,0.0,-3.4229,-3.5329,-3.6548,-3.7907,-3.9113,-4.0099,-4.0799,-4.2011,-4.2598,-4.2598,-4.3221,-4.3515,-4.3515,-4.3515,-4.3515,-4.3515,-4.3515,-4.3149,-4.2396,-3.957,-3.7441,-3.5811,-3.4412,-3.3366,-3.2742,-3.3568,-3.3862,-3.4064,0.0,0.0,0.0,0.0,0.0,0.0,0.0,0.0,0.0,0.0,0.0,-1.4601,-1.7288,0.0,-2.0584,-2.2442,0.0,0.0,0.0,0.0,-1.9114,-1.907,-1.7474,-1.7343,-1.8936,-2.2175,-2.4315,0.0,0.0,0.0,0.0,0.0,0.0,0.0,0.0,0.0,0.0,0.0,0.0,0.0,0.0,0.0,0.0,0.0,0.0,0.0,0.0,0.0,0.0,0.0,0.0,0.0,0.0,0.0,0.0,0.0,0.0,0.0,0.0,0.0,0.0,0.0,0.0,0.0,0.0,0.0,0.0,0.0,0.0,0.0,0.0,0.0,0.0,0.0,0.0,0.0,0.0,0.0,0.0,-2.8857,-3.1839,0.0,0.0,0.0,0.0,-3.3138,-3.4489,-3.616,-3.8123,-3.9002,-4.0364,-4.241,-4.2545,-4.2832,-4.3313,-4.3404,-4.3441,-4.3441,-4.3478,-4.3515,-4.3515,-4.3515,-4.3515,-4.3515,-4.3515,-4.3478,-4.3296,-4.1625,-3.9958,-3.8432,-3.7584,-3.6758,-3.6138,-3.696,-3.7254,-3.7364,0.0,0.0,0.0,-1.0193,-1.0197,-1.0195,-1.0133,-1.0608,-1.1259,-1.2006,-1.409,-1.6248,0.0,-2.0442,-2.2296,0.0,0.0,0.0,0.0,0.0,-2.0813,-2.0805,-1.9678,-2.0339,-2.3095,-2.428,-2.5818,0.0,0.0,0.0,0.0,0.0,0.0,0.0,0.0,0.0,0.0,0.0,0.0,0.0,0.0,0.0,0.0,0.0,0.0,0.0,0.0,0.0,0.0,0.0,0.0,0.0,0.0,0.0,0.0,0.0,0.0,0.0,0.0,0.0,0.0,0.0,0.0,0.0,0.0,0.0,0.0,0.0,0.0,0.0,0.0,0.0,0.0,0.0,0.0,0.0,0.0,0.0,0.0,-3.2015,-3.5268,0.0,-3.4737,-3.6005,-3.7081,-3.7432,-3.8622,-3.9987,-4.1501,-4.1862,-4.2599,-4.3931,-4.3716,-4.3642,-4.3818,-4.3836,-4.371,-4.3515,-4.3515,-4.3515,-4.3515,-4.3515,-4.3515,-4.3515,-4.3515,-4.3515,-4.346,-4.2873,-4.1992,-4.0983,-4.0708,-4.0102,-3.9423,-3.9717,-3.9827,-3.9863,-1.0191,-1.0199,0.0,-1.02,-1.0178,-1.0157,-1.01,-1.0803,-1.1705,-1.2766,-1.5155,-1.7493,0.0,0.0,0.0,0.0,0.0,0.0,0.0,0.0,-2.2288,-2.2572,-2.2267,-2.3124,-2.5331,-2.615,0.0,0.0,0.0,0.0,0.0,0.0,0.0,0.0,0.0,0.0,0.0,0.0,0.0,0.0,0.0,0.0,-2.04,0.0,0.0,0.0,0.0,0.0,0.0,0.0,0.0,0.0,0.0,0.0,0.0,0.0,0.0,0.0,0.0,0.0,0.0,0.0,0.0,0.0,0.0,0.0,0.0,0.0,0.0,0.0,0.0,0.0,0.0,0.0,0.0,0.0,0.0,0.0,-3.4584,-3.4947,-3.829,-3.975,-3.7662,-3.9328,-4.0649,-4.0912,-4.1998,-4.3065,-4.4015,-4.4342,-4.4673,-4.4995,-4.5007,-4.4894,-4.4652,-4.4652,-4.4393,-4.3901,-4.3901,-4.3754,-4.3515,-4.3515,-4.3515,-4.3515,-4.3515,-4.3515,-4.3515,-4.3515,-4.3185,-4.269,-4.269,-4.2378,-4.1919,-4.1919,-4.1919,-4.1919,-1.0209,-1.0196,-1.0191,-1.0209,-1.0131,-1.0094,-1.0094,-1.0753,-1.1835,-1.3484,-1.5859,-1.8396,0.0,0.0,0.0,0.0,0.0,0.0,0.0,-2.4059,-2.3493,-2.4309,-2.5046,-2.5427,-2.5423,0.0,0.0,0.0,0.0,0.0,0.0,0.0,0.0,0.0,0.0,0.0,0.0,0.0,0.0,0.0,0.0,0.0,-2.5382,0.0,0.0,0.0,0.0,0.0,0.0,0.0,0.0,0.0,0.0,0.0,0.0,0.0,0.0,0.0,0.0,0.0,0.0,0.0,0.0,0.0,0.0,0.0,0.0,0.0,0.0,0.0,0.0,0.0,0.0,0.0,0.0,0.0,-3.1081,-3.4794,-3.7614,-3.7652,-4.0917,-4.223,-3.9894,-4.2196,-4.3718,-4.3378,-4.4475,-4.531,-4.5615,-4.6462,-4.6583,-4.5876,-4.6598,-4.6652,-4.592,-4.592,-4.5534,-4.4745,-4.4745,-4.4323,-4.357,-4.3551,-4.3551,-4.3551,-4.3515,-4.3515,-4.3515,-4.3515,-4.3515,-4.3515,-4.3515,-4.3515,-4.3515,-4.3515,-4.3515,-4.3515,-1.0213,-1.0195,-1.0189,-1.0131,-1.0106,-1.0094,-1.0094,-1.135,-1.264,-1.364,-1.7091,0.0,0.0,0.0,0.0,0.0,0.0,0.0,-2.5601,-2.4573,-2.4313,-2.5053,-2.5897,0.0,0.0,0.0,0.0,0.0,0.0,0.0,0.0,0.0,0.0,0.0,0.0,0.0,0.0,0.0,0.0,0.0,0.0,0.0,-2.6404,0.0,0.0,0.0,0.0,0.0,0.0,0.0,0.0,0.0,0.0,0.0,0.0,0.0,0.0,0.0,0.0,0.0,0.0,0.0,0.0,0.0,0.0,0.0,0.0,0.0,0.0,0.0,0.0,0.0,0.0,0.0,0.0,-3.5182,-3.4971,-3.7805,-4.0255,-4.1228,-4.3019,-4.3929,-4.3253,-4.4136,-4.4701,-4.4604,-4.5722,-4.6455,-4.6538,-4.7086,-4.7288,-4.7041,-4.7002,-4.6772,-4.6263,-4.6263,-4.6036,-4.5571,-4.5571,-4.5443,-4.5223,-4.4635,-4.4378,-4.4342,-4.3754,-4.3515,-4.3515,-4.3515,-4.3515,-4.3515,-4.3515,-4.3515,-4.3515,-4.3515,-4.3515,-4.3515,-1.0215,-1.0195,-1.0185,-1.0159,-1.0111,-1.0094,-1.0094,-1.1532,-1.3028,-1.4154,-1.7742,0.0,0.0,0.0,0.0,0.0,0.0,-2.5294,-2.46,-2.4712,-2.5165,-2.5948,0.0,0.0,0.0,0.0,0.0,0.0,0.0,0.0,0.0,0.0,0.0,0.0,0.0,0.0,0.0,0.0,0.0,0.0,0.0,0.0,-2.8905,-2.7772,-2.6738,-2.5723,-2.4473,-2.3477,-2.2617,-2.185,0.0,0.0,0.0,0.0,0.0,0.0,0.0,0.0,0.0,0.0,0.0,0.0,0.0,0.0,0.0,0.0,0.0,0.0,0.0,0.0,0.0,0.0,0.0,0.0,-3.6033,-3.853,-3.8881,-4.0491,-4.2052,-4.317,-4.4078,-4.4527,-4.4378,-4.4682,-4.5029,-4.5359,-4.6156,-4.6877,-4.7385,-4.8009,-4.817,-4.7802,-4.7959,-4.7774,-4.7197,-4.7197,-4.6926,-4.6416,-4.6416,-4.6232,-4.5883,-4.5424,-4.5204,0.0,-4.4342,-4.3993,-4.3975,-4.3626,-4.3515,0.0,0.0,0.0,0.0,0.0,-4.3515,-4.3515,-1.0207,-1.02,-1.0201,-1.0193,-1.0156,-1.0102,-1.0096,-1.1476,-1.3125,-1.4798,0.0,0.0,0.0,0.0,0.0,0.0,0.0,0.0,0.0,0.0,0.0,-2.7025,0.0,0.0,0.0,0.0,0.0,0.0,0.0,0.0,0.0,0.0,0.0,0.0,0.0,0.0,0.0,0.0,0.0,0.0,0.0,0.0,-3.1974,-3.037,-2.9746,-2.9512,-2.7773,-2.664,-2.5742,-2.4199,0.0,0.0,0.0,0.0,0.0,0.0,0.0,0.0,0.0,0.0,0.0,0.0,0.0,0.0,0.0,0.0,0.0,0.0,0.0,0.0,0.0,0.0,0.0,0.0,-3.9322,-4.1517,-4.2323,-4.2683,-4.3152,-4.3865,-4.4266,-4.4337,-4.3971,-4.4383,-4.496,-4.569,-4.6263,-4.7048,-4.8126,0.0,0.0,0.0,0.0,-4.9155,-4.8306,-4.8345,-4.7977,-4.7241,-4.7241,-4.6856,-4.6177,-4.6085,-4.6049,-4.5993,-4.5186,-4.4764,-4.4636,-4.392,-4.3588,-4.3515,-4.3515,-4.3515,-4.3515,-4.3515,-4.3515,-4.3515,-1.0209,-1.0203,-1.0209,-1.0201,-1.0184,-1.0165,-1.0102,-1.1568,-1.3251,-1.4935,-1.753,0.0,0.0,0.0,0.0,0.0,0.0,0.0,0.0,0.0,0.0,0.0,0.0,0.0,0.0,0.0,0.0,0.0,0.0,0.0,0.0,0.0,0.0,0.0,0.0,0.0,0.0,0.0,0.0,0.0,0.0,0.0,-3.2948,-3.1289,-3.0644,-3.043,-2.8672,-2.7906,-2.7657,-2.7328,-2.656,-2.5628,-2.4788,0.0,0.0,0.0,0.0,0.0,0.0,0.0,0.0,0.0,0.0,0.0,0.0,0.0,0.0,0.0,0.0,0.0,0.0,0.0,0.0,-3.8832,-4.0832,-4.2359,-4.3149,-4.3326,-4.3413,-4.3579,-4.3662,-4.3679,-4.3614,-4.4506,-4.5148,-4.5297,-4.7187,-4.8426,-4.8655,-4.9794,-5.0087,-4.9273,-4.9737,-4.9445,-4.8306,-4.8604,-4.8529,-4.8086,0.0,0.0,-4.781,-4.7149,-4.6856,-4.6819,-4.603,-4.5296,-4.469,-4.4544,-4.4085,-4.3515,-4.3515,-4.3515,-4.3515,-4.3515,-4.3515,-4.3515,-1.0252,-1.0225,-1.0207,-1.02,-1.0165,-1.0147,-1.0119,-1.1214,-1.2659,-1.4324,-1.6418,0.0,0.0,0.0,0.0,0.0,0.0,0.0,0.0,0.0,0.0,0.0,0.0,0.0,0.0,0.0,0.0,0.0,0.0,0.0,0.0,0.0,0.0,0.0,0.0,0.0,0.0,0.0,0.0,0.0,0.0,0.0,-3.4512,-3.2793,-3.1894,-3.1387,-3.0078,-2.9272,-2.8858,-2.8841,-2.8206,-2.732,-2.688,-2.5529,-2.4022,0.0,0.0,0.0,0.0,0.0,0.0,0.0,0.0,0.0,0.0,0.0,0.0,0.0,0.0,-3.3679,-3.5478,0.0,-3.9082,-4.1048,-4.2368,-4.3296,-4.3684,-4.3614,-4.3515,-4.3515,-4.3515,-4.3644,-4.4066,-4.4623,-4.5377,-4.6384,-4.7571,-4.8599,-4.942,-5.0053,-5.0225,-4.9813,-5.0006,-4.97,-4.8915,-4.9092,-4.9092,-4.8898,-4.8898,-4.8815,-4.8586,-4.8179,-4.7887,-4.7645,-4.6856,-4.6269,-4.5828,-4.5021,-4.4232,-4.3515,-4.3515,-4.3515,-4.3515,-4.3515,-4.3515,-4.3515,-1.0293,-1.0243,-1.0194,-1.0194,-1.0165,-1.0127,-1.0096,-1.0848,-1.2007,-1.3708,-1.5284,-1.6954,-1.8747,-1.9571,-1.9887,0.0,0.0,0.0,0.0,0.0,0.0,0.0,0.0,0.0,0.0,0.0,0.0,0.0,0.0,0.0,0.0,0.0,0.0,0.0,0.0,0.0,0.0,0.0,0.0,0.0,0.0,0.0,-3.5801,-3.4062,-3.3008,-3.2285,-3.1074,-3.0151,-2.9464,-2.9308,-2.8738,-2.8042,-2.7823,-2.6765,-2.5596,-2.5375,-2.3731,0.0,0.0,0.0,0.0,0.0,0.0,0.0,0.0,0.0,-3.3269,-3.487,-3.6087,-3.7219,-3.8419,-3.9914,-4.145,-4.2913,-4.3687,-4.4117,-4.4117,-4.382,-4.3597,-4.3597,-4.3548,-4.3809,-4.4618,-4.4838,-4.5677,-4.7443,-4.7868,-4.8615,-4.9911,-5.0135,-5.0183,-5.0092,-5.0171,-4.9993,-4.9504,-4.9594,-4.9594,-4.9489,-4.9416,-4.9218,-4.8897,-4.883,-4.8604,-4.8269,-4.7443,-4.7094,-4.6984,-4.5351,-4.4323,-4.3718,-4.3552,-4.3515,-4.3515,-4.3515,-4.3515,-4.3515,-1.0293,-1.0243,-1.0194,-1.0194,-1.0189,-1.017,-1.0102,-1.0848,-1.2027,-1.3758,-1.4831,-1.6095,-1.786,-1.8139,-1.8796,-2.0312,0.0,0.0,0.0,0.0,0.0,0.0,0.0,0.0,0.0,0.0,0.0,0.0,0.0,0.0,0.0,0.0,0.0,0.0,0.0,0.0,0.0,0.0,0.0,0.0,0.0,0.0,-3.5801,-3.4062,-3.334,-3.2969,-3.0586,-2.9643,-2.9386,-2.8609,-2.8192,-2.7869,-2.709,-2.667,-2.6309,-2.5524,0.0,-2.4125,-2.562,-2.7255,-2.9127,-3.1583,-3.2333,-3.3853,0.0,0.0,-3.8661,-4.1082,-4.1468,-4.1624,-4.2498,-4.2831,-4.329,-4.4239,-4.4471,-4.4527,-4.4527,-4.419,-4.394,-4.394,-4.3677,-4.3809,-4.4618,-4.5351,-4.6159,-4.7095,-4.8488,-4.938,-4.9561,-5.0249,-5.0472,-5.0104,-5.0462,-5.0272,-4.9504,-4.984,-4.984,-4.9508,-4.9139,-4.8947,-4.8897,-4.8532,-4.8345,-4.8269,-4.7443,-4.7094,-4.6984,-4.5351,-4.4636,-4.4488,-4.3773,-4.3515,-4.3515,-4.3515,-4.3515,-4.3515,-1.025,-1.0229,-1.0197,-1.0192,-1.0193,-1.0177,-1.0104,-1.0404,-1.1277,-1.3015,-1.3591,-1.452,-1.6248,-1.6456,-1.7166,-1.8926,-2.0578,0.0,0.0,0.0,0.0,0.0,0.0,0.0,0.0,0.0,0.0,0.0,0.0,0.0,0.0,0.0,0.0,0.0,0.0,0.0,0.0,0.0,0.0,0.0,0.0,0.0,-3.5117,-3.3867,-3.2793,-3.1738,-3.0156,-2.9233,0.0,0.0,-2.8087,-2.7937,-2.7522,-2.7041,-2.6524,-2.6154,-2.6178,0.0,-2.9544,-3.1141,0.0,0.0,-3.6238,-3.7976,-4.0469,-4.1185,-4.1674,-4.3011,-4.358,-4.3881,-4.4027,-4.4227,-4.4459,0.0,-4.4896,-4.4896,-4.4896,-4.458,-4.4364,-4.4364,-4.4223,-4.4463,-4.5331,-4.57,-4.6434,-4.77,-4.8419,-4.9013,-4.9475,-4.9813,-5.0147,-5.0432,-5.0614,-5.0544,-5.0195,-5.0377,-5.0358,-5.0214,-5.0043,-4.9827,-4.9589,-4.9187,-4.8745,-4.8288,-4.7938,-4.7516,-4.7003,-4.5883,-4.5131,-4.4618,-4.3809,-4.3515,-4.3515,-4.3515,-4.3515,-4.3515,-1.0205,-1.0207,-1.0203,-1.0193,-1.0207,-1.0188,-1.0124,-1.0333,-1.1033,-1.2531,-1.2971,-1.3733,-1.5245,-1.5409,-1.6094,-1.7811,-1.9458,-2.1473,0.0,0.0,0.0,0.0,0.0,0.0,0.0,0.0,0.0,0.0,0.0,0.0,0.0,0.0,0.0,0.0,0.0,0.0,0.0,0.0,0.0,0.0,0.0,0.0,-3.4219,-3.3125,-3.1816,-3.043,-2.9551,-2.8647,0.0,0.0,-2.7146,-2.7236,-2.6935,-2.6563,-2.6351,-2.6813,-2.789,-2.9525,-3.2179,0.0,0.0,-3.7276,-3.9508,-4.1285,-4.1497,-4.2701,-4.388,-4.423,-4.4812,-4.515,-4.4931,-4.5055,-4.5232,-4.5232,-4.5232,-4.5232,-4.5232,-4.4943,-4.4751,-4.4751,-4.4663,-4.4942,-4.5803,-4.5781,-4.6376,-4.8016,-4.8126,-4.8539,-4.946,-4.9622,-4.9974,-5.0673,-5.0712,-5.0712,-5.0712,-5.0712,-5.0712,-5.0712,-5.0594,-5.0369,-5.008,-4.9561,-4.9013,-4.8458,-4.8345,-4.7957,-4.7369,-4.6562,-4.5773,-4.4947,-4.414,-4.3699,-4.3515,-4.3515,-4.3515,-4.3515,-1.0207,-1.0207,-1.0201,-1.0199,-1.0195,-1.02,-1.0196,-1.0917,-1.1788,-1.2686,-1.3528,-1.4391,-1.5293,-1.5391,-1.6073,-1.7755,-1.9439,-2.1455,-2.3943,-2.5701,0.0,0.0,0.0,0.0,0.0,0.0,0.0,0.0,0.0,0.0,0.0,0.0,0.0,0.0,0.0,0.0,0.0,0.0,0.0,0.0,0.0,0.0,-3.3262,-3.1601,-3.043,-2.9531,-2.8652,0.0,0.0,0.0,-2.4899,-2.5325,-2.4473,-2.4736,0.0,-2.7351,-2.9621,0.0,0.0,0.0,-3.7238,-3.9746,-4.17,-4.322,-4.4008,-4.4883,-4.5537,-4.5547,-4.5566,-4.5577,-4.5577,-4.5577,-4.5586,-4.5586,-4.5586,-4.5586,-4.5586,-4.5302,-4.5085,-4.5085,-4.48,-4.4906,0.0,-4.5462,-4.5906,-4.7582,-4.7709,-4.8237,-4.9437,-4.9885,-5.0272,-5.0683,-5.0712,-5.0712,-5.0712,-5.0712,-5.0712,-5.0702,-5.0294,-5.0104,-5.0068,-4.9295,-4.8913,-4.8863,-4.8477,-4.8306,-4.8214,-4.7388,-4.6581,-4.5773,-4.4984,-4.4195,-4.3515,-4.3515,-4.3515,-4.3515,-1.0207,-1.0207,-1.0206,-1.02,-1.0249,-1.0272,-1.027,-1.0977,-1.1811,-1.2688,-1.406,0.0,0.0,0.0,0.0,0.0,-1.8977,-2.0682,-2.3268,-2.4963,0.0,0.0,0.0,0.0,0.0,0.0,0.0,0.0,0.0,0.0,0.0,0.0,0.0,0.0,0.0,0.0,0.0,0.0,0.0,0.0,0.0,0.0,-3.2461,-3.1243,-2.9566,-2.791,0.0,0.0,0.0,0.0,0.0,0.0,-2.5004,0.0,0.0,-2.8712,0.0,0.0,0.0,0.0,-3.97,-4.172,-4.3066,-4.4124,-4.4979,-4.5402,-4.5441,-4.4855,-4.4739,-4.4566,-4.4047,-4.4374,-4.4739,-4.4739,-4.5229,-4.5594,-4.5594,-4.5994,-4.6081,-4.5506,-4.583,0.0,0.0,0.0,0.0,-4.7909,-4.8022,-4.8588,-4.9828,-5.0031,-5.0283,-5.0683,-5.0712,-5.0712,-5.0712,-5.0712,-5.0712,-5.0712,-5.0554,-5.0358,-5.0092,-4.9827,-4.9397,-4.8897,-4.8761,-4.855,-4.8251,-4.7424,-4.6636,-4.581,-4.5021,-4.4213,-4.3515,-4.3515,-4.3515,-4.3515,-1.0208,-1.0229,-1.023,-1.0208,-1.0252,0.0,0.0,0.0,0.0,0.0,0.0,0.0,0.0,0.0,0.0,0.0,0.0,-2.0123,-2.2415,0.0,0.0,0.0,0.0,0.0,0.0,0.0,0.0,0.0,0.0,0.0,0.0,0.0,0.0,0.0,0.0,0.0,0.0,0.0,0.0,0.0,0.0,0.0,-3.0634,-2.9706,-2.8346,0.0,0.0,0.0,0.0,0.0,0.0,0.0,0.0,0.0,0.0,0.0,0.0,-3.4949,0.0,-3.9912,-4.145,-4.3489,-4.4374,-4.4913,-4.5479,-4.5364,-4.4902,-4.4047,-4.3624,-4.3143,-4.2316,-4.2585,-4.3143,-4.3778,-4.4586,-4.5364,-4.597,-4.6797,-4.7124,-4.6567,-4.699,-4.7105,0.0,0.0,0.0,-4.7875,-4.8139,-4.8916,-5.0442,-5.0543,-5.0723,-5.1115,-5.1125,-5.0991,-5.0712,-5.0712,-5.0712,-5.0712,-5.0712,-5.0565,-5.0313,-5.0171,-4.9813,-4.9307,-4.9027,-4.8829,-4.8673,-4.785,-4.6967,-4.6041,-4.5386,-4.4452,-4.3515,-4.3515,-4.3515,-4.3515,-1.0229,-1.0291,-1.0332,0.0,0.0,0.0,0.0,0.0,0.0,0.0,0.0,0.0,0.0,0.0,0.0,0.0,0.0,0.0,0.0,0.0,0.0,0.0,0.0,0.0,-2.7708,-2.7857,0.0,0.0,0.0,0.0,0.0,0.0,0.0,0.0,0.0,0.0,0.0,0.0,0.0,0.0,0.0,0.0,-2.8028,-2.7207,0.0,0.0,0.0,0.0,0.0,0.0,0.0,0.0,0.0,0.0,0.0,0.0,0.0,-3.745,-3.9958,-4.1296,-4.2566,-4.4998,-4.5594,-4.5594,-4.5537,-4.4855,-4.3989,-4.3085,-4.222,-4.1316,0.0,0.0,-4.1035,-4.2643,-4.3758,-4.5009,-4.6682,-4.7625,-4.8144,0.0,0.0,0.0,0.0,0.0,0.0,-4.7716,0.0,-4.9254,-5.1223,-5.1369,-5.1538,-5.1894,-5.1904,-5.151,-5.0712,-5.0712,-5.0712,-5.0712,-5.0712,-5.0712,-5.0683,-5.0294,-5.0123,-5.0056,-4.9276,-4.9171,-4.9431,-4.8693,-4.7643,-4.6456,-4.6079,-4.4928,-4.3515,-4.3515,-4.3515,-4.3515,0.0,0.0,0.0,0.0,0.0,0.0,0.0,0.0,0.0,0.0,0.0,0.0,0.0,0.0,0.0,0.0,0.0,0.0,0.0,0.0,0.0,0.0,0.0,0.0,0.0,0.0,0.0,0.0,0.0,0.0,0.0,0.0,0.0,0.0,0.0,0.0,0.0,0.0,0.0,0.0,0.0,0.0,-2.8065,0.0,0.0,0.0,0.0,0.0,0.0,0.0,0.0,0.0,0.0,0.0,-3.3814,0.0,0.0,-3.995,-4.1912,-4.3508,-4.4786,-4.5441,-4.5594,-4.5441,-4.4778,-4.3989,-4.2816,-4.07,-3.9585,-3.8315,-3.6206,0.0,0.0,-4.0285,-4.3624,0.0,-4.6827,-4.8144,0.0,0.0,0.0,-4.9067,-4.9067,-4.9567,0.0,0.0,-5.0057,-5.025,-5.1674,-5.2368,-5.2457,-5.1923,-5.1904,-5.151,-5.0712,-5.0712,-5.0712,-5.0712,-5.0712,-5.0712,-5.0702,-5.0604,-5.0369,-5.008,-4.9879,-4.9673,-4.9475,-4.928,-4.8122,-4.6491,-4.6394,-4.5183,-4.3515,-4.3515,-4.3515,-4.3515,0.0,0.0,0.0,0.0,0.0,0.0,0.0,0.0,0.0,0.0,0.0,0.0,0.0,0.0,0.0,0.0,0.0,0.0,0.0,0.0,0.0,0.0,0.0,0.0,0.0,0.0,0.0,0.0,0.0,0.0,0.0,0.0,0.0,0.0,0.0,0.0,0.0,0.0,0.0,0.0,0.0,0.0,0.0,0.0,0.0,0.0,0.0,0.0,0.0,0.0,0.0,-3.1712,-3.2962,-3.4776,-3.6687,-3.7988,0.0,-4.1931,-4.3278,-4.4586,-4.5594,-4.5594,-4.5306,-4.4701,-4.3489,-4.2277,-4.0604,-3.7668,-3.6372,0.0,-3.2929,0.0,0.0,0.0,0.0,0.0,-4.7221,-4.8567,-4.9356,0.0,-4.999,0.0,-5.051,-5.1139,-5.179,0.0,-5.1845,-5.1919,-5.2981,-5.351,-5.3549,-5.3068,-5.2673,-5.1895,-5.0712,-5.0712,-5.0712,-5.0712,-5.0712,-5.0712,-5.0712,-5.0712,-5.0584,-5.0347,0.0,-5.0068,-4.9993,-4.946,-4.8261,-4.672,-4.6362,-4.5117,-4.3515,-4.3515,-4.3515,-4.3515,0.0,0.0,0.0,0.0,0.0,0.0,0.0,0.0,0.0,0.0,0.0,0.0,0.0,0.0,0.0,0.0,0.0,0.0,0.0,0.0,0.0,0.0,0.0,0.0,0.0,0.0,0.0,0.0,0.0,0.0,0.0,0.0,0.0,0.0,0.0,0.0,0.0,0.0,0.0,0.0,0.0,0.0,0.0,0.0,0.0,0.0,0.0,0.0,0.0,0.0,-3.2545,-3.3872,-3.5615,-3.7834,-3.9958,-4.0766,-4.2066,-4.3431,-4.4239,-4.5017,-4.5594,-4.5594,-4.4855,-4.3701,-4.2008,-4.0162,-3.7861,-3.4552,0.0,-3.1872,-3.0192,0.0,-3.484,-3.7276,0.0,-4.4278,-4.7625,-4.8856,-4.9721,-5.0596,-5.1318,-5.1827,-5.2038,-5.2449,-5.2931,-5.349,-5.3433,-5.3703,-5.4453,-5.4491,-5.4395,-5.4164,-5.3318,-5.2164,-5.0712,-5.0712,-5.0712,-5.0712,-5.0712,-5.0712,-5.0712,-5.0712,-5.0712,-5.0673,-5.0336,0.0,-5.0614,-4.9499,-4.8288,-4.7037,-4.6264,-4.4963,-4.3515,-4.3515,-4.3515,-4.3515,0.0,0.0,0.0,0.0,0.0,0.0,0.0,0.0,0.0,0.0,0.0,0.0,0.0,0.0,0.0,0.0,0.0,0.0,0.0,0.0,0.0,0.0,0.0,0.0,0.0,0.0,0.0,0.0,0.0,0.0,0.0,0.0,0.0,0.0,0.0,0.0,0.0,0.0,0.0,0.0,0.0,0.0,0.0,0.0,0.0,0.0,0.0,0.0,0.0,0.0,-3.4103,-3.7411,-3.9104,-4.0912,-4.2604,-4.3393,-4.3855,-4.4278,-4.5152,-4.5479,-4.5594,-4.5594,-4.4432,-4.2854,-4.1131,-3.8354,0.0,0.0,0.0,-2.9261,-2.7563,-3.0467,0.0,-3.5635,0.0,0.0,0.0,0.0,-4.9721,0.0,0.0,0.0,0.0,0.0,0.0,0.0,0.0,-5.4337,-5.4491,-5.4491,-5.3837,-5.2404,-5.1568,-5.1,-5.0712,-5.0712,-5.0712,-5.0712,-5.0712,-5.0712,-5.0712,-5.0712,-5.0712,-5.0702,-5.0624,0.0,-5.0663,-5.0123,-4.8787,-4.7046,-4.6582,-4.5216,-4.3515,-4.3515,-4.3515,-4.3515,0.0,0.0,0.0,0.0,0.0,0.0,0.0,-1.6309,-1.8027,-1.9805,-1.9602,-1.9285,-1.9208,-1.9137,0.0,0.0,0.0,0.0,0.0,0.0,0.0,0.0,0.0,0.0,0.0,0.0,0.0,0.0,0.0,0.0,0.0,0.0,0.0,0.0,0.0,0.0,0.0,0.0,0.0,0.0,0.0,0.0,0.0,0.0,0.0,0.0,0.0,0.0,0.0,0.0,-3.2908,-3.6546,-3.9554,-4.17,-4.3258,-4.4066,-4.4297,-4.4489,-4.5364,-4.5594,-4.5594,-4.5594,-4.3989,-4.1739,-3.9123,0.0,0.0,0.0,0.0,-2.7409,-2.6154,0.0,0.0,0.0,0.0,0.0,0.0,0.0,0.0,0.0,0.0,0.0,0.0,0.0,0.0,0.0,0.0,-5.4491,-5.4491,-5.4068,-5.3241,-5.1942,-5.1529,-5.1125,-5.0712,-5.0712,-5.0712,-5.0712,-5.0712,-5.0712,-5.0712,-5.0712,-5.0712,-5.0712,-5.0712,0.0,-5.032,-4.9499,-4.8229,-4.6712,-4.5865,-4.4715,-4.3515,-4.3515,-4.3515,-4.3515,0.0,0.0,0.0,0.0,0.0,0.0,0.0,-1.7363,-1.9141,-2.1582,-2.2008,-2.1797,-2.1057,-2.0189,-1.9859,0.0,0.0,0.0,0.0,0.0,0.0,0.0,0.0,0.0,0.0,0.0,0.0,0.0,0.0,0.0,0.0,0.0,0.0,0.0,0.0,0.0,0.0,0.0,0.0,0.0,0.0,0.0,0.0,0.0,0.0,0.0,0.0,0.0,0.0,0.0,-3.0819,-3.3775,-3.7445,-4.0412,-4.2662,-4.3297,-4.3874,-4.4451,-4.5152,-4.546,-4.5594,-4.5594,-4.3547,-4.0681,-3.7442,-3.4449,0.0,0.0,-2.6447,-2.6115,-2.5423,0.0,0.0,0.0,0.0,0.0,0.0,0.0,0.0,0.0,0.0,0.0,0.0,0.0,0.0,0.0,0.0,0.0,-5.3933,-5.3299,-5.2529,-5.1673,-5.1635,-5.1337,-5.0712,-5.0712,-5.0712,-5.0712,-5.0712,-5.0712,-5.0712,-5.0712,-5.0712,-5.0712,-5.0712,0.0,0.0,-4.8903,-4.7759,-4.6596,-4.531,-4.4315,-4.3597,-4.3531,-4.3515,-4.3515,0.0,0.0,0.0,0.0,0.0,0.0,0.0,-1.709,-1.9844,-2.166,-2.2539,-2.2947,-2.2852,-2.2018,-2.1169,0.0,0.0,0.0,0.0,0.0,0.0,0.0,0.0,0.0,0.0,0.0,0.0,0.0,0.0,0.0,0.0,0.0,0.0,0.0,0.0,0.0,0.0,0.0,0.0,0.0,0.0,0.0,0.0,0.0,0.0,0.0,0.0,0.0,0.0,0.0,0.0,-2.9994,-3.1908,-3.6295,-4.0746,-4.0823,0.0,0.0,-4.4393,-4.4998,-4.5594,-4.5594,-4.3094,-3.9938,-3.7296,0.0,0.0,0.0,-2.5962,-2.5404,-2.5308,-2.6135,0.0,0.0,0.0,0.0,0.0,0.0,0.0,0.0,0.0,0.0,0.0,0.0,0.0,0.0,0.0,0.0,-5.2135,-5.2058,-5.1645,-5.0846,-5.0808,-5.077,-5.0712,-5.0712,-5.0712,-5.0712,-5.0712,-5.0712,-5.0712,-5.0712,-5.0712,-5.0712,-5.0712,0.0,0.0,-4.9278,-4.826,-4.7343,-4.5783,-4.4662,-4.3909,-4.3595,-4.3515,-4.3515,0.0,0.0,0.0,0.0,0.0,0.0,-1.5371,-1.7285,-1.9687,-2.2988,-2.3262,-2.3339,-2.3833,-2.3079,-2.1976,-2.0586,0.0,0.0,0.0,0.0,0.0,0.0,0.0,0.0,0.0,0.0,0.0,0.0,0.0,0.0,0.0,0.0,0.0,0.0,0.0,0.0,0.0,0.0,0.0,0.0,0.0,0.0,0.0,0.0,0.0,0.0,0.0,0.0,0.0,0.0,0.0,0.0,-2.8473,-3.1334,0.0,0.0,-4.0439,-4.2362,-4.3874,-4.494,-4.5479,-4.496,-4.2651,-3.9573,-3.6007,0.0,0.0,-2.6442,-2.5538,-2.5308,-2.5308,-2.5577,-2.6769,0.0,-3.0583,0.0,0.0,0.0,0.0,0.0,0.0,0.0,0.0,0.0,0.0,0.0,0.0,0.0,-5.1202,-5.1183,-5.1029,-5.0712,-5.0712,-5.0712,-5.0712,-5.0712,-5.0712,-5.0712,-5.0712,-5.0712,-5.0712,-5.0712,-5.0712,-5.0712,-5.0712,0.0,0.0,-4.8491,-4.745,-4.6405,-4.5278,-4.4504,-4.3967,-4.3849,-4.366,-4.3515,0.0,0.0,0.0,0.0,0.0,-1.3594,-1.5625,-1.7324,-1.9551,-2.2852,-2.3223,-2.3417,-2.3958,-2.3248,-2.2231,-2.1025,-2.0552,0.0,0.0,0.0,0.0,0.0,0.0,0.0,0.0,0.0,0.0,0.0,0.0,0.0,0.0,0.0,0.0,0.0,0.0,0.0,0.0,0.0,0.0,0.0,0.0,0.0,0.0,0.0,0.0,0.0,0.0,0.0,0.0,0.0,0.0,0.0,0.0,0.0,0.0,0.0,-3.7853,-4.0208,-4.2258,-4.3816,-4.4701,-4.4105,-4.1835,-3.8784,0.0,0.0,-2.9115,-2.5942,-2.5308,-2.5308,-2.5308,-2.5308,-2.5962,0.0,-2.8525,-3.0256,-3.4846,0.0,0.0,0.0,0.0,0.0,0.0,0.0,0.0,0.0,0.0,0.0,0.0,-5.0712,-5.0712,-5.0712,-5.0712,-5.0712,-5.0712,-5.0712,-5.0712,-5.0712,-5.0712,-5.0712,-5.0712,-5.0712,-5.0558,-5.0327,-5.0327,0.0,0.0,-4.772,-4.6881,-4.6018,-4.511,-4.4561,-4.4304,-4.4073,-4.3849,-4.3646,0.0,0.0,0.0,0.0,0.0,0.0,-1.4004,-1.7051,-1.9609,-2.0527,-2.2129,-2.3184,-2.3125,-2.2337,-2.1826,-2.1875,-2.0966,0.0,0.0,0.0,0.0,0.0,0.0,0.0,0.0,0.0,0.0,0.0,0.0,0.0,0.0,0.0,0.0,0.0,0.0,0.0,0.0,0.0,0.0,0.0,0.0,0.0,-2.5601,0.0,0.0,0.0,0.0,0.0,0.0,0.0,0.0,0.0,0.0,0.0,0.0,0.0,-3.4737,-3.8219,-3.9111,-4.12,-4.3124,-4.3104,-4.0546,-3.7353,0.0,-3.157,-2.8396,-2.5827,-2.5308,-2.5308,-2.5308,-2.5308,-2.5596,-2.6486,-2.8731,0.0,0.0,0.0,0.0,0.0,0.0,0.0,0.0,0.0,0.0,0.0,0.0,0.0,0.0,-5.0712,-5.0712,-5.0712,-5.0712,-5.0712,-5.0712,-5.0712,-5.0712,-5.0712,-5.0712,-5.0712,-5.0712,-5.0712,-5.0231,0.0,0.0,0.0,0.0,-4.7231,-4.6904,-4.6761,-4.5566,-4.5085,-4.5,-4.4276,-4.4001,-4.3982,0.0,0.0,0.0,0.0,0.0,0.0,0.0,-1.5039,-1.6699,-1.9355,-1.9668,-2.0098,-2.1269,-2.1152,-2.0995,-2.1016,-2.0671,0.0,0.0,0.0,0.0,0.0,0.0,0.0,0.0,0.0,0.0,0.0,0.0,0.0,0.0,0.0,0.0,0.0,0.0,0.0,0.0,0.0,0.0,0.0,0.0,-2.5509,-2.5604,0.0,0.0,0.0,0.0,0.0,0.0,0.0,0.0,0.0,0.0,0.0,0.0,-2.7717,0.0,0.0,-3.5591,-3.7238,-3.845,-3.7296,-3.5757,-3.3853,-3.1301,-2.9454,-2.7717,-2.5712,-2.5308,-2.5308,-2.5308,-2.5308,-2.6346,-2.9563,0.0,0.0,0.0,0.0,0.0,0.0,0.0,0.0,0.0,0.0,0.0,0.0,0.0,0.0,0.0,-5.0712,-5.0712,-5.0712,-5.0712,-5.0712,-5.0712,-5.0712,-5.0712,-5.0712,-5.0712,-5.0385,-4.9798,-4.9798,-4.9336,0.0,0.0,0.0,0.0,-4.7,-4.6547,-4.597,-4.5581,-4.5302,-4.5074,-4.4842,-4.46,-4.4419,0.0,0.0,0.0,0.0,0.0,0.0,0.0,-1.3965,-1.5371,-1.7539,-1.793,-1.8535,-1.9961,-2.0117,-2.0234,-2.0566,-2.0564,0.0,0.0,0.0,0.0,0.0,0.0,0.0,0.0,0.0,0.0,-2.5703,-2.6035,0.0,0.0,0.0,0.0,0.0,0.0,0.0,0.0,0.0,0.0,0.0,-2.552,-2.557,-2.5636,0.0,0.0,0.0,0.0,0.0,0.0,0.0,0.0,0.0,0.0,0.0,0.0,0.0,-2.8217,-3.0852,0.0,-3.3987,-3.5026,-3.3968,-3.2833,-3.1468,-2.955,-2.8222,-2.7005,-2.5596,-2.5308,-2.5308,-2.5308,-2.5308,-2.6288,-2.9294,-3.0314,0.0,0.0,0.0,0.0,0.0,0.0,0.0,0.0,0.0,0.0,0.0,0.0,0.0,0.0,-5.0712,-5.0712,-5.0712,-5.0712,-5.0712,-5.0712,-5.0712,-5.0712,-5.0712,-5.0366,-4.9933,-4.9394,-4.9067,-4.8452,0.0,0.0,0.0,0.0,-4.6413,-4.6086,-4.5594,-4.5594,-4.5457,-4.5263,-4.5159,-4.4966,-4.48,0.0,0.0,0.0,0.0,0.0,0.0,0.0,-1.3652,-1.5234,-1.5293,-1.6777,-1.8125,-1.8926,-1.9121,-1.9531,-2.0332,0.0,0.0,0.0,0.0,0.0,0.0,0.0,0.0,0.0,-2.3164,-2.4023,-2.5703,-2.6562,-2.6582,-2.5801,-2.668,0.0,0.0,0.0,0.0,0.0,0.0,0.0,0.0,-2.5569,-2.5597,0.0,0.0,0.0,0.0,0.0,0.0,0.0,0.0,0.0,0.0,0.0,0.0,0.0,0.0,0.0,0.0,0.0,-3.1212,-3.2449,-3.2372,-3.1192,-2.9827,-2.9006,-2.7621,0.0,-2.5462,-2.5308,-2.5365,-2.5538,-2.5481,-2.5808,-2.7024,0.0,0.0,0.0,0.0,0.0,0.0,0.0,0.0,0.0,0.0,0.0,0.0,0.0,0.0,-5.0712,-5.0635,-5.0616,-5.0616,-5.0558,-5.0577,-5.0712,-5.0712,-5.0673,-5.0596,-4.9779,-4.9336,-4.9183,-4.8375,-4.7567,0.0,0.0,0.0,0.0,-4.5594,-4.5594,-4.5594,-4.5594,-4.5594,-4.5568,-4.5243,-4.5148,-4.5148,0.0,0.0,0.0,0.0,0.0,0.0,0.0,0.0,0.0,0.0,-1.5317,-1.6085,-1.628,-1.7518,-1.8398,0.0,0.0,0.0,0.0,0.0,0.0,0.0,0.0,0.0,0.0,-2.3164,-2.4023,-2.5703,-2.6562,-2.6894,-2.6719,-2.7598,-2.7539,0.0,0.0,0.0,0.0,0.0,0.0,0.0,-2.5598,-2.5245,0.0,0.0,0.0,0.0,-2.4545,-2.4901,0.0,0.0,0.0,0.0,0.0,0.0,0.0,0.0,-2.5442,-2.575,-2.6346,0.0,-2.7928,-2.725,-2.6788,-2.6442,0.0,-2.5885,-2.5558,0.0,0.0,-2.5904,-2.7852,-2.7159,-2.7865,0.0,0.0,0.0,0.0,0.0,0.0,0.0,0.0,0.0,0.0,0.0,0.0,0.0,0.0,-5.0712,-5.0712,-5.0067,-4.9702,-4.9702,-4.9067,-4.9356,-5.0693,-5.0712,-5.0366,-4.9702,-4.949,-4.8721,-4.749,-4.7278,-4.6721,0.0,0.0,0.0,-4.5594,-4.5594,-4.5594,-4.5594,-4.5594,-4.5594,-4.5586,-4.5513,-4.5485,-4.5485,0.0,0.0,0.0,0.0,0.0,0.0,0.0,0.0,0.0,0.0,0.0,0.0,0.0,0.0,0.0,0.0,0.0,0.0,0.0,0.0,0.0,0.0,0.0,0.0,0.0,0.0,-2.4023,-2.5703,-2.6562,-2.6992,-2.7012,0.0,0.0,0.0,0.0,0.0,0.0,0.0,0.0,0.0,-2.5634,0.0,0.0,0.0,0.0,0.0,-2.3622,-2.4129,0.0,-2.4759,-2.5023,-2.5357,0.0,0.0,0.0,0.0,-2.5379,-2.535,-2.5379,-2.6283,-2.7082,-2.6621,-2.6486,-2.6486,-2.6486,0.0,0.0,0.0,0.0,-2.5846,-2.7621,-2.7832,0.0,0.0,0.0,0.0,0.0,0.0,0.0,0.0,0.0,0.0,0.0,0.0,0.0,0.0,0.0,-4.951,-4.951,-4.9067,-4.8798,-4.8798,-4.8355,-4.8548,-4.949,-4.951,-4.926,-4.8798,-4.8432,-4.7778,-4.6885,-4.649,-4.6047,0.0,0.0,0.0,-4.5594,-4.5594,-4.5594,-4.5594,-4.5594,-4.5594,-4.5594,-4.5594,-4.5594,-4.5594,0.0,0.0,0.0,0.0,0.0,0.0,0.0,0.0,0.0,0.0,0.0,0.0,0.0,0.0,0.0,0.0,0.0,0.0,0.0,0.0,0.0,0.0,0.0,0.0,0.0,0.0,0.0,0.0,0.0,0.0,0.0,0.0,-2.7202,0.0,0.0,0.0,0.0,0.0,0.0,-2.561,-2.5526,0.0,0.0,0.0,0.0,0.0,0.0,0.0,0.0,-2.3916,-2.4509,-2.5219,-2.5223,0.0,0.0,0.0,0.0,0.0,-2.559,-2.697,-2.8172,-2.7652,-2.779,-2.803,-2.7761,0.0,0.0,0.0,0.0,0.0,0.0,0.0,0.0,0.0,0.0,0.0,0.0,0.0,0.0,0.0,0.0,0.0,0.0,0.0,0.0,0.0,0.0,-4.8105,-4.8105,-4.799,-4.7932,-4.7932,-4.7798,-4.7721,-4.7721,-4.7971,-4.8048,-4.7913,-4.724,-4.6827,-4.6682,-4.5932,-4.5594,-4.5594,0.0,0.0,-4.5594,-4.5594,-4.5594,-4.5594,-4.5594,-4.5594,-4.5594,-4.5594,-4.5594,-4.5594,0.0,0.0,0.0,0.0,0.0,0.0,0.0,0.0,0.0,0.0,0.0,0.0,0.0,0.0,0.0,0.0,0.0,0.0,0.0,0.0,0.0,0.0,0.0,0.0,0.0,0.0,0.0,0.0,0.0,0.0,-2.8025,-2.8773,-2.8323,-2.6851,0.0,0.0,0.0,0.0,0.0,-2.5624,0.0,0.0,0.0,0.0,0.0,0.0,0.0,0.0,0.0,-2.3064,-2.3649,-2.4381,-2.438,0.0,0.0,0.0,0.0,0.0,-2.6138,-2.8266,-2.9409,-2.6513,-2.735,-2.8549,-2.7121,0.0,0.0,0.0,0.0,0.0,0.0,0.0,0.0,0.0,0.0,0.0,0.0,0.0,0.0,0.0,0.0,0.0,0.0,0.0,0.0,0.0,0.0,0.0,-4.8105,-4.7451,-4.7077,-4.7077,-4.6374,-4.5979,-4.5979,-4.7394,-4.7759,-4.7077,-4.6962,-4.6509,-4.5806,-4.5671,-4.5594,-4.5594,0.0,-4.5594,-4.5594,-4.5594,-4.5594,-4.5594,-4.5594,-4.5594,-4.5594,-4.5594,-4.5594,-4.5594,0.0,0.0,0.0,0.0,0.0,0.0,0.0,0.0,0.0,0.0,0.0,0.0,0.0,0.0,0.0,0.0,0.0,0.0,0.0,0.0,0.0,0.0,0.0,0.0,0.0,0.0,0.0,0.0,0.0,-2.8398,-2.8795,-2.8764,-2.7826,-2.6187,0.0,0.0,0.0,0.0,0.0,-2.5625,0.0,0.0,0.0,0.0,0.0,0.0,0.0,0.0,0.0,0.0,-2.3101,-2.4257,-2.4257,0.0,0.0,0.0,0.0,0.0,-2.5112,-2.6948,-2.824,-2.7129,-2.9023,-3.1064,-3.0775,0.0,0.0,0.0,0.0,0.0,0.0,0.0,0.0,0.0,0.0,0.0,0.0,0.0,0.0,0.0,0.0,0.0,0.0,0.0,0.0,0.0,0.0,0.0,-4.674,-4.6394,-4.6201,-4.6201,-4.5806,-4.5594,-4.5594,-4.6355,-4.6567,-4.6201,-4.6201,-4.599,-4.5594,-4.5594,-4.5594,-4.5594,0.0,-4.5594,-4.5594,-4.5594,-4.5594,-4.5594,-4.5594,-4.5594,-4.5594,-4.5594,-4.5594,-4.5594,0.0,0.0,0.0,0.0,0.0,0.0,0.0,0.0,0.0,0.0,0.0,0.0,0.0,0.0,0.0,0.0,0.0,0.0,0.0,0.0,0.0,0.0,0.0,0.0,0.0,0.0,-2.6017,-2.6915,-2.7748,-2.8333,-2.8686,-2.8064,-2.6997,0.0,0.0,0.0,0.0,0.0,-2.5703,-2.5605,0.0,0.0,0.0,0.0,0.0,0.0,0.0,0.0,0.0,0.0,0.0,0.0,0.0,0.0,0.0,-2.4335,-2.3784,-2.3379,-2.4643,-2.5873,-2.7106,-2.8359,-3.0351,-3.2391,-3.3878,0.0,0.0,0.0,0.0,0.0,0.0,0.0,0.0,0.0,0.0,0.0,0.0,0.0,0.0,0.0,0.0,0.0,0.0,0.0,0.0,0.0,0.0,0.0,-4.5594,-4.5594,-4.5594,-4.5594,-4.5594,-4.5594,-4.5594,-4.5594,-4.5594,-4.5594,-4.5594,-4.5594,-4.5594,-4.5594,-4.5594,-4.5594,-4.5594,-4.5594,-4.5594,-4.5594,-4.5594,-4.5594,-4.5594,-4.5594,-4.5594,-4.5594,-4.5594,-4.5594,0.0,0.0,0.0,0.0,0.0,0.0,0.0,0.0,0.0,0.0,0.0,0.0,0.0,0.0,0.0,0.0,0.0,0.0,0.0,0.0,0.0,0.0,0.0,0.0,0.0,-2.5106,-2.6002,-2.6992,-2.7675,-2.7625,-2.6881,-2.6827,-2.633,-2.55,0.0,0.0,0.0,0.0,-2.5703,-2.5547,-2.3867,0.0,0.0,0.0,0.0,0.0,0.0,0.0,0.0,0.0,0.0,0.0,0.0,0.0,-2.3346,-2.4159,-2.3785,-2.3631,-2.6056,-2.6755,-2.7362,-2.9732,-2.9858,0.0,-3.3455,-3.3468,0.0,0.0,0.0,0.0,0.0,0.0,0.0,0.0,0.0,0.0,0.0,0.0,0.0,0.0,0.0,0.0,0.0,0.0,0.0,0.0,0.0,0.0,-4.5594,-4.5594,-4.5594,-4.5594,-4.5594,-4.5594,-4.5594,-4.5594,-4.5594,-4.5594,-4.5594,-4.5594,-4.5594,-4.5594,-4.5594,-4.5594,-4.5594,-4.5594,-4.5594,-4.5594,-4.5594,-4.5594,-4.5594,-4.5594,-4.5594,-4.5594,-4.5594,-4.5594,0.0,0.0,0.0,0.0,0.0,0.0,0.0,0.0,0.0,0.0,0.0,0.0,0.0,0.0,0.0,0.0,0.0,0.0,0.0,0.0,0.0,0.0,0.0,-2.332,-2.3588,-2.5383,-2.6491,-2.6889,-2.7676,-2.7621,-2.6765,-2.6795,0.0,0.0,0.0,0.0,0.0,0.0,0.0,-2.4785,-2.3633,-2.2832,0.0,0.0,0.0,0.0,0.0,0.0,0.0,0.0,-2.1722,-2.2693,-2.2812,-2.3339,-2.3865,-2.3652,-2.3007,-2.279,-2.4798,-2.6059,-2.7285,-2.9267,0.0,0.0,0.0,0.0,0.0,0.0,0.0,0.0,0.0,0.0,0.0,0.0,0.0,0.0,0.0,0.0,0.0,0.0,0.0,0.0,0.0,0.0,0.0,0.0,0.0,0.0,0.0,-4.5594,-4.5594,-4.5594,-4.5594,-4.5594,-4.5594,-4.5594,-4.5594,-4.5594,-4.5594,-4.5594,-4.5594,-4.5594,-4.5594,-4.5594,-4.5594,-4.5594,-4.5594,-4.5594,-4.5594,-4.5594,-4.5594,-4.5594,-4.5594,-4.5594,-4.5594,-4.5594,0.0,0.0,0.0,0.0,0.0,0.0,0.0,0.0,0.0,0.0,0.0,0.0,0.0,0.0,0.0,0.0,0.0,0.0,0.0,0.0,0.0,0.0,0.0,-2.2478,-2.2695,-2.4865,-2.6143,-2.6381,-2.7251,-2.7237,-2.6393,0.0,0.0,0.0,0.0,0.0,0.0,0.0,0.0,0.0,-2.3202,-2.2402,0.0,0.0,0.0,0.0,0.0,0.0,0.0,0.0,-2.1557,-2.2363,-2.2324,-2.291,-2.3535,-2.3203,-2.291,-2.3008,-2.4414,-2.5785,-2.7278,0.0,0.0,0.0,0.0,0.0,0.0,0.0,0.0,0.0,0.0,0.0,0.0,0.0,0.0,0.0,0.0,0.0,0.0,0.0,0.0,0.0,0.0,0.0,0.0,0.0,0.0,0.0,0.0,-4.5594,-4.5594,-4.5594,-4.5594,-4.5594,-4.5594,-4.5594,-4.5594,-4.5594,-4.5594,-4.5594,-4.5594,-4.5594,-4.5594,-4.5594,-4.5594,-4.5594,-4.5594,-4.5594,-4.5594,-4.5594,-4.5594,-4.5594,-4.5594,-4.5594,-4.5594,-4.5594,0.0,0.0,0.0,0.0,0.0,0.0,0.0,0.0,0.0,0.0,0.0,0.0,0.0,0.0,0.0,0.0,0.0,0.0,0.0,0.0,0.0,0.0,0.0,-2.0974,-2.1769,-2.3412,-2.4667,-2.5488,-2.634,-2.6335,-2.5493,-2.5566,0.0,0.0,0.0,0.0,0.0,0.0,0.0,0.0,-2.251,-2.1849,-2.1797,0.0,0.0,0.0,0.0,0.0,0.0,0.0,-2.1264,-2.0918,-2.2637,-2.2598,-2.207,-2.2852,-2.3711,-2.459,-2.5449,-2.6241,-2.7437,0.0,0.0,0.0,0.0,0.0,0.0,0.0,0.0,0.0,0.0,0.0,0.0,0.0,0.0,0.0,0.0,0.0,0.0,0.0,0.0,0.0,0.0,0.0,0.0,0.0,0.0,0.0,0.0,-4.5594,-4.5594,-4.5594,-4.5594,-4.5594,-4.5594,-4.5594,-4.5594,-4.5594,-4.5594,-4.5594,-4.5594,-4.5594,-4.5594,-4.5594,-4.5594,-4.5594,-4.5594,-4.5594,-4.5594,-4.5594,-4.5594,-4.5594,-4.5594,-4.5594,-4.5594,-4.5594,0.0,0.0,0.0,0.0,0.0,0.0,0.0,0.0,0.0,0.0,0.0,0.0,0.0,0.0,0.0,0.0,0.0,0.0,0.0,0.0,0.0,0.0,0.0,0.0,0.0,0.0,-2.3166,-2.4593,-2.4935,-2.4963,0.0,0.0,0.0,-2.5662,0.0,0.0,0.0,0.0,0.0,0.0,-2.2987,-2.2421,-2.1855,0.0,0.0,0.0,0.0,0.0,0.0,0.0,0.0,0.0,-2.1406,-2.2422,-2.3477,-2.2539,-2.3262,-2.4453,-2.4727,-2.6622,0.0,0.0,0.0,0.0,0.0,0.0,0.0,0.0,0.0,0.0,0.0,0.0,0.0,0.0,0.0,0.0,0.0,0.0,0.0,0.0,0.0,0.0,0.0,0.0,0.0,0.0,0.0,0.0,0.0,-4.5594,-4.5594,-4.5594,-4.5594,-4.5594,-4.5594,-4.5594,-4.5594,-4.5594,-4.5594,-4.5594,-4.5594,-4.5594,-4.5594,-4.5594,-4.5594,-4.5594,-4.5594,-4.5594,-4.5594,-4.5594,-4.5594,-4.5594,-4.5594,-4.5594,-4.5594,-4.5594,0.0,0.0,0.0,0.0,0.0,0.0,0.0,0.0,0.0,0.0,0.0,-1.5192,0.0,0.0,0.0,0.0,0.0,0.0,0.0,0.0,0.0,0.0,0.0,0.0,0.0,-2.152,-2.227,0.0,0.0,0.0,0.0,0.0,0.0,-2.5703,0.0,-2.5215,0.0,0.0,0.0,0.0,-2.2772,-2.2343,-2.1894,0.0,0.0,0.0,0.0,0.0,0.0,0.0,0.0,0.0,-2.0762,-2.1641,-2.2754,-2.2067,-2.3319,-2.5058,-2.5708,0.0,0.0,0.0,0.0,0.0,0.0,0.0,0.0,0.0,0.0,0.0,0.0,0.0,0.0,0.0,0.0,0.0,0.0,0.0,0.0,0.0,0.0,0.0,0.0,0.0,0.0,0.0,0.0,0.0,0.0,-4.5594,-4.5594,-4.5594,-4.5594,-4.5594,-4.5594,-4.5594,-4.5594,-4.5594,-4.5594,-4.5594,-4.5594,-4.5594,-4.5594,-4.5594,-4.5594,-4.5594,-4.5594,-4.5594,-4.5594,-4.5594,-4.5594,-4.5594,-4.5594,-4.5594,-4.5594,-4.5594,0.0,0.0,-1.3898,-1.3898,0.0,0.0,0.0,0.0,0.0,0.0,-1.5192,-1.5192,0.0,0.0,0.0,-1.5293,0.0,0.0,0.0,0.0,0.0,0.0,0.0,0.0,0.0,0.0,0.0,0.0,0.0,0.0,0.0,0.0,-2.4785,-2.5703,0.0,-2.5098,0.0,0.0,0.0,0.0,-2.2121,-2.185,-2.1894,-2.1827,0.0,0.0,0.0,0.0,0.0,0.0,0.0,0.0,-2.0605,-2.0644,-2.0859,-2.1486,-2.3527,-2.5913,-2.7449,0.0,0.0,0.0,0.0,0.0,0.0,0.0,0.0,0.0,0.0,0.0,0.0,0.0,0.0,0.0,0.0,0.0,0.0,0.0,0.0,0.0,0.0,0.0,0.0,0.0,0.0,0.0,0.0,0.0,0.0,-4.5594,-4.5594,-4.5594,-4.5594,-4.5594,-4.5594,-4.5594,-4.5594,-4.5594,-4.5594,-4.5556,-4.5479,-4.5556,-4.5594,-4.5594,-4.5594,-4.5594,-4.5594,-4.5594,-4.5594,-4.5594,-4.5518,-4.5479,-4.5479,-4.5402,-4.5364,-4.5364,0.0,0.0,-1.3898,-1.3898,0.0,0.0,0.0,0.0,-1.5192,-1.5192,-1.5192,-1.5192,-1.5192,-1.5192,0.0,-1.5293,-1.53,0.0,0.0,0.0,0.0,0.0,0.0,0.0,0.0,0.0,0.0,0.0,0.0,0.0,0.0,0.0,0.0,-2.5664,0.0,-2.4219,0.0,0.0,0.0,-2.2148,-2.1953,-2.1894,-2.1894,-2.1874,-2.1347,0.0,0.0,0.0,0.0,0.0,0.0,0.0,-2.0605,-2.1074,-2.1504,-2.0943,-2.2599,-2.4819,0.0,0.0,0.0,0.0,0.0,0.0,0.0,0.0,0.0,0.0,0.0,0.0,0.0,0.0,0.0,0.0,0.0,0.0,0.0,0.0,0.0,0.0,0.0,0.0,0.0,0.0,0.0,0.0,0.0,0.0,-4.5594,-4.5594,-4.5594,-4.5594,-4.5594,-4.5594,-4.5594,-4.5594,-4.5594,0.0,-4.5594,-4.5248,-4.4605,-4.5287,-4.5594,-4.5594,-4.5594,-4.5594,-4.5594,-4.5594,-4.5594,-4.5537,-4.4855,-4.4586,-4.4489,-4.3874,-4.3643,-4.3643,0.0,0.0,0.0,0.0,0.0,0.0,0.0,0.0,-1.5192,-1.5192,-1.5192,-1.5192,-1.5192,-1.5226,0.0,0.0,-1.5305,-1.5328,0.0,0.0,0.0,0.0,0.0,0.0,0.0,0.0,0.0,0.0,0.0,0.0,0.0,0.0,0.0,-2.5664,0.0,-2.3945,0.0,0.0,-2.1894,-2.1894,-2.1894,-2.1641,-2.1289,-2.1289,-2.0742,-1.998,-1.998,0.0,0.0,0.0,0.0,0.0,0.0,0.0,-2.1269,-2.1156,-2.2642,-2.4692,0.0,0.0,0.0,0.0,0.0,0.0,0.0,0.0,0.0,0.0,0.0,0.0,0.0,0.0,0.0,0.0,0.0,0.0,0.0,0.0,0.0,0.0,0.0,0.0,0.0,0.0,0.0,0.0,0.0,-4.5594,-4.5594,-4.5594,-4.5594,-4.5594,-4.5594,-4.5402,-4.4979,-4.5402,-4.521,-4.4412,-4.4778,-4.4528,-4.3758,-4.4586,-4.4979,-4.4979,-4.4979,-4.4759,-4.4393,-4.4393,-4.4393,-4.4355,-4.3893,-4.372,-4.3662,-4.3258,-4.3104,-4.3104,0.0,0.0,0.0,0.0,0.0,0.0,0.0,0.0,0.0,-1.5192,-1.5192,-1.5192,-1.5192,-1.525,-1.5291,0.0,0.0,0.0,-1.5393,0.0,0.0,0.0,0.0,0.0,0.0,0.0,0.0,0.0,0.0,0.0,0.0,0.0,0.0,-2.5664,0.0,0.0,0.0,0.0,-2.1582,-2.1445,-2.1289,-2.0781,-2.0156,-2.0156,-1.9707,-1.9082,-1.9082,-1.9648,-2.0371,-2.0371,0.0,0.0,0.0,0.0,-2.0507,-2.1155,-2.2471,-2.4232,0.0,0.0,0.0,0.0,0.0,0.0,0.0,0.0,0.0,0.0,0.0,0.0,0.0,0.0,0.0,0.0,0.0,0.0,0.0,0.0,0.0,0.0,0.0,0.0,0.0,0.0,0.0,0.0,0.0,-4.5171,-4.5171,-4.5171,-4.5171,-4.5171,-4.5171,-4.4816,-4.4105,-4.4806,-4.447,-4.3104,-4.3624,-4.3605,-4.3124,-4.3624,-4.3951,-4.4085,-4.4085,-4.372,-4.3104,-4.3104,-4.3104,-4.3085,-4.2931,-4.2874,-4.2854,-4.2701,-4.2643,-4.2643,0.0,0.0,0.0,0.0,0.0,0.0,0.0,0.0,0.0,0.0,-1.5192,-1.5192,-1.5192,-1.5201,-1.5241,-1.5281,-1.5293,-1.533,0.0,0.0,0.0,0.0,0.0,0.0,0.0,0.0,0.0,0.0,0.0,0.0,0.0,0.0,0.0,-2.5664,0.0,0.0,0.0,0.0,-2.0332,-1.957,-1.8828,-1.8457,-1.8359,-1.8359,-1.8262,-1.8164,-1.8164,-1.873,-1.9473,-1.9473,-1.998,0.0,0.0,0.0,0.0,0.0,-2.0252,0.0,0.0,0.0,0.0,0.0,0.0,0.0,0.0,0.0,0.0,0.0,0.0,0.0,0.0,0.0,0.0,0.0,0.0,0.0,0.0,0.0,0.0,0.0,0.0,0.0,0.0,0.0,0.0,0.0,0.0,0.0,-4.3431,-4.3431,-4.3431,-4.3431,-4.3431,-4.3374,-4.3258,-4.3374,-4.3316,-4.3085,-4.245,-4.247,-4.3085,-4.2431,-4.2547,-4.3258,-4.3258,-4.3201,-4.3104,-4.3104,-4.3104,-4.3028,-4.2277,-4.1962,-4.1893,-4.1123,-4.0843,-4.0843,0.0,0.0,0.0,0.0,0.0,0.0,0.0,0.0,0.0,0.0,0.0,-1.5192,-1.5192,-1.5232,-1.5246,-1.5248,-1.528,0.0,0.0,0.0,0.0,0.0,0.0,0.0,0.0,0.0,0.0,0.0,0.0,0.0,0.0,-2.4199,-2.5273,0.0,0.0,0.0,0.0,0.0,0.0,-1.9277,-1.8887,-1.9316,-1.9961,-1.8027,-1.8477,-1.9922,-1.7969,-1.8144,-1.9297,-1.9297,-1.9883,-2.0508,-2.0039,0.0,0.0,0.0,0.0,0.0,0.0,0.0,0.0,0.0,0.0,0.0,0.0,0.0,0.0,0.0,0.0,0.0,0.0,0.0,0.0,0.0,0.0,0.0,0.0,0.0,0.0,0.0,0.0,0.0,0.0,0.0,0.0,0.0,0.0,-4.3146,-4.3094,-4.3104,-4.3104,-4.3104,-4.3104,-4.2874,-4.2374,-4.2854,-4.2854,-4.2354,-4.1489,-4.1258,-4.1623,-4.1239,-4.1546,-4.2374,-4.2374,-4.2085,-4.1643,-4.1643,-4.1643,-4.1604,-4.1219,-4.1066,-4.1027,-4.065,-4.0496,-4.0496,0.0,0.0,0.0,0.0,0.0,0.0,0.0,0.0,0.0,0.0,0.0,-1.5192,-1.5192,0.0,0.0,0.0,-1.5272,0.0,0.0,0.0,0.0,0.0,0.0,0.0,0.0,0.0,0.0,0.0,0.0,0.0,-2.4746,-2.4961,-2.6914,0.0,-2.8437,0.0,0.0,0.0,0.0,-1.9961,-1.9961,-2.0742,-2.1699,-1.9727,-2.0605,-2.2441,-1.9199,0.0,0.0,0.0,0.0,0.0,0.0,0.0,0.0,0.0,0.0,0.0,0.0,0.0,0.0,0.0,0.0,0.0,0.0,0.0,0.0,0.0,0.0,0.0,0.0,0.0,0.0,0.0,0.0,0.0,0.0,0.0,0.0,0.0,0.0,0.0,0.0,0.0,0.0,0.0,0.0,-4.2563,-4.2499,-4.2483,-4.2468,-4.2431,-4.2431,-4.2124,-4.1489,-4.2104,-4.2104,-4.147,-4.0804,-4.0496,-4.0496,-4.0496,-4.0854,-4.147,-4.147,-4.1104,-4.0496,-4.0496,-4.0496,-4.0496,-4.0496,-4.0496,-4.0496,-4.0496,-4.0496,-4.0496,0.0,0.0,0.0,0.0,0.0,0.0,0.0,0.0,0.0,0.0,0.0,-1.5192,-1.5192,-1.5195,-1.5226,-1.5289,-1.5298,0.0,0.0,0.0,0.0,0.0,0.0,0.0,0.0,0.0,0.0,0.0,0.0,0.0,-2.5644,-2.6484,-2.8711,-3.1992,-3.0234,-2.7578,-2.4336,0.0,0.0,-2.1758,-2.1758,-2.1816,-2.2148,-2.4375,-2.5332,-2.5156,0.0,0.0,0.0,0.0,0.0,0.0,0.0,0.0,0.0,0.0,0.0,0.0,0.0,0.0,0.0,0.0,0.0,0.0,0.0,0.0,0.0,0.0,0.0,0.0,0.0,0.0,0.0,0.0,0.0,0.0,0.0,0.0,0.0,0.0,0.0,0.0,0.0,0.0,0.0,0.0,0.0,-4.0893,-4.0827,-4.0821,-4.0771,-4.0639,-4.065,-4.0612,-4.0573,-4.0612,-4.0612,-4.0573,-4.0516,-4.0496,-4.0496,-4.0496,-4.0516,-4.0573,-4.0573,-4.0535,-4.0496,-4.0496,-4.0496,-4.0496,-4.0496,-4.0496,-4.0496,-4.0496,-4.0496,-4.0496,0.0,0.0,0.0,0.0,0.0,0.0,0.0,0.0,0.0,0.0,0.0,0.0,0.0,-1.5192,-1.5204,-1.5232,-1.5234,0.0,0.0,0.0,0.0,0.0,0.0,0.0,0.0,0.0,0.0,0.0,0.0,-1.8711,-2.3281,-2.4141,-2.5508,-2.7266,-2.8887,-2.8281,-2.5977,-2.457,0.0,0.0,-2.3066,-2.4512,-2.5996,-2.5781,-2.709,-2.8613,0.0,0.0,0.0,0.0,0.0,0.0,0.0,-1.8691,-1.7715,-1.6289,0.0,0.0,0.0,0.0,0.0,0.0,0.0,0.0,0.0,0.0,0.0,0.0,0.0,0.0,0.0,0.0,0.0,0.0,0.0,0.0,0.0,0.0,0.0,0.0,0.0,0.0,0.0,0.0,0.0,0.0,0.0,0.0,-4.0761,-4.0757,-4.0717,-4.0636,-4.063,-4.0602,-4.0496,-4.0496,-4.0496,-4.0496,-4.0496,-4.0496,-4.0496,-4.0496,-4.0496,-4.0496,-4.0496,-4.0496,-4.0496,-4.0496,-4.0496,-4.0496,-4.0496,-4.0496,-4.0496,-4.0496,-4.0496,-4.0496,0.0,0.0,0.0,-1.5901,0.0,-1.5635,-1.5635,-1.5635,-1.5635,-1.5635,0.0,0.0,0.0,0.0,-1.5926,-1.5654,-1.5635,-1.55,-1.5212,0.0,0.0,0.0,0.0,0.0,0.0,0.0,0.0,0.0,0.0,0.0,0.0,-2.2227,-2.3359,-2.4492,-2.6523,-2.7109,0.0,0.0,0.0,-2.3359,0.0,0.0,-2.8398,0.0,-3.0664,0.0,0.0,0.0,0.0,0.0,0.0,0.0,0.0,-1.8965,-1.7285,-1.582,0.0,0.0,0.0,0.0,0.0,0.0,0.0,0.0,0.0,0.0,0.0,0.0,0.0,0.0,0.0,0.0,0.0,0.0,0.0,0.0,0.0,0.0,0.0,0.0,0.0,0.0,0.0,0.0,0.0,0.0,0.0,0.0,-4.0442,-4.0711,-4.0704,-4.0343,-4.0595,-4.0394,-3.9699,-4.0258,-4.0403,-4.0092,-4.0092,-4.0092,-4.0092,-4.0092,-4.0092,-4.0112,-4.0381,-4.0496,-4.0496,-4.0496,-4.0496,-4.0496,-4.0496,-4.0496,-4.0496,-4.0496,-4.0496,-4.0496,-1.6097,-1.6939,-1.7611,-1.7682,-1.7042,-1.6545,-1.6545,-1.6545,-1.6545,-1.6545,0.0,0.0,0.0,0.0,0.0,-1.6641,-1.6545,-1.6176,-1.5308,-1.5212,0.0,0.0,0.0,0.0,0.0,0.0,0.0,0.0,0.0,0.0,0.0,0.0,-2.2676,-2.4219,-2.3398,-2.3984,-2.5586,0.0,-2.5664,-2.5996,0.0,-2.9101,-2.9121,0.0,0.0,0.0,-3.3828,-3.3008,0.0,-2.8379,0.0,0.0,0.0,-1.9531,-1.6602,-1.5723,-1.6113,0.0,0.0,0.0,0.0,0.0,0.0,0.0,0.0,0.0,0.0,0.0,0.0,0.0,0.0,0.0,0.0,0.0,0.0,0.0,0.0,0.0,0.0,0.0,0.0,0.0,0.0,0.0,0.0,0.0,0.0,-4.07,-3.971,-4.0469,-4.0518,-3.9591,-4.033,-3.9872,-3.8122,-3.9774,-4.0159,-3.9253,-3.9253,-3.9265,-3.9265,-3.9265,-3.9265,-3.9304,-4.0112,-4.0458,-4.0477,-4.0496,-4.0496,-4.0496,-4.0496,-4.0496,-4.0496,-4.0496,-4.0496,-4.0496,-1.6837,-1.731,-1.761,-1.7619,-1.7484,-1.7372,-1.7372,-1.7372,-1.7372,0.0,0.0,0.0,-1.7776,-1.8261,-1.8549,-1.8337,-1.7738,-1.7026,-1.6195,-1.5558,-1.5192,-1.5192,-1.5192,-1.5229,0.0,0.0,0.0,0.0,0.0,0.0,0.0,0.0,0.0,0.0,-2.1113,-2.1914,-2.2949,-2.2949,0.0,0.0,-2.7676,-2.9805,0.0,0.0,0.0,0.0,0.0,-3.5664,-3.4707,0.0,-3.0762,-2.7754,0.0,0.0,0.0,-1.7539,-1.834,0.0,-1.7988,0.0,0.0,0.0,0.0,0.0,0.0,0.0,0.0,0.0,0.0,0.0,0.0,0.0,0.0,0.0,0.0,0.0,0.0,0.0,0.0,0.0,0.0,0.0,0.0,0.0,0.0,0.0,-3.9316,-3.9199,-3.8923,-3.904,-3.8994,-3.8741,-3.8896,-3.8746,-3.8246,-3.8712,-3.8772,-3.842,-3.842,-3.8402,-3.8354,-3.8354,-3.8354,-3.8411,-3.9265,-3.9631,-3.9688,-4.0265,-4.0496,-4.0496,-4.0496,-4.0496,-4.0496,-4.0496,-4.0496,-4.0496,-1.7734,-1.8317,-1.8834,-1.9179,-1.8974,-1.8907,-1.9234,-1.9292,-1.9292,0.0,0.0,0.0,-1.9873,-2.0608,-2.0704,-1.9642,-1.9081,-1.8138,-1.6599,-1.6022,-1.5577,-1.5212,-1.5558,-1.5755,-1.5798,0.0,0.0,0.0,0.0,0.0,0.0,0.0,0.0,0.0,-1.875,-1.9863,-2.1309,-2.0586,0.0,0.0,-2.8496,0.0,0.0,-3.5351,-3.6914,0.0,0.0,0.0,-3.6953,-3.6074,-3.3027,0.0,0.0,-2.2285,-2.0644,-1.9434,-2.0293,0.0,0.0,0.0,0.0,0.0,0.0,0.0,0.0,-2.6074,0.0,0.0,0.0,0.0,0.0,0.0,0.0,0.0,0.0,0.0,0.0,0.0,0.0,0.0,0.0,0.0,0.0,0.0,0.0,-3.8594,-3.8594,-3.8594,-3.8594,-3.8178,-3.7935,-3.7935,-3.8262,-3.8043,-3.723,-3.7949,-3.8049,-3.752,-3.752,-3.7507,-3.7469,-3.7469,-3.7469,-3.7507,-3.8373,-3.8757,-3.8796,-3.9258,-3.9881,-4.0477,-4.0131,-4.0208,-4.0496,-4.0496,-4.0496,-4.0496,0.0,-1.9658,-2.0654,-2.1389,-2.0981,-2.0827,-2.1543,-2.1639,-2.1639,0.0,-2.2389,-2.3047,-2.3336,-2.3894,-2.3317,-2.1058,-2.0596,-1.9423,-1.708,-1.6657,-1.6157,-1.5385,-1.6099,-1.6445,-1.6349,-1.6532,0.0,0.0,0.0,0.0,0.0,0.0,0.0,0.0,-1.6562,-1.7949,-2.0215,-1.8867,0.0,-2.4961,-2.9707,-3.1562,0.0,0.0,-3.875,0.0,-3.9375,-3.9453,-3.873,-3.7773,-3.4199,0.0,0.0,-2.5156,-2.3477,-2.1699,-2.2363,0.0,0.0,-2.1797,0.0,0.0,0.0,0.0,-2.5762,-2.5449,0.0,0.0,0.0,0.0,0.0,0.0,0.0,0.0,0.0,0.0,0.0,0.0,0.0,0.0,0.0,0.0,0.0,-3.8301,-3.8301,-3.8301,-3.8301,-3.8301,-3.8301,-3.7578,-3.7168,-3.7168,-3.791,-3.7488,-3.5739,-3.7267,-3.7553,-3.6573,-3.6594,-3.658,-3.6577,-3.6577,-3.6577,-3.6615,-3.7488,-3.7853,-3.7853,-3.7853,-3.8796,-4.015,-3.9438,-3.9592,-4.0227,-4.0227,-4.0227,-4.0227,-1.9578,-2.0554,-2.1331,-2.1466,-2.1947,-2.2374,-2.2528,-2.2547,-2.2547,-2.2547,-2.3317,-2.4625,-2.6683,-2.5793,-2.4865,-2.4365,-2.2442,-2.0769,-1.9635,-1.7638,-1.6426,-1.6253,-1.6407,-1.6176,-1.5462,-1.6788,-1.6833,0.0,0.0,0.0,0.0,0.0,0.0,0.0,-1.5644,-1.6719,-1.8574,-1.9648,0.0,-2.5605,-2.7324,0.0,-3.5137,-3.6309,-3.8281,-4.0391,-4.0039,-4.0234,-4.0449,0.0,-3.6289,-3.3262,0.0,0.0,-2.7851,-2.543,0.0,-2.6914,-2.5176,-2.5332,-2.5742,-2.4668,0.0,0.0,-2.4141,-2.4141,0.0,0.0,0.0,0.0,0.0,0.0,0.0,0.0,0.0,0.0,0.0,0.0,0.0,0.0,0.0,0.0,0.0,-3.6504,-3.6504,-3.6504,-3.6504,-3.6504,-3.6504,-3.6348,-3.625,-3.625,-3.6426,-3.6304,-3.5869,-3.6254,-3.6246,-3.582,-3.5872,-3.5848,-3.5731,-3.5731,-3.5731,-3.5788,-3.6596,-3.6942,-3.6942,-3.6942,-3.7565,-3.8469,-3.8315,-3.8354,-3.8488,-3.8488,-3.8488,-3.8488,-1.9888,-2.0817,-2.1639,-2.2062,-2.2874,-2.3586,-2.3985,-2.4043,-2.4351,-2.524,-2.6447,-2.7236,-2.7255,-2.6851,-2.6082,-2.4812,-2.3528,-2.2081,-2.0404,-1.9096,-1.783,-1.6564,-1.6872,-1.6891,-1.6465,-1.6872,-1.6925,0.0,0.0,0.0,0.0,0.0,0.0,0.0,0.0,-1.75,-1.9961,0.0,-2.2324,-2.5352,-2.8809,0.0,-3.6191,-3.793,-3.9687,-4.1133,-4.0703,-4.082,-4.0801,-3.8184,-3.6133,0.0,0.0,-3.0605,-2.9902,0.0,-2.8574,-2.9219,-2.7461,-2.7324,-2.7441,-2.6562,0.0,0.0,0.0,0.0,-2.4648,0.0,0.0,0.0,0.0,0.0,0.0,0.0,0.0,0.0,0.0,0.0,0.0,0.0,0.0,0.0,0.0,-3.4707,-3.4883,-3.5312,-3.5351,-3.5547,-3.5976,-3.5996,-3.5996,-3.5996,-3.5996,-3.5973,-3.5901,-3.5922,-3.5836,-3.5591,-3.5675,-3.563,-3.55,-3.5534,-3.5528,-3.5519,-3.5923,-3.6096,-3.6096,-3.6096,-3.6365,-3.6796,-3.7199,-3.7623,-3.8007,-3.8007,-3.8007,-3.8007,-2.0026,-2.0964,-2.1966,-2.2682,-2.3644,-2.4548,-2.5192,-2.5308,-2.5981,-2.7876,-2.9313,0.0,0.0,0.0,0.0,0.0,0.0,-2.3778,0.0,-2.0846,-1.9442,-1.7542,-1.7773,-1.7872,-1.7699,-1.7237,-1.709,-1.7294,0.0,0.0,0.0,0.0,0.0,0.0,0.0,0.0,0.0,0.0,0.0,-2.6348,0.0,-3.3945,-3.5176,-3.9004,-4.0449,-4.0508,-4.1016,-4.1191,-4.0723,-3.7559,0.0,-3.4746,-3.2167,-3.1483,0.0,0.0,0.0,0.0,0.0,0.0,0.0,0.0,0.0,-2.6875,0.0,0.0,0.0,-2.6055,0.0,0.0,0.0,0.0,0.0,0.0,0.0,0.0,0.0,0.0,0.0,0.0,0.0,0.0,0.0,-3.3027,-3.334,-3.4375,-3.4141,-3.4492,-3.5684,-3.5742,-3.582,-3.5996,-3.5996,-3.5973,-3.5901,-3.591,-3.5821,-3.5611,-3.5705,-3.5674,-3.5547,-3.5595,-3.5574,-3.5515,-3.5515,-3.5515,-3.55,-3.55,-3.55,-3.5558,-3.6212,-3.6904,-3.7526,-3.7526,-3.7526,-3.7526,-2.0171,-2.1554,-2.2682,-2.2778,-2.412,-2.5192,-2.5288,-2.5308,-2.6173,0.0,0.0,0.0,0.0,0.0,0.0,0.0,0.0,0.0,-2.7005,0.0,-2.0481,-2.0908,-1.9596,-1.8481,-1.7718,-1.8376,-1.7664,-1.5493,0.0,0.0,0.0,0.0,-1.7038,-1.7939,-1.8671,0.0,0.0,0.0,-2.6094,0.0,-3.2832,-3.2168,0.0,-3.5859,-3.7734,-3.8047,-4.0371,-4.1191,-4.0898,0.0,-3.7734,-3.6543,0.0,-3.3569,-3.3701,0.0,0.0,0.0,0.0,0.0,0.0,0.0,-3.0469,0.0,0.0,0.0,-2.6094,-2.3984,0.0,0.0,0.0,0.0,0.0,0.0,0.0,0.0,0.0,0.0,0.0,0.0,0.0,0.0,0.0,0.0,-3.1836,-3.3437,-3.2168,-3.2363,-3.4726,-3.4844,-3.5195,-3.5976,-3.5996,-3.5973,-3.5901,-3.5951,-3.5897,-3.5689,-3.5827,-3.5802,-3.5671,-3.5686,-3.565,-3.5585,-3.5585,-3.5544,-3.55,-3.55,-3.55,-3.5519,-3.5596,-3.5692,-3.5788,-3.5788,-3.5788,-3.5788,-2.006,-2.1507,-2.2547,-2.213,-2.3846,-2.5135,-2.4678,-2.7121,-2.9212,0.0,0.0,0.0,0.0,0.0,0.0,0.0,0.0,-2.9083,0.0,0.0,0.0,-2.1581,-2.0827,-2.0058,-1.9234,-1.8584,-1.7718,-1.6657,-1.6036,0.0,0.0,0.0,-1.7659,-1.951,-2.041,0.0,-2.6055,0.0,0.0,0.0,0.0,0.0,0.0,-3.7012,-3.9551,-3.9707,-4.0801,-4.1191,-4.0859,0.0,-3.7266,0.0,0.0,0.0,0.0,0.0,0.0,0.0,0.0,0.0,0.0,0.0,0.0,0.0,-2.6551,0.0,-2.5965,0.0,0.0,0.0,0.0,0.0,0.0,0.0,0.0,0.0,0.0,0.0,0.0,0.0,0.0,0.0,0.0,0.0,0.0,0.0,0.0,-3.1055,-3.3144,-3.418,-3.4863,-3.5234,-3.5742,-3.5995,-3.5951,-3.5995,-3.5949,-3.5809,-3.5918,-3.5866,-3.5707,-3.5772,-3.5742,-3.5611,-3.5611,-3.5562,-3.55,-3.55,-3.55,-3.55,-3.55,-3.55,-3.55,-3.55,-3.55,-3.55,-2.0584,0.0,0.0,-2.2256,-2.3923,-2.525,-2.5164,-2.828,-3.0756,-3.1058,0.0,0.0,-3.5199,-3.468,0.0,0.0,-3.418,-3.2199,0.0,0.0,-2.5947,-2.3678,-2.2466,-2.1696,-2.135,-1.9427,-1.8292,-1.8061,-1.6599,0.0,0.0,0.0,0.0,-2.0601,0.0,-2.4685,-2.8223,0.0,0.0,-3.0801,-3.1191,-3.1934,-3.332,-3.8242,-4.0586,-4.1191,-4.1191,-4.1191,-4.084,-3.8457,-3.7206,0.0,-3.5272,0.0,0.0,0.0,0.0,0.0,-3.1607,0.0,0.0,0.0,0.0,0.0,0.0,0.0,0.0,0.0,0.0,0.0,0.0,0.0,0.0,0.0,0.0,0.0,0.0,0.0,0.0,0.0,0.0,0.0,0.0,0.0,0.0,0.0,0.0,0.0,-3.1719,-3.3008,-3.3984,-3.4687,-3.5312,-3.5762,-3.5996,-3.5996,-3.5974,-3.5939,-3.5975,-3.5929,-3.579,-3.5887,-3.5834,-3.5689,-3.5639,-3.5585,-3.5534,-3.5501,-3.55,-3.55,-3.55,-3.55,-3.55,-3.55,-3.55,-3.55,-2.2198,-2.2429,0.0,0.0,0.0,-2.5865,-2.7525,-2.7915,-2.9179,0.0,0.0,0.0,0.0,0.0,0.0,0.0,0.0,-3.6173,-3.5308,0.0,-2.8165,-2.8838,-2.4933,-2.3144,0.0,-2.1504,-1.9808,-1.8958,-1.8061,-1.7626,0.0,0.0,0.0,0.0,0.0,-2.5687,-2.8359,-2.9068,-3.2334,-3.6934,-3.6113,-3.7812,-4.0586,0.0,-3.9004,-4.1191,-4.1191,0.0,0.0,-3.916,-3.8449,0.0,0.0,0.0,0.0,0.0,0.0,0.0,0.0,0.0,0.0,-3.0033,0.0,0.0,0.0,0.0,-2.7554,0.0,0.0,0.0,0.0,0.0,0.0,0.0,0.0,0.0,0.0,0.0,0.0,0.0,0.0,0.0,0.0,0.0,0.0,0.0,0.0,0.0,-3.0703,-3.0996,-3.2148,-3.4629,-3.4726,-3.5156,-3.5996,-3.5996,-3.5996,-3.5996,-3.5996,-3.5996,-3.5996,-3.5996,-3.5951,-3.5875,-3.5755,-3.5663,-3.559,-3.5534,-3.55,-3.55,-3.55,-3.55,-3.55,-3.55,-3.55,-3.55,0.0,0.0,0.0,0.0,0.0,-2.6077,-2.8357,-3.0627,-3.2872,0.0,0.0,0.0,0.0,-4.0854,-4.12,0.0,0.0,-3.9231,-3.7276,-3.4507,0.0,0.0,0.0,-2.7448,0.0,-2.4639,-2.2635,-2.0654,-1.9257,-1.8862,0.0,0.0,0.0,0.0,0.0,-2.638,0.0,0.0,0.0,0.0,0.0,-3.8594,-4.1094,0.0,0.0,-4.1191,-4.1191,-4.1191,0.0,-4.0419,-3.9387,-3.8283,-3.7583,-3.6144,-3.4679,-3.4324,-3.3857,0.0,0.0,0.0,-3.3331,-3.0811,0.0,0.0,0.0,0.0,0.0,0.0,0.0,0.0,0.0,0.0,0.0,0.0,0.0,0.0,0.0,0.0,0.0,0.0,0.0,0.0,0.0,0.0,0.0,0.0,0.0,0.0,0.0,-2.9961,-3.1289,-3.2168,-3.3828,-3.4844,-3.5137,-3.5703,-3.5996,-3.5996,-3.5996,-3.5996,-3.5996,-3.5996,-3.5925,-3.5764,-3.5717,-3.5644,-3.5528,-3.5508,-3.55,-3.55,-3.55,-3.55,-3.55,-3.55,-3.55,-3.55,-2.3947,0.0,0.0,0.0,0.0,0.0,-2.9679,0.0,0.0,0.0,-3.8661,0.0,-4.2854,0.0,-4.2816,0.0,-4.3316,-4.1489,-3.8642,-3.745,0.0,-3.391,-3.2487,0.0,0.0,0.0,-2.5563,-2.3312,-2.1624,-2.0939,0.0,0.0,0.0,0.0,0.0,0.0,0.0,0.0,-3.3573,0.0,0.0,-3.9646,0.0,0.0,-4.1151,-4.1191,0.0,-4.1171,-4.1126,-4.1026,-4.0203,-3.9197,-3.9116,-3.7489,-3.561,-3.556,-3.4764,-3.3812,-3.3509,-3.3837,0.0,-3.1534,-3.094,0.0,-2.7701,0.0,0.0,0.0,0.0,0.0,0.0,0.0,0.0,0.0,0.0,0.0,0.0,0.0,0.0,0.0,0.0,0.0,0.0,0.0,-2.3555,-2.4766,0.0,0.0,0.0,0.0,-3.0254,-3.0879,-3.2793,-3.4101,-3.4687,-3.5254,-3.5684,-3.5996,-3.5996,-3.5996,-3.5996,-3.5996,-3.5925,-3.5766,-3.572,-3.5644,-3.5534,-3.5508,-3.55,-3.55,-3.55,-3.55,-3.55,-3.55,-3.55,-3.55,0.0,0.0,0.0,0.0,-2.7582,0.0,0.0,0.0,-3.7058,0.0,-3.9611,-4.1285,-4.3028,-4.322,-4.3528,-4.4297,-4.4355,-4.2989,-3.9765,-3.9515,0.0,0.0,-3.4968,-3.4052,-3.316,0.0,0.0,0.0,-2.4952,-2.3687,0.0,0.0,0.0,0.0,-2.4565,0.0,-2.9573,-3.2805,-3.5838,-3.8615,-4.0313,-4.1078,-4.1171,-4.1054,-4.1081,-4.1191,-4.1191,-4.1104,-4.0992,-4.0988,-4.0867,-4.0678,-4.0595,-3.9387,-3.7988,-3.7892,-3.6757,-3.5327,-3.4487,-3.4263,-3.3878,-3.2237,0.0,0.0,0.0,0.0,-3.0058,0.0,0.0,0.0,0.0,0.0,0.0,0.0,0.0,0.0,0.0,0.0,0.0,0.0,0.0,0.0,0.0,0.0,-2.2109,-2.5273,-2.3359,0.0,0.0,0.0,-2.9004,-3.0723,-3.1699,-3.2969,-3.4551,-3.4668,-3.5117,-3.5937,-3.5976,-3.5996,-3.5996,-3.5996,-3.5952,-3.59,-3.5764,-3.5671,-3.56,-3.5528,-3.5507,-3.55,-3.55,-3.55,-3.55,-3.55,-3.55,-3.55,-2.5977,-2.7654,-2.9308,0.0,-3.0058,-3.1077,0.0,0.0,0.0,0.0,-4.1758,-4.3085,-4.4767,-4.496,-4.5037,-4.5248,-4.5267,0.0,0.0,0.0,0.0,-4.1181,-3.9123,-3.7584,-3.6719,-3.2968,0.0,-2.8453,0.0,0.0,-2.3744,0.0,0.0,0.0,0.0,0.0,-3.0281,-3.1801,-3.5096,-3.9393,-4.0533,-4.1023,0.0,0.0,-4.1105,-4.1052,-4.1052,-4.0962,-4.0847,-4.0785,-4.0745,-4.0467,-3.9128,-3.8378,-3.7757,-3.65,-3.5846,-3.5442,-3.5231,-3.5173,-3.4911,-3.3833,-3.3064,-3.2256,0.0,0.0,0.0,0.0,0.0,0.0,0.0,0.0,0.0,0.0,0.0,0.0,0.0,0.0,0.0,0.0,0.0,0.0,0.0,-2.2324,-2.3262,-2.2891,-2.3418,0.0,0.0,0.0,0.0,-2.8926,-3.1074,-3.2402,-3.2832,-3.4082,-3.4805,-3.5039,-3.5684,-3.5996,-3.5996,-3.5996,-3.5952,-3.5901,-3.5869,-3.5752,-3.5605,-3.5588,-3.554,-3.55,-3.55,-3.55,-3.55,-3.55,-3.55,-3.55,-2.8039,0.0,0.0,-3.3731,0.0,0.0,-3.6288,0.0,0.0,-4.1027,-4.2624,0.0,-4.4432,-4.5171,-4.5594,-4.5594,-4.5594,0.0,-4.3855,0.0,0.0,-4.2585,-4.1854,-4.0719,-3.9123,-3.568,0.0,-3.0237,0.0,0.0,-2.4072,0.0,0.0,0.0,0.0,-2.6391,0.0,-3.2696,-3.6148,-3.96,-4.0505,0.0,0.0,-4.0964,-4.0922,-4.0875,-4.0875,-4.082,-4.0747,-4.0707,-4.0655,-4.0364,-3.9006,-3.8315,-3.7738,-3.6404,-3.5788,-3.55,-3.55,-3.55,-3.5385,-3.4891,-3.441,-3.3718,-3.2506,-3.2564,-3.2622,0.0,0.0,0.0,0.0,0.0,0.0,0.0,0.0,0.0,0.0,0.0,0.0,0.0,0.0,0.0,0.0,-2.1367,-2.2344,-2.1406,-2.2559,0.0,0.0,0.0,0.0,-2.8262,-3.0098,-3.1426,-3.2187,-3.3144,-3.3965,-3.4707,-3.5195,-3.5625,-3.5996,-3.5996,-3.5952,-3.5901,-3.5901,-3.5791,-3.5638,-3.5638,-3.5611,-3.5574,-3.5564,-3.554,-3.5547,-3.5508,-3.55,-3.55,0.0,0.0,0.0,0.0,0.0,0.0,0.0,-4.045,0.0,-4.1073,0.0,-4.4201,-4.3508,-4.4729,-4.5594,-4.5594,0.0,-4.4979,-4.3528,-4.4786,-4.4605,-4.2393,-4.3585,-4.3201,-4.09,-3.8123,0.0,0.0,0.0,0.0,0.0,0.0,0.0,0.0,0.0,0.0,0.0,-3.445,-3.784,0.0,-4.0343,-4.0736,-4.0788,-4.0731,-4.0715,-4.0697,-4.0697,-4.0686,-4.0667,-4.0667,-4.0589,-4.0362,-3.9554,-3.87,-3.7834,-3.6962,-3.6135,-3.55,-3.55,-3.55,-3.55,-3.55,-3.55,-3.5096,-3.3583,-3.3237,-3.3237,-3.3237,-3.2077,-3.1904,0.0,0.0,0.0,0.0,0.0,0.0,0.0,0.0,0.0,0.0,0.0,0.0,0.0,-2.0329,-2.0859,-2.0625,-2.1406,0.0,0.0,0.0,0.0,-2.8262,-2.9141,-3.0371,-3.2012,0.0,-3.2988,-3.4531,-3.4648,-3.5156,-3.5996,-3.5996,-3.5973,-3.5911,-3.5911,-3.5845,-3.5723,-3.5723,-3.5717,-3.5696,-3.5639,-3.5606,-3.5595,-3.5534,-3.5501,-3.55,0.0,0.0,0.0,0.0,0.0,-4.1393,-4.2104,-4.1989,-4.2239,-4.347,-4.4652,-4.5325,-4.519,-4.5421,-4.5594,-4.5594,-4.5594,0.0,0.0,0.0,0.0,-4.496,-4.4528,-4.3778,-4.2662,-3.8738,-3.5385,0.0,-2.8602,-2.537,0.0,0.0,0.0,0.0,0.0,0.0,-3.1275,-3.5117,0.0,-3.9408,-4.0339,-4.0715,-4.0729,-4.0781,-4.0742,-4.0697,-4.0697,-4.0636,-4.0549,-4.0549,-4.0527,-4.0362,-3.9554,-3.87,-3.7834,-3.6962,-3.6135,-3.55,-3.55,-3.55,-3.55,-3.55,-3.55,-3.5423,-3.5115,-3.5038,-3.5038,-3.5038,-3.4808,-3.4346,-3.3506,0.0,0.0,0.0,0.0,0.0,0.0,0.0,0.0,0.0,0.0,0.0,0.0,0.0,0.0,0.0,0.0,0.0,0.0,0.0,0.0,0.0,-2.9141,0.0,0.0,0.0,-3.2676,-3.3633,-3.4355,-3.5156,-3.5996,-3.5996,-3.5996,-3.5975,-3.5975,-3.5946,-3.5869,-3.5869,-3.5802,-3.5703,-3.5686,-3.5646,-3.5605,-3.5579,-3.5546,-3.55,0.0,0.0,0.0,0.0,0.0,0.0,0.0,-4.4047,0.0,-4.3682,-4.4412,-4.4759,-4.4355,-4.5075,-4.5594,-4.5594,-4.5594,-4.5594,-4.5594,-4.5594,-4.5594,-4.5594,-4.521,0.0,-4.3739,-4.0392,-3.7219,-3.425,-2.9987,-2.6582,0.0,0.0,0.0,0.0,0.0,-2.8396,0.0,0.0,0.0,-3.9388,-4.0246,-4.0589,-4.0603,-4.0629,-4.0629,-4.0589,-4.0589,-4.0552,-4.0496,-4.0496,-4.0496,-4.0362,-3.9554,-3.9015,-3.8411,-3.7084,-3.6423,-3.6038,-3.5615,-3.55,-3.5479,-3.5339,-3.541,-3.5453,-3.532,-3.5391,-3.55,-3.55,-3.55,-3.4962,-3.3218,-3.1198,0.0,0.0,0.0,0.0,0.0,0.0,0.0,0.0,0.0,0.0,0.0,0.0,0.0,0.0,0.0,0.0,0.0,0.0,0.0,0.0,0.0,0.0,0.0,0.0,0.0,-3.3418,-3.3828,-3.4726,-3.5996,-3.5996,-3.5996,-3.5996,-3.5996,-3.5975,-3.5948,-3.5948,-3.5902,-3.5845,-3.5817,-3.5783,-3.5735,-3.564,-3.5582,-3.5546,0.0,-4.2184,0.0,0.0,-4.4121,0.0,-4.5485,-4.5832,-4.5427,-4.3846,-4.4182,-4.4335,-4.3701,-4.4806,-4.5594,-4.5594,-4.5594,-4.5594,-4.5594,-4.5594,-4.5594,-4.5594,-4.5594,-4.519,-4.4316,-4.1989,-3.9123,0.0,-3.166,0.0,0.0,0.0,-2.4182,-2.4028,0.0,0.0,0.0,0.0,-3.7969,-3.9611,-4.0246,-4.0496,-4.0496,-4.0496,-4.0496,-4.0496,-4.0496,-4.0496,-4.0496,-4.0496,-4.0496,-4.04,-3.9746,-3.9438,-3.9034,-3.7661,-3.6981,-3.6558,-3.5923,-3.5587,-3.5369,-3.5147,-3.5215,-3.5281,-3.507,-3.5223,-3.5405,-3.5405,-3.5453,-3.4962,-3.3218,-3.1814,0.0,0.0,0.0,0.0,0.0,0.0,0.0,0.0,0.0,0.0,0.0,0.0,0.0,0.0,0.0,0.0,0.0,0.0,0.0,0.0,0.0,-2.9043,-3.0605,0.0,-3.1738,-3.3398,-3.3398,-3.4316,-3.5996,-3.5996,-3.5996,-3.5996,-3.5996,-3.5996,-3.5996,-3.5996,-3.5996,-3.5996,-3.5945,-3.591,-3.5873,-3.5714,-3.5654,-3.5616,0.0,0.0,0.0,0.0,0.0,0.0,-4.5668,-4.6624,-4.6846,-4.554,-4.5441,-4.546,-4.5364,-4.5518,-4.5594,-4.5594,-4.5594,-4.5594,-4.5594,-4.5594,-4.5594,-4.5594,-4.5594,-4.519,-4.4316,-4.2585,-4.0,0.0,0.0,0.0,0.0,0.0,-2.5986,-2.7549,0.0,0.0,0.0,-3.7123,-3.8854,-4.04,-4.0477,-4.0496,-4.0496,-4.0496,-4.0496,-4.0496,-4.0496,-4.0496,-4.0496,-4.0496,-4.0496,-4.0496,-4.0419,-3.99,-3.9265,-3.9111,-3.793,-3.6673,-3.6615,-3.5875,-3.513,-3.5105,-3.4935,-3.4764,-3.4734,-3.4944,-3.513,-3.513,-3.532,-3.4962,-3.3218,-3.2776,-3.1872,0.0,0.0,0.0,0.0,0.0,0.0,0.0,0.0,0.0,0.0,0.0,0.0,0.0,0.0,0.0,0.0,0.0,0.0,-2.7031,0.0,-2.8769,-2.9707,-3.0508,-3.1738,-3.3398,-3.3398,-3.4316,-3.5996,-3.5996,-3.5996,-3.5996,-3.5996,-3.5996,-3.5996,-3.5996,-3.5996,-3.5996,-3.5996,-3.5949,-3.5901,-3.5873,-3.5794,-3.5689,0.0,0.0,0.0,0.0,0.0,0.0,0.0,-4.7208,-4.7093,-4.677,-4.6945,-4.6913,-4.6432,-4.6374,-4.6163,-4.5652,-4.5594,-4.5594,-4.5594,-4.5594,-4.5594,-4.5594,-4.5594,-4.5441,-4.5094,-4.3912,-4.1873,0.0,0.0,0.0,0.0,-2.9525,-3.0044,0.0,0.0,-3.5853,-3.7892,-3.9565,-4.0969,-4.2008,-4.1489,-4.1277,-4.1219,-4.0708,-4.0496,-4.0496,-4.0496,-4.0496,-4.0496,-4.0496,-4.0496,-4.0496,-4.0496,-4.017,-3.9675,-3.915,-3.8355,-3.7443,-3.6482,-3.5904,-3.5428,-3.4718,-3.4634,-3.4653,-3.4464,-3.4645,-3.4908,-3.507,-3.5312,-3.5135,-3.391,-3.2852,-3.1852,0.0,0.0,0.0,0.0,0.0,0.0,0.0,0.0,0.0,0.0,0.0,0.0,0.0,0.0,-2.0154,-2.1074,0.0,0.0,-2.6152,0.0,-2.8711,-2.959,-3.0469,-3.1504,-3.2695,-3.3164,-3.4043,-3.5234,-3.5762,-3.5996,-3.5996,-3.5996,-3.5996,-3.5996,-3.5996,-3.5996,-3.5996,-3.5996,-3.5975,-3.597,-3.5911,-3.5871,-3.5807,-4.6511,0.0,-4.5936,0.0,-4.691,-4.6585,-4.8009,-4.7849,-4.7636,-4.788,-4.8358,-4.8327,-4.7365,-4.7038,-4.6644,-4.6028,-4.5748,-4.5594,-4.5594,-4.5504,-4.5495,-4.5605,-4.5504,0.0,-4.5594,-4.4739,-4.3297,-4.1266,-3.895,0.0,0.0,-3.3564,-3.4083,0.0,-3.718,-3.8642,-4.0123,-4.1566,-4.2547,-4.3047,-4.2431,-4.2181,-4.2124,-4.1489,-4.1266,-4.1266,-4.1266,-4.1112,-4.0873,-4.0873,-4.0708,-4.0496,-4.0496,-4.0321,-3.9986,-3.9366,-3.8767,-3.8056,-3.6917,-3.6193,-3.5593,-3.4769,-3.4517,-3.4364,-3.4141,-3.4323,-3.4634,-3.4907,-3.4988,-3.4808,-3.4201,-3.2782,-3.1621,-3.1365,0.0,0.0,0.0,0.0,0.0,0.0,0.0,-2.4812,0.0,0.0,0.0,0.0,0.0,-2.0329,-2.1289,0.0,0.0,0.0,0.0,0.0,0.0,-3.0723,-3.1719,-3.2559,-3.3398,-3.4238,-3.5098,-3.5723,-3.5996,-3.5996,-3.5996,-3.5996,-3.5996,-3.5996,-3.5996,-3.5996,-3.5996,-3.5996,-3.5996,-3.5947,-3.5939,-3.5917,-4.6948,-4.7076,-4.7333,-4.8141,-4.8269,-4.8269,-4.8288,-4.8621,-4.8876,-4.8876,-4.958,-4.9561,-4.8231,-4.7375,-4.6904,-4.6885,-4.6105,-4.5594,-4.5594,-4.5302,-4.5253,0.0,0.0,-4.5253,-4.5586,-4.4739,-4.3893,-4.3066,0.0,0.0,-3.7911,-3.7046,-3.7565,-3.9265,-4.0092,-4.0931,-4.1827,-4.272,-4.3085,-4.3104,-4.3085,-4.3085,-4.3085,-4.3066,-4.3066,-4.3066,-4.3066,-4.2527,-4.1769,-4.1769,-4.12,-4.0496,-4.0496,-4.0321,-4.0101,-4.0101,-3.9233,-3.8301,-3.8282,-3.6921,-3.5504,-3.5485,-3.4635,-3.382,-3.382,-3.4006,-3.4311,-3.4643,-3.4234,-3.3808,-3.3808,-3.2649,-3.1429,-3.0558,0.0,0.0,0.0,0.0,0.0,0.0,-2.4601,-2.4413,-2.5212,0.0,0.0,0.0,0.0,0.0,-2.3027,0.0,0.0,-2.6934,-2.8672,0.0,-2.9609,-3.1328,-3.2598,-3.3398,-3.4277,-3.5137,-3.5976,-3.5996,-3.5996,-3.5996,-3.5996,-3.5996,-3.5996,-3.5996,-3.5996,-3.5996,-3.5996,-3.5996,-3.5996,-3.5996,-3.5996,-3.5996,-4.7884,-4.7921,-4.8012,-4.8269,-4.8306,-4.8306,-4.8306,-4.8402,-4.8586,-4.8863,-4.9123,-4.9204,-4.9073,-4.8796,-4.8144,0.0,-4.6644,-4.622,0.0,-4.5292,-4.5243,-4.5586,-4.5292,-4.5253,-4.5586,-4.5325,-4.4759,-4.3912,0.0,0.0,0.0,-4.0308,-4.0796,-4.1931,-4.272,-4.3239,-4.3566,-4.4432,-4.4806,-4.4748,-4.4162,-4.3912,-4.3855,-4.3316,-4.3104,-4.3104,-4.3104,-4.2912,-4.2701,-4.2701,-4.2508,-4.2162,-4.1566,-4.0644,-3.9765,-3.9765,-3.9189,-3.8451,-3.791,-3.7327,-3.6597,-3.544,-3.4885,-3.4472,-3.3935,-3.4006,-3.4223,-3.4345,-3.4388,-3.4065,-3.291,-3.2463,-3.1773,-3.0359,-3.0273,0.0,0.0,0.0,0.0,0.0,0.0,-2.5019,0.0,-2.4577,0.0,0.0,0.0,0.0,0.0,0.0,0.0,0.0,-2.8379,0.0,-2.9609,-3.1328,-3.2324,-3.2598,-3.4023,-3.5156,-3.5996,-3.5996,-3.5996,-3.5996,-3.5996,-3.5996,-3.5996,-3.5996,-3.5996,-3.5996,-3.5996,-3.5996,-3.5996,-3.5996,-3.5996,-3.5996,-4.8783,-4.8526,-4.8306,-4.8306,-4.8306,-4.8306,-4.8306,-4.8306,-4.8402,-4.8639,-4.8813,-4.8996,-4.9249,-4.9365,0.0,-4.7729,-4.704,-4.6445,-4.5899,-4.5129,-4.4912,-4.54,-4.5096,-4.5129,-4.5586,-4.5594,0.0,-4.4778,-4.4278,-4.3758,-4.3239,-4.3239,-4.3528,-4.4066,-4.4547,-4.4778,-4.4816,-4.5364,-4.5594,-4.5556,-4.5017,-4.4778,-4.472,-4.422,-4.4028,-4.4028,-4.4028,-4.3835,-4.3547,-4.3547,-4.3355,-4.2951,-4.2058,-4.1017,-4.0026,-3.9705,-3.9163,-3.8597,-3.8098,-3.7731,-3.7254,-3.6193,-3.5701,-3.5261,-3.4435,-3.4162,-3.4056,-3.4056,-3.4053,-3.3727,-3.2695,-3.2257,-3.1706,-3.0658,-3.0158,-2.9448,-2.8088,0.0,0.0,0.0,0.0,0.0,0.0,-2.6269,0.0,0.0,0.0,0.0,0.0,0.0,0.0,-2.666,-2.8906,0.0,-3.0566,-3.1953,-3.2812,-3.3164,-3.4531,-3.5469,-3.5996,-3.5996,-3.5996,-3.5996,-3.5996,-3.5996,-3.5996,-3.5996,-3.5996,-3.5996,-3.5996,-3.5996,-3.5996,-3.5996,-3.5996,-3.5996,-4.9684,-4.9022,-4.8471,0.0,-4.8398,0.0,-4.8324,-4.8306,-4.8306,-4.8306,-4.864,-4.8863,-4.8863,-4.9218,-4.9268,-4.8858,0.0,0.0,0.0,-4.4922,-4.4421,-4.514,-4.4807,-4.4919,-4.5586,-4.5594,-4.5594,-4.5594,-4.5577,-4.5577,-4.5594,-4.5559,-4.5559,-4.5594,-4.5577,-4.5577,-4.5594,-4.5594,-4.5594,-4.5594,-4.5594,-4.5594,-4.5594,-4.5594,-4.5594,-4.5594,-4.5594,-4.5075,-4.4393,-4.4393,-4.3893,-4.3124,-4.2214,-4.1541,-4.088,-3.9894,-3.9163,-3.8707,-3.8707,-3.8138,-3.7566,-3.7511,-3.6905,-3.6064,-3.5206,-3.4417,-3.3862,-3.3807,-3.3401,-3.3039,-3.2983,-3.21,-3.1351,-3.1275,-3.0043,-2.8808,-2.8005,0.0,0.0,0.0,0.0,0.0,0.0,-2.7953,-2.7953,0.0,0.0,0.0,0.0,0.0,-2.7565,-2.8457,-3.0117,-3.1406,-3.2266,-3.3086,-3.3925,-3.4784,-3.5585,-3.5976,-3.5976,-3.5976,-3.5976,-3.5996,-3.5996,-3.5996,-3.5996,-3.5996,-3.5996,-3.5996,-3.5996,-3.5996,-3.5996,-3.5996,-3.5996,-3.5996,0.0,0.0,-5.0013,-4.9389,-4.9279,-4.9058,-4.8398,-4.8306,-4.8306,-4.8306,-4.8383,-4.8439,-4.8439,-4.8796,-4.9001,-4.889,-4.8183,-4.75,-4.6881,-4.5633,-4.5251,-4.5986,-4.5098,-4.4919,-4.5586,-4.5594,-4.5594,-4.5594,-4.5342,-4.5342,-4.5586,-4.5085,-4.5118,-4.5586,-4.5332,-4.5352,-4.5594,-4.5594,-4.5594,-4.5594,-4.5594,-4.5594,-4.5594,-4.5594,-4.5594,-4.5594,-4.5594,-4.5479,-4.5287,-4.5287,-4.5171,-4.4809,-4.3685,-4.3049,-4.2322,-4.0215,-3.9163,-3.8707,-3.8707,-3.856,-3.8267,-3.7658,-3.6905,-3.6064,-3.5206,-3.4857,-3.4546,-3.3935,-3.3695,-3.3416,-3.2808,-3.2267,-3.1712,-3.1088,-2.9802,-2.8638,-2.7995,-2.7589,0.0,0.0,-2.7198,-2.7659,-2.7876,-2.8453,-2.8569,0.0,0.0,0.0,0.0,-2.9157,-2.9943,-3.0273,-3.1328,-3.2285,-3.3105,-3.3916,-3.471,-3.5468,-3.5663,-3.576,-3.576,-3.576,-3.5825,-3.5917,-3.5917,-3.5949,-3.5996,-3.5996,-3.5996,-3.5996,-3.5996,-3.5996,-3.5996,-3.5996,-3.5996,-3.5996,-5.1353,-5.1041,-5.0655,-5.0215,-5.0141,-4.9866,-4.9022,-4.8893,-4.8746,-4.8361,-4.8306,-4.8306,-4.8306,-4.8495,-4.864,-4.864,-4.8231,-4.7793,-4.7346,-4.6187,-4.5602,-4.5787,-4.5372,-4.5142,-4.514,-4.5438,-4.5522,-4.5362,-4.5191,-4.5107,-4.514,-4.4769,-4.4793,-4.514,-4.5107,-4.5201,-4.5371,-4.5522,-4.5594,-4.5594,-4.5594,-4.5594,-4.5594,-4.5594,-4.5594,-4.5577,-4.5429,-4.5362,-4.5342,-4.5182,-4.514,-4.4965,-4.3901,-4.3335,-4.2718,-4.1021,-3.9918,-3.9166,-3.8799,-3.8707,-3.8597,-3.8157,-3.7437,-3.6721,-3.6248,-3.5555,-3.4876,-3.4435,-3.4064,-3.3678,-3.3238,-3.2495,-3.1706,-3.0892,-2.9551,-2.842,-2.7834,-2.7638,0.0,-2.772,-2.8506,-2.9198,-2.9602,-3.0352,-3.0506,-2.9698,-3.0072,0.0,-2.975,-3.0697,-3.1105,-3.0814,-3.207,-3.3124,-3.3937,-3.472,-3.5299,-3.5707,-3.5707,-3.5707,-3.5707,-3.5707,-3.5769,-3.5901,-3.5901,-3.5944,-3.5996,-3.5996,-3.5996,-3.5996,-3.5996,-3.5996,-3.5996,-3.5996,-3.5996,-3.5996,-5.2179,-5.1628,-5.1132,-5.1004,-5.0986,-5.071,-4.9904,-4.9684,-4.9335,-4.86,-4.8379,-4.8306,-4.8306,-4.8306,-4.8306,-4.8306,-4.7993,-4.7791,-4.7791,-4.6724,-4.5933,-4.5587,-4.5659,-4.5418,-4.4787,-4.5208,-4.5312,-4.5011,-4.4966,-4.4818,-4.4612,-4.4487,-4.4487,-4.4606,-4.483,-4.4966,-4.5052,-4.5332,-4.5448,-4.5448,-4.5448,-4.5448,-4.5448,-4.5448,-4.5448,-4.5419,-4.5118,-4.5011,-4.4977,-4.4701,-4.4593,-4.4466,-4.3653,-4.3212,-4.2805,-4.1954,-4.1012,-4.0065,-3.9129,-3.8799,-3.8707,-3.8707,-3.8193,-3.7658,-3.7529,-3.6395,-3.5334,-3.5224,-3.4546,-3.399,-3.399,-3.2791,-3.1533,-3.0743,-2.9336,-2.8164,-2.762,0.0,-2.8129,-2.9065,-3.0081,-3.1015,-3.1751,-3.2468,-3.2622,-3.1929,-3.1934,-3.1976,-3.1976,-3.214,-3.1954,-3.1256,-3.2741,-3.395,-3.4744,-3.5369,-3.5675,-3.5659,-3.5659,-3.5659,-3.5659,-3.5659,-3.573,-3.5858,-3.5858,-3.5892,-3.5976,-3.5976,-3.5996,-3.5996,-3.5996,-3.5996,-3.5996,-3.5996,-3.5996,-3.5996,-5.3023,-5.2913,-5.2619,-5.1922,-5.1811,-5.1536,-5.0729,-5.0051,-4.9555,-4.9427,-4.8765,-4.8306,-4.8306,-4.8306,-4.8306,-4.8306,-4.8235,-4.8218,-4.8218,-4.7407,-4.7039,-4.7285,-4.6022,-4.5379,-4.5609,-4.5041,-4.472,-4.4688,-4.4346,-4.4318,-4.4599,-4.3962,-4.3989,-4.458,-4.4304,-4.4359,-4.467,-4.4732,-4.4745,-4.4745,-4.4745,-4.4745,-4.4745,-4.4745,-4.4745,-4.4745,-4.4714,-4.4688,-4.4657,-4.4606,-4.4593,-4.4521,-4.404,-4.3856,-4.3587,-4.2502,-4.2061,-4.1607,-4.012,-3.9221,-3.8707,-3.8707,-3.8615,-3.834,-3.7658,-3.7309,-3.6923,-3.6229,-3.5408,-3.4821,-3.4821,-3.3149,-3.1533,-3.0743,-2.9219,-2.7941,-2.736,0.0,-2.9205,-2.9494,-3.1091,-3.2237,-3.2371,-3.2683,-3.2852,-3.2718,-3.2723,-3.2736,-3.2736,-3.3499,-3.3867,-3.3749,-3.4117,-3.4682,-3.5436,-3.5553,-3.5579,-3.5528,-3.5528,-3.5528,-3.5528,-3.5528,-3.5574,-3.565,-3.565,-3.5742,-3.5913,-3.5913,-3.5948,-3.5996,-3.5996,-3.5996,-3.5996,-3.5996,-3.5996,-3.5996,-5.3185,-5.3185,-5.3096,-5.2711,-5.2656,-5.238,-5.1573,-5.1114,-5.0749,-5.0288,-4.9517,-4.9003,-4.9003,-4.8581,-4.8306,-4.8306,-4.8306,-4.8306,-4.8306,-4.7957,-4.7647,-4.7387,-4.6832,-4.652,-4.6449,-4.5449,-4.4917,-4.4917,-4.4311,-4.4001,-4.4008,-4.3664,-4.3679,-4.4023,-4.4001,-4.4102,-4.429,-4.4514,-4.4593,-4.4593,-4.4593,-4.4593,-4.4593,-4.4593,-4.4593,-4.4567,-4.4346,-4.4294,-4.4266,-4.4065,-4.4023,-4.3977,-4.3788,-4.3742,-4.3619,-4.3106,-4.2323,-4.1405,-4.0212,-3.9625,-3.9239,-3.8817,-3.8707,-3.8597,-3.823,-3.7823,-3.7382,-3.7015,-3.6285,-3.5555,-3.5096,-3.3839,-3.2477,-3.1233,-3.0013,0.0,0.0,-2.9622,-3.0277,-3.0876,-3.2279,-3.3209,-3.3209,-3.3878,-3.4103,-3.3641,-3.3603,-3.3603,-3.3603,-3.4005,-3.4491,-3.4991,-3.5063,-3.5257,-3.5611,-3.5568,-3.5522,-3.55,-3.55,-3.55,-3.55,-3.55,-3.554,-3.5611,-3.5611,-3.5674,-3.5802,-3.5871,-3.5914,-3.5948,-3.5995,-3.5996,-3.5996,-3.5996,-3.5996,-3.5996,-5.3185,-5.3185,-5.3185,-5.3185,-5.3185,-5.3004,-5.2362,-5.2105,-5.1775,-5.1151,-5.038,-4.9812,-4.9629,-4.9003,-4.8526,-4.8324,-4.8306,-4.8306,-4.8306,-4.8306,-4.8012,-4.7406,-4.7496,-4.7299,-4.6754,-4.5842,-4.5366,-4.5366,-4.4568,-4.4036,-4.3754,-4.3589,-4.3515,-4.3496,-4.3756,-4.3881,-4.3893,-4.4209,-4.4337,-4.4337,-4.4337,-4.4337,-4.4337,-4.4337,-4.4337,-4.4294,-4.3986,-4.3881,-4.3833,-4.358,-4.3515,-4.3515,-4.3515,-4.3515,-4.3515,-4.3515,-4.2635,-4.1442,-4.0451,-4.0175,-3.9992,-3.9184,-3.8982,-3.8927,-3.8744,-3.8212,-3.7786,-3.7786,-3.7144,-3.6376,-3.5701,-3.4761,-3.355,-3.1935,0.0,0.0,0.0,-3.0821,-3.1365,-3.2217,-3.3326,-3.4035,-3.4105,-3.4951,-3.5212,-3.4545,-3.4507,-3.4507,-3.4507,-3.4507,-3.4841,-3.5557,-3.559,-3.5595,-3.5577,-3.5528,-3.55,-3.55,-3.55,-3.55,-3.55,-3.55,-3.5534,-3.5577,-3.5577,-3.5602,-3.5678,-3.5783,-3.5831,-3.5869,-3.5902,-3.593,-3.593,-3.5973,-3.5953,-3.5931,-5.3185,-5.3185,-5.3185,-5.3185,-5.3185,-5.3167,-5.3112,-5.2472,-5.1977,-5.1903,-5.1206,-5.0417,-4.9684,-4.9537,-4.9169,-4.8379,-4.8306,-4.8306,-4.8306,-4.8306,-4.8269,-4.8214,-4.7536,-4.6783,-4.601,-4.5901,-4.5846,-4.5846,-4.5056,-4.4635,-4.4617,-4.3846,-4.3515,-4.3515,-4.3531,-4.3531,-4.3548,-4.3582,-4.358,-4.358,-4.358,-4.358,-4.358,-4.358,-4.358,-4.3582,-4.3548,-4.3531,-4.3531,-4.3515,-4.3515,-4.3515,-4.3515,-4.3515,-4.3515,-4.3515,-4.3423,-4.2983,-4.1442,-4.1003,-4.0836,-4.001,-3.9808,-3.9625,-3.8872,-3.8652,-3.8615,-3.8615,-3.7955,-3.7382,-3.7327,-3.6009,-3.438,-3.2766,0.0,0.0,-3.0436,-3.1501,-3.2564,-3.2903,-3.3939,-3.4718,-3.4984,-3.5289,-3.5462,-3.5404,-3.5404,-3.5404,-3.5404,-3.5404,-3.5449,-3.5501,-3.5574,-3.5566,-3.5501,-3.5507,-3.55,-3.55,-3.55,-3.55,-3.55,-3.55,-3.5507,-3.5501,-3.5501,-3.554,-3.5606,-3.5616,-3.5666,-3.5717,-3.5723,-3.5723,-3.5732,-3.5851,-3.5838,-3.5747,-5.3185,-5.3185,-5.3185,-5.3185,-5.3185,-5.3185,-5.3185,-5.2949,-5.2747,-5.2747,-5.2032,-5.1426,-5.1134,-5.0637,-5.0013,-4.9169,-4.9095,-4.8875,-4.8343,-4.8306,-4.8306,-4.8306,-4.8012,-4.77,-4.7407,-4.6892,-4.6636,-4.6636,-4.5847,-4.5443,-4.5424,-4.4617,-4.425,-4.4213,-4.3718,-4.3515,-4.3515,-4.3515,-4.3515,-4.3515,-4.3515,-4.3515,-4.3515,-4.3515,-4.3515,-4.3515,-4.3515,-4.3515,-4.3515,-4.3515,-4.3515,-4.3515,-4.3515,-4.3515,-4.3515,-4.3515,-4.3515,-4.3369,-4.2745,-4.2213,-4.1662,-4.0855,-4.0267,-3.9808,-3.9515,-3.9056,-3.875,-3.8909,-3.8688,-3.84,-3.8103,-3.7555,-3.675,-3.5626,0.0,-3.3982,-3.421,-3.3438,-3.3185,-3.412,-3.4325,-3.4434,-3.4524,-3.4813,-3.5079,-3.5231,-3.5246,-3.532,-3.5493,-3.55,-3.55,-3.55,-3.5528,-3.5528,-3.55,-3.55,-3.55,-3.55,-3.55,-3.55,-3.55,-3.55,-3.55,-3.55,-3.55,-3.5502,-3.5534,-3.5574,-3.5621,-3.5633,-3.5682,-3.5707,-3.571,-3.5761,-3.5732,-3.5713,-5.3185,-5.3185,-5.3185,-5.3185,-5.3185,-5.3185,-5.3185,-5.3185,-5.3185,-5.3185,-5.2729,-5.227,-5.2013,-5.1499,-5.0839,-5.0051,-4.9996,-4.9609,-4.8765,-4.8453,-4.8306,-4.8306,-4.8306,-4.8306,-4.8306,-4.7755,-4.748,-4.748,-4.6673,-4.6287,-4.6269,-4.5461,-4.5094,-4.5039,-4.4232,-4.3883,-4.3864,-4.3625,-4.3515,-4.3515,-4.3515,-4.3515,-4.3515,-4.3515,-4.3515,-4.3515,-4.3515,-4.3515,-4.3515,-4.3515,-4.3515,-4.3515,-4.3515,-4.3515,-4.3515,-4.3515,-4.3515,-4.3515,-4.3515,-4.3094,-4.2488,-4.168,-4.1056,-4.0579,-4.0322,-3.9643,-3.9133,-3.9303,-3.9217,-3.8992,-3.8688,-3.8723,-3.8475,-3.7578,-3.6445,-3.5908,-3.6482,-3.51,-3.442,-3.5403,-3.5002,-3.4645,-3.4738,-3.4712,-3.4793,-3.4963,-3.5043,-3.5182,-3.5369,-3.5446,-3.5424,-3.5246,-3.5398,-3.5424,-3.5239,-3.5424,-3.55,-3.55,-3.55,-3.55,-3.55,-3.55,-3.55,-3.55,-3.55,-3.55,-3.5488,-3.5552,-3.5579,-3.5571,-3.5631,-3.5644,-3.5648,-3.5667,-3.5655,-3.5633,-5.3185,-5.3185,-5.3185,-5.3185,-5.3185,-5.3185,-5.3185,-5.3185,-5.3185,-5.3185,-5.3185,-5.2873,-5.2087,-5.1995,-5.1683,-5.0875,-5.082,-5.0472,-4.9665,-4.8783,-4.8324,-4.8324,-4.8306,-4.8306,-4.8306,-4.8306,-4.8306,-4.8306,-4.7498,-4.7113,-4.7094,-4.6287,-4.5902,-4.5865,-4.5076,-4.4727,-4.4672,-4.3864,-4.3533,-4.3515,-4.3533,-4.3515,-4.3515,-4.3515,-4.3515,-4.3515,-4.3515,-4.3515,-4.3515,-4.3515,-4.3515,-4.3515,-4.3515,-4.3515,-4.3515,-4.3515,-4.3515,-4.3515,-4.3515,-4.3515,-4.3296,-4.2506,-4.2304,-4.2084,-4.1279,-4.0487,-3.9916,-3.9898,-3.9478,-3.9112,-3.9093,-3.9377,-3.9223,-3.8096,-3.7914,-3.7522,-3.6466,-3.6317,-3.6408,-3.6675,-3.6,-3.5624,-3.5886,-3.5174,-3.4703,-3.4713,-3.4944,-3.5096,-3.5096,-3.5361,-3.5246,-3.4714,-3.5215,-3.5231,-3.4723,-3.5223,-3.55,-3.55,-3.55,-3.55,-3.55,-3.55,-3.55,-3.55,-3.55,-3.55,-3.55,-3.55,-3.55,-3.55,-3.55,-3.55,-3.5501,-3.5571,-3.555,-3.5515,-5.1933,-5.1728,-5.1728,-5.1728,-5.1728,-5.1728,-5.1728,-5.1728,-5.1728,-5.1728,-5.2131,-5.2354,-5.21,-5.2528,-5.2527,-5.1701,-5.1628,-5.1298,-5.049,-4.9664,-4.9225,-4.9225,-4.8636,-4.8306,-4.8306,-4.8306,-4.8306,-4.8306,-4.8067,-4.7938,-4.7921,-4.7113,-4.6727,-4.6709,-4.5902,-4.5535,-4.5535,-4.5278,-4.4856,-4.4397,-4.4966,-4.4507,-4.3552,-4.4121,-4.3993,-4.3515,-4.3515,-4.3515,-4.3515,-4.3515,-4.3515,-4.3515,-4.3515,-4.3515,-4.3515,-4.3515,-4.3515,-4.3515,-4.3515,-4.3515,-4.3441,-4.3185,-4.2708,-4.2249,-4.2011,-4.1332,-4.0641,-4.0252,-4.0044,-3.9837,-3.9514,-3.9541,-3.9569,-3.9464,-3.8731,-3.8281,-3.8565,-3.7441,-3.6739,-3.7206,-3.6546,-3.609,-3.6165,-3.5419,-3.5008,-3.5231,-3.5163,-3.5008,-3.4841,-3.5246,-3.5246,-3.4714,-3.5044,-3.5043,-3.4694,-3.5053,-3.5215,-3.5215,-3.5215,-3.5312,-3.55,-3.55,-3.55,-3.55,-3.55,-3.55,-3.55,-3.55,-3.55,-3.55,-3.55,-3.55,-3.5507,-3.5522,-3.5528,-3.5514,-5.1713,-5.1298,-5.1086,-5.1086,-5.1086,-5.1086,-5.1086,-5.1086,-5.1086,-5.1086,-5.1667,-5.2112,-5.2112,-5.2769,-5.288,-5.2116,-5.1748,-5.149,-5.1277,-5.0508,-5.0068,-5.0068,-4.926,-4.8655,-4.8324,-4.8306,-4.8306,-4.8306,-4.8306,-4.8306,-4.8306,-4.7791,-4.7571,-4.7535,-4.6727,-4.6379,-4.6361,-4.6049,-4.5626,-4.5223,-4.57,-4.5314,-4.4488,-4.4984,-4.469,-4.3975,-4.3975,-4.3754,-4.3515,-4.3515,-4.3515,-4.3515,-4.3515,-4.3515,-4.3515,-4.3515,-4.3515,-4.3515,-4.3515,-4.3515,-4.3515,-4.3515,-4.313,-4.2763,-4.2763,-4.2158,-4.1489,-4.1154,-4.0944,-4.0612,-3.9996,-3.9994,-3.9988,-3.9736,-3.9096,-3.8765,-3.918,-3.8223,-3.7599,-3.793,-3.7257,-3.6776,-3.6776,-3.6009,-3.5634,-3.5951,-3.5829,-3.5665,-3.5492,-3.5913,-3.5894,-3.535,-3.5385,-3.5217,-3.4822,-3.4764,-3.486,-3.5105,-3.5105,-3.5231,-3.55,-3.55,-3.55,-3.55,-3.55,-3.55,-3.55,-3.55,-3.55,-3.55,-3.55,-3.55,-3.55,-3.55,-3.55,-3.55,-5.2048,-5.1475,-5.0991,-5.092,-5.0903,-5.0903,-5.0903,-5.0903,-5.0903,-5.0903,-5.1544,-5.2,-5.2,-5.2662,-5.2831,-5.2159,-5.1398,-5.123,-5.1964,-5.1252,-5.0833,-5.0912,-5.0123,-4.9297,-4.8434,-4.8343,-4.8306,-4.8306,-4.8306,-4.8306,-4.8306,-4.8306,-4.8306,-4.8269,-4.7516,-4.7204,-4.7168,-4.6434,-4.6067,-4.6012,-4.6085,-4.603,-4.5902,-4.5975,-4.5516,-4.4801,-4.4801,-4.4342,-4.3699,-4.3643,-4.357,-4.3515,-4.3515,-4.3515,-4.3515,-4.3515,-4.3515,-4.3515,-4.3515,-4.3515,-4.3515,-4.3531,-4.3548,-4.3531,-4.3515,-4.2928,-4.2396,-4.2304,-4.1952,-4.1411,-4.0523,-4.063,-4.0465,-3.9394,-3.9183,-3.9059,-3.8795,-3.8723,-3.8707,-3.8707,-3.8046,-3.7603,-3.7603,-3.6886,-3.6482,-3.6649,-3.6701,-3.6682,-3.6675,-3.6946,-3.6851,-3.6332,-3.6085,-3.5661,-3.5004,-3.4512,-3.4524,-3.5016,-3.5043,-3.5207,-3.5479,-3.5493,-3.55,-3.55,-3.55,-3.55,-3.55,-3.55,-3.55,-3.55,-3.55,-3.55,-3.55,-3.55,-3.55,-3.55,-5.0904,-5.0423,-5.0116,-4.9552,-4.9449,-4.9449,-4.9449,-4.9449,-4.9449,-4.9449,-5.0544,-5.1317,-5.1317,-5.1922,-5.2271,-5.2112,-5.1457,-5.1343,-5.204,-5.1339,-5.114,-5.1699,-5.0967,-5.016,-4.9353,-4.8655,-4.8306,-4.8306,-4.8306,-4.8306,-4.8306,-4.8306,-4.8306,-4.8306,-4.8122,-4.8049,-4.8031,-4.7865,-4.7425,-4.6892,-4.7535,-4.7021,-4.5975,-4.6599,-4.6342,-4.5645,-4.5645,-4.5535,-4.5278,-4.4654,-4.4011,-4.3515,-4.3515,-4.3515,-4.3515,-4.3515,-4.3515,-4.3515,-4.3515,-4.3515,-4.3546,-4.3836,-4.3896,-4.3818,-4.3546,-4.3369,-4.3057,-4.2433,-4.2224,-4.1903,-4.1093,-4.099,-4.0833,-4.0142,-3.9867,-3.9564,-3.9078,-3.8829,-3.8707,-3.8707,-3.856,-3.8432,-3.8432,-3.7713,-3.7007,-3.6435,-3.6589,-3.661,-3.6394,-3.6838,-3.6851,-3.6332,-3.6456,-3.6042,-3.5004,-3.4871,-3.4692,-3.4394,-3.4655,-3.4926,-3.5198,-3.5398,-3.55,-3.55,-3.55,-3.55,-3.55,-3.55,-3.55,-3.55,-3.55,-3.55,-3.55,-3.55,-3.55,-3.55,-5.0941,-5.0338,-4.9864,-4.9137,-4.9001,-4.9001,-4.9001,-4.9001,-4.9001,-4.9001,-5.023,-5.1086,-5.1086,-5.1692,-5.1976,-5.1643,-5.0981,-5.0876,-5.1569,-5.1527,-5.1633,-5.2025,-5.1611,-5.1169,-5.0749,-4.9536,-4.8728,-4.8306,-4.8306,-4.8306,-4.8306,-4.8306,-4.8306,-4.8306,-4.8306,-4.8306,-4.8306,-4.8306,-4.8067,-4.77,-4.8141,-4.781,-4.7095,-4.7517,-4.7168,-4.6471,-4.6471,-4.6232,-4.5847,-4.5406,-4.4984,-4.458,-4.4195,-4.4066,-4.3993,-4.3608,-4.3515,-4.3531,-4.3712,-4.3742,-4.3836,-4.419,-4.4294,-4.4194,-4.382,-4.3742,-4.3566,-4.2998,-4.2873,-4.2635,-4.1827,-4.168,-4.147,-4.0791,-4.0559,-4.0236,-3.9582,-3.9359,-3.9129,-3.8762,-3.8707,-3.8707,-3.8707,-3.8322,-3.79,-3.7477,-3.7579,-3.7593,-3.7456,-3.7711,-3.7738,-3.7456,-3.7206,-3.68,-3.6193,-3.5807,-3.5266,-3.4585,-3.4652,-3.4832,-3.5105,-3.5376,-3.55,-3.55,-3.55,-3.55,-3.55,-3.55,-3.55,-3.55,-3.55,-3.55,-3.55,-3.55,-3.55,-3.55,-5.1555,-5.0794,-5.005,-4.9323,-4.9086,-4.9001,-4.9001,-4.9001,-4.9001,-4.9001,-5.023,-5.106,-5.0929,-5.1419,-5.1469,-5.0796,-5.0202,-5.0146,-5.0876,-5.1444,-5.179,-5.1928,-5.2003,-5.194,-5.1794,-5.0633,-4.9537,-4.8526,-4.8379,-4.8306,-4.8306,-4.8306,-4.8306,-4.8306,-4.8306,-4.8306,-4.8306,-4.8306,-4.8306,-4.8306,-4.8306,-4.8306,-4.8306,-4.8306,-4.7902,-4.7314,-4.7314,-4.6782,-4.6104,-4.6104,-4.6012,-4.5773,-4.5131,-4.4801,-4.4563,-4.3901,-4.3625,-4.3563,-4.3912,-4.4001,-4.4102,-4.458,-4.4631,-4.4514,-4.4175,-4.4061,-4.3909,-4.3646,-4.3548,-4.3313,-4.2635,-4.2506,-4.2249,-4.1425,-4.1297,-4.1022,-4.0212,-4.0102,-3.9863,-3.9203,-3.9001,-3.8854,-3.8707,-3.8707,-3.8707,-3.8707,-3.8707,-3.8707,-3.8707,-3.8707,-3.8707,-3.8707,-3.8046,-3.7639,-3.7492,-3.685,-3.6064,-3.522,-3.5096,-3.5038,-3.5034,-3.5304,-3.5453,-3.55,-3.55,-3.55,-3.55,-3.5446,-3.5453,-3.55,-3.5446,-3.5453,-3.55,-3.55,-3.55,-3.55,-5.2317,-5.1572,-5.0828,-5.0067,-4.9424,-4.9001,-4.9001,-4.9001,-4.9001,-4.9001,-5.023,-5.085,-5.0213,-5.0241,-5.0004,-4.9346,-4.9182,-4.9402,-5.01,-5.0241,-5.0581,-5.1215,-5.179,-5.1759,-5.1054,-5.1451,-5.0951,-4.9427,-4.8673,-4.8306,-4.8306,-4.8306,-4.8306,-4.8306,-4.8306,-4.8306,-4.8306,-4.8306,-4.8306,-4.8306,-4.8306,-4.8306,-4.8306,-4.8306,-4.8233,-4.8141,-4.8141,-4.7608,-4.6929,-4.6929,-4.6489,-4.5883,-4.5773,-4.5259,-4.4673,-4.4563,-4.4048,-4.3563,-4.3912,-4.4001,-4.4175,-4.4853,-4.4806,-4.4599,-4.4527,-4.4247,-4.3986,-4.394,-4.3693,-4.3478,-4.3368,-4.3332,-4.3057,-4.2268,-4.2139,-4.1864,-4.104,-4.093,-4.0893,-4.0783,-4.0157,-3.946,-3.8781,-3.8707,-3.8707,-3.8707,-3.8707,-3.8707,-3.8707,-3.8707,-3.8707,-3.8707,-3.8597,-3.8193,-3.7511,-3.7382,-3.6942,-3.6119,-3.6332,-3.5836,-3.4754,-3.5025,-3.5281,-3.55,-3.55,-3.55,-3.5486,-3.5239,-3.5289,-3.5486,-3.5239,-3.5297,-3.55,-3.55,-3.55,-3.55,-5.2469,-5.2046,-5.1454,-5.0287,-4.9813,-4.9475,-4.9069,-4.9001,-4.9001,-4.9001,-4.9867,-5.0362,-5.0033,-5.0004,-4.9722,-4.9063,-4.9001,-4.9138,-4.9402,-4.9792,-5.0146,-5.0472,-5.1519,-5.1932,-5.1589,-5.1846,-5.1646,-5.0951,-5.0105,-4.9462,-4.9022,-4.9022,-4.8765,-4.8306,-4.8306,-4.8306,-4.8306,-4.8306,-4.8306,-4.8306,-4.8306,-4.8306,-4.8306,-4.8306,-4.8306,-4.8306,-4.8306,-4.8086,-4.7755,-4.7755,-4.7516,-4.7168,-4.6709,-4.6324,-4.5938,-4.5498,-4.48,-4.4295,-4.4856,-4.4674,-4.4455,-4.4966,-4.4977,-4.4837,-4.4631,-4.4276,-4.394,-4.3756,-4.3614,-4.3515,-4.3515,-4.3515,-4.3386,-4.302,-4.2965,-4.269,-4.1882,-4.1772,-4.159,-4.115,-4.0396,-3.9753,-3.9405,-3.8964,-3.8707,-3.8707,-3.8707,-3.8707,-3.8707,-3.8707,-3.8707,-3.8707,-3.8707,-3.8524,-3.8175,-3.8175,-3.7771,-3.6978,-3.71,-3.6437,-3.5154,-3.5414,-3.5372,-3.5043,-3.5043,-3.5043,-3.5034,-3.4926,-3.4944,-3.5062,-3.5088,-3.5254,-3.55,-3.55,-3.55,-3.55]},{"header":{"parameterUnit":"m.s-1","parameterCategory":1,"la1":30.6,"la2":28.766,"lo1":-90.7593,"lo2":-88.6598,"dy":0.0162,"dx":0.0183,"nx":116,"ny":114,"refTime":"2024-06-29T06:00:00:Z","depth":0,"parameterNumber":3,"parameterNumberName":"V-component_of_WINDS"},"data":[0.0,0.0,0.0,0.0,0.0,0.0,0.0,0.0,0.0,0.0,0.0,0.0,0.0,0.0,0.0,0.0,0.0,0.0,0.0,0.0,0.0,0.0,0.0,0.0,0.0,0.0,0.0,0.0,0.0,0.0,0.0,0.0,0.0,0.0,0.0,0.0,0.0,0.0,0.0,0.0,0.0,0.0,0.0,0.0,0.0,0.0,0.0,0.0,0.0,0.0,0.0,0.0,0.0,0.0,0.0,0.0,0.0,0.0,0.0,0.0,0.0,0.0,0.0,0.0,0.0,0.0,0.0,0.0,0.0,0.0,0.0,0.0,0.0,0.0,0.0,0.0,0.0,0.0,0.0,0.0,0.0,0.0,0.0,0.0,0.0,0.0,0.0,0.0,0.0,0.0,0.0,0.0,0.0,0.0,0.0,0.0,0.0,0.0,0.0,0.0,0.0,0.0,0.0,0.0,0.0,0.0,0.0,0.0,0.0,0.0,0.0,0.0,0.0,0.0,0.0,0.0,0.0,0.0,0.0,0.0,0.0,0.0,0.0,0.0,0.0,0.0,0.0,0.0,0.0,0.0,0.0,0.0,0.0,0.0,0.0,0.0,0.0,0.0,0.0,0.0,0.0,0.0,0.0,0.0,0.0,0.0,0.0,0.0,0.0,0.0,0.0,0.0,0.0,0.0,0.0,0.0,0.0,0.0,0.0,0.0,0.0,0.0,0.0,0.0,0.0,0.0,0.0,0.0,0.0,0.0,0.0,0.0,0.0,0.0,0.0,0.0,0.0,0.0,0.0,0.0,0.0,0.0,0.0,0.0,0.0,0.0,0.0,0.0,0.0,0.0,0.0,0.0,0.0,0.0,0.0,0.0,0.0,0.0,0.0,0.0,0.0,0.0,0.0,0.0,0.0,0.0,0.0,0.0,0.0,0.0,0.0,0.0,0.0,0.0,0.0,0.0,0.0,0.0,0.0,0.0,0.0,0.0,0.0,0.0,0.0,0.0,0.0,0.0,0.0,0.0,0.0,0.0,0.0,0.0,0.0,0.0,0.0,0.0,0.0,0.0,0.0,0.0,0.0,0.0,0.0,0.0,0.0,0.0,0.0,0.0,0.0,0.0,0.0,0.0,0.0,0.0,0.0,0.0,0.0,0.0,0.0,0.0,0.0,0.0,0.0,0.0,0.0,0.0,0.0,0.0,0.0,0.0,0.0,0.0,0.0,0.0,0.0,0.0,0.0,0.0,0.0,0.0,0.0,0.0,0.0,0.0,0.0,0.0,0.0,0.0,0.0,0.0,0.0,0.0,0.0,0.0,0.0,0.0,0.0,0.0,0.0,0.0,0.0,0.0,0.0,0.0,0.0,0.0,0.0,0.0,0.0,0.0,0.0,0.0,0.0,0.0,0.0,0.0,0.0,0.0,0.0,0.0,0.0,0.0,0.0,0.0,0.0,0.0,0.0,0.0,0.0,0.0,0.0,0.0,0.0,0.0,0.0,0.0,0.0,0.0,0.0,0.0,0.0,0.0,0.0,0.0,0.0,0.0,0.0,0.0,0.0,0.0,0.0,0.0,0.0,0.0,0.0,0.0,0.0,0.0,0.0,0.0,0.0,0.0,0.0,0.0,0.0,0.0,0.0,0.0,0.0,0.0,0.0,0.0,0.0,0.0,0.0,0.0,0.0,0.0,0.0,0.0,0.0,0.0,0.0,0.0,0.0,0.0,0.0,0.0,0.0,0.0,0.0,0.0,0.0,0.0,0.0,0.0,0.0,0.0,0.0,0.0,0.0,0.0,0.0,0.0,0.0,0.0,0.0,0.0,0.0,0.0,0.0,0.0,0.0,0.0,0.0,0.0,0.0,0.0,0.0,0.0,0.0,0.0,0.0,0.0,0.0,0.0,0.0,0.0,0.0,0.0,0.0,0.0,0.0,0.0,0.0,0.0,0.0,0.0,0.0,0.0,0.0,0.0,0.0,0.0,0.0,0.0,0.0,0.0,0.0,0.0,0.0,0.0,0.0,0.0,0.0,0.0,0.0,0.0,0.0,0.0,0.0,0.0,0.0,0.0,0.0,0.0,0.0,0.0,0.0,0.0,0.0,0.0,0.0,0.0,0.0,0.0,0.0,0.0,0.0,0.0,0.0,0.0,0.0,0.0,0.0,0.0,0.0,0.0,0.0,0.0,0.0,0.0,0.0,0.0,0.0,0.0,0.0,0.0,0.0,0.0,0.0,0.0,0.0,0.0,0.0,0.0,0.0,0.0,0.0,0.0,0.0,0.0,0.0,0.0,0.0,0.0,0.0,0.0,0.0,0.0,0.0,0.0,0.0,0.0,0.0,0.0,0.0,0.0,0.0,0.0,0.0,0.0,0.0,0.0,0.0,0.0,0.0,0.0,0.0,0.0,0.0,0.0,0.0,0.0,0.0,0.0,0.0,0.0,0.0,0.0,0.0,0.0,0.0,0.0,0.0,0.0,0.0,0.0,0.0,0.0,0.0,0.0,0.0,0.0,0.0,0.0,0.0,0.0,0.0,0.0,0.0,0.0,0.0,0.0,0.0,0.0,0.0,0.0,0.0,0.0,0.0,0.0,0.0,0.0,0.0,0.0,0.0,0.0,0.0,0.0,0.0,0.0,0.0,0.0,0.0,0.0,0.0,0.0,0.0,0.0,0.0,0.0,0.0,0.0,0.0,0.0,0.0,0.0,0.0,0.0,0.0,0.0,0.0,0.0,0.0,0.0,0.0,0.0,0.0,0.0,0.0,0.0,0.0,0.0,0.0,0.0,0.0,0.0,0.0,0.0,0.0,0.0,0.0,0.0,0.0,0.0,0.0,0.0,0.0,0.0,0.0,0.0,0.0,0.0,0.0,0.0,0.0,0.0,0.0,0.0,0.0,0.0,0.0,0.0,0.0,0.0,0.0,0.0,0.0,0.0,0.0,0.0,0.0,0.0,0.0,0.0,0.0,0.0,0.0,0.0,0.0,0.0,0.0,0.0,0.0,0.0,0.0,0.0,0.0,0.0,0.0,0.0,0.0,0.0,0.0,0.0,0.0,0.0,0.0,0.0,0.0,0.0,0.0,0.0,0.0,0.0,0.0,0.0,0.0,0.0,0.0,0.0,0.0,0.0,0.0,0.0,0.0,0.0,0.0,0.0,0.0,0.0,0.0,0.0,0.0,0.0,0.0,0.0,0.0,0.0,0.0,0.0,0.0,0.0,0.0,0.0,0.0,0.0,0.0,0.0,0.0,0.0,0.0,0.0,0.0,0.0,0.0,0.0,0.0,0.0,0.0,0.0,0.0,0.0,0.0,0.0,0.0,0.0,0.0,0.0,0.0,0.0,0.0,0.0,0.0,0.0,0.0,0.0,0.0,0.0,0.0,0.0,0.0,0.0,0.0,0.0,0.0,0.0,0.0,0.0,0.0,0.0,0.0,0.0,0.0,0.0,0.0,0.0,0.0,0.0,0.0,0.0,0.0,0.0,0.0,0.0,0.0,0.0,0.0,0.0,0.0,0.0,0.0,0.0,0.0,0.0,0.0,0.0,0.0,0.0,0.0,0.0,0.0,0.0,0.0,0.0,0.0,0.0,0.0,0.0,0.0,0.0,0.0,0.0,0.0,0.0,0.0,0.0,0.0,0.0,0.0,0.0,0.0,0.0,0.0,0.0,0.0,0.0,0.0,0.0,0.0,0.0,0.0,0.0,0.0,0.0,0.0,0.0,0.0,0.0,0.0,0.0,0.0,0.0,0.0,0.0,0.0,0.0,0.0,0.0,0.0,0.0,0.0,0.0,0.0,0.0,0.0,0.0,0.0,0.0,0.0,0.0,0.0,0.0,0.0,0.0,0.0,0.0,0.0,0.0,0.0,0.0,0.0,0.0,0.0,0.0,0.0,0.0,0.0,0.0,0.0,0.0,0.0,0.0,0.0,0.0,0.0,0.0,0.0,0.0,0.0,0.0,0.0,0.0,0.0,0.0,0.0,0.0,0.0,0.0,0.0,0.0,0.0,0.0,0.0,0.0,0.0,0.0,0.0,0.0,0.0,0.0,0.0,0.0,0.0,0.0,0.0,0.0,0.0,0.0,0.0,0.0,0.0,0.0,0.0,0.0,0.0,0.0,0.0,0.0,0.0,0.0,0.0,0.0,0.0,0.0,0.0,0.0,0.0,0.0,0.0,0.0,0.0,0.0,0.0,0.0,0.0,0.0,0.0,0.0,0.0,0.0,0.0,0.0,0.0,0.0,0.0,0.0,0.0,0.0,0.0,0.0,0.0,0.0,0.0,0.0,0.0,0.0,0.0,0.0,0.0,0.0,0.0,0.0,0.0,0.0,0.0,0.0,0.0,0.0,0.0,0.0,0.0,0.0,0.0,0.0,0.0,0.0,0.0,0.0,0.0,0.0,0.0,0.0,0.0,0.0,0.0,0.0,0.0,0.0,0.0,0.0,0.0,0.0,0.0,0.0,0.0,0.0,0.0,0.0,0.0,0.0,0.0,0.0,0.0,0.0,0.0,0.0,0.0,0.0,0.0,0.0,0.0,0.0,0.0,0.0,0.0,0.0,0.0,0.0,0.0,0.0,0.0,0.0,0.0,0.0,0.0,0.0,0.0,0.0,0.0,0.0,0.0,0.0,0.0,0.0,0.0,0.0,0.0,0.0,0.0,0.0,0.0,0.0,0.0,0.0,0.0,0.0,0.0,0.0,0.0,0.0,0.0,0.0,0.0,0.0,0.0,0.0,0.0,0.0,0.0,0.0,0.0,0.0,0.0,0.0,0.0,0.0,0.0,0.0,0.0,0.0,0.0,0.0,0.0,0.0,0.0,0.0,0.0,0.0,0.0,0.0,0.0,0.0,0.0,0.0,0.0,0.0,0.0,0.0,0.0,0.0,0.0,0.0,0.0,0.0,0.0,0.0,0.0,0.0,0.0,0.0,0.0,0.0,0.0,0.0,0.0,0.0,0.0,0.0,0.0,0.0,0.0,0.0,0.0,0.0,0.0,0.0,0.0,0.0,0.0,0.0,0.0,0.0,0.0,0.0,0.0,0.0,0.0,0.0,0.0,0.0,0.0,0.0,0.0,0.0,0.0,0.0,0.0,0.0,0.0,0.0,0.0,0.0,0.0,0.0,0.0,0.0,0.0,0.0,0.0,0.0,0.0,0.0,0.0,0.0,0.0,0.0,0.0,0.0,0.0,0.0,0.0,0.0,0.0,0.0,0.0,0.0,0.0,0.0,0.0,0.0,0.0,0.0,0.0,0.0,0.0,0.0,0.0,0.0,0.0,0.0,0.0,0.0,0.0,0.0,0.0,0.0,0.0,0.0,0.0,0.0,0.0,0.0,0.0,0.0,0.0,0.0,0.0,0.0,0.0,0.0,0.0,0.0,0.0,0.0,0.0,0.0,0.0,0.0,0.0,0.0,0.0,0.0,0.0,0.0,0.0,0.0,0.0,0.0,0.0,0.0,0.0,0.0,0.0,0.0,0.0,0.0,0.0,0.0,0.0,0.0,0.0,0.0,0.0,0.0,0.0,0.0,0.0,0.0,0.0,0.0,0.0,0.0,0.0,0.0,0.0,0.0,0.0,0.0,0.0,0.0,0.0,0.0,0.0,0.0,0.0,0.0,0.0,0.0,0.0,0.0,0.0,0.0,0.0,0.0,0.0,0.0,0.0,0.0,0.0,0.0,0.0,0.0,0.0,0.0,0.0,0.0,0.0,0.0,0.0,0.0,0.0,0.0,0.0,0.0,0.0,0.0,0.0,0.0,0.0,0.0,0.0,0.0,0.0,0.0,0.0,0.0,0.0,0.0,0.0,0.0,0.0,0.0,0.0,0.0,0.0,0.0,0.0,0.0,0.0,0.0,0.0,0.0,0.0,0.0,0.0,0.0,0.0,0.0,0.0,0.0,0.0,0.0,0.0,0.0,0.0,0.0,0.0,0.0,0.0,0.0,0.0,0.0,0.0,0.0,0.0,0.0,0.0,0.0,0.0,0.0,0.0,0.0,0.0,0.0,0.0,0.0,0.0,0.0,0.0,0.0,0.0,0.0,0.0,0.0,0.0,0.0,0.0,0.0,0.0,0.0,0.0,0.0,0.0,0.0,0.0,0.0,-0.7883,0.0,0.0,0.0,0.0,0.0,0.0,0.0,0.0,0.0,0.0,0.0,0.0,0.0,0.0,0.0,0.0,0.0,0.0,0.0,0.0,0.0,0.0,0.0,0.0,-0.035,-0.054,-0.0814,-0.0829,-0.0903,-0.1077,0.0,0.0,0.0,0.0,0.0,0.0,0.0569,0.1034,0.1375,0.068,0.0087,-0.0372,-0.0381,-0.0086,0.0464,0.0,0.0,0.0,0.0,0.0,0.0,0.0,0.0,0.0,0.0,0.0,0.0,0.0,0.0,0.0,0.0,0.0,0.0,0.0,0.0,0.0,0.0,0.0,0.0,0.0,0.0,0.0,0.0,0.0,0.0,0.0,0.0,0.0,0.0,0.0,0.0,0.0,0.0,0.0,0.0,0.0,0.0,0.0,0.0,0.0,0.0,0.0,0.0,0.0,0.0,0.0,0.0,0.0,0.0,0.0,0.0,0.0,0.0,0.0,0.0,0.0,0.0,0.0,0.0,0.0,0.0,0.0,0.0,0.0,0.0,0.0,-0.911,0.0,0.0,0.0,0.0,0.0,0.0,0.0,0.0,0.0,0.0,0.0,0.0,0.0,0.0,0.0,0.0,0.0,0.0,0.0,0.0,0.0,-0.0625,-0.0891,-0.1147,-0.1371,-0.1595,-0.1621,-0.1599,-0.1582,-0.1572,0.0,0.0,0.0,-0.0671,-0.0405,-0.0015,0.0295,0.0553,-0.0503,-0.1448,-0.2261,-0.2277,-0.1541,-0.0221,-0.0193,0.0,0.0,0.0,0.0,0.0,0.0,0.0,0.0,0.0,0.0,0.0,0.0,0.0,0.0,0.0,0.0,0.0,0.0,0.0,0.0,0.0,0.0,0.0,0.0,0.0,0.0,0.0,0.0,0.0,0.0,0.0,0.0,0.0,0.0,0.0,0.0,0.0,0.0,0.0,0.0,0.0,0.0,0.0,0.0,0.0,0.0,0.0,0.0,0.0,0.0,0.0,0.0,0.0,0.0,0.0,0.0,0.0,0.0,0.0,0.0,0.0,0.0,0.0,-1.2327,-1.2766,-1.2766,-1.2766,-1.2899,-1.3119,-1.1612,-1.1169,-1.1469,-1.0534,0.0,0.0,0.0,0.0,0.0,0.0,0.0,0.0,0.0,0.0,0.0,0.0,0.0,0.0,0.0,0.0,0.0,0.0,0.0,-0.1214,-0.1762,-0.1962,-0.2275,-0.2809,-0.2869,-0.2812,-0.2697,-0.2688,0.0,0.0,-0.1687,-0.1204,-0.1162,-0.0875,-0.076,-0.0844,-0.1801,-0.2344,-0.2474,-0.2577,-0.2088,-0.1136,-0.1017,-0.0629,-0.0085,0.0,0.0,0.0,0.0,0.0,0.0,0.0,0.0,0.0,0.0,0.0,0.0,0.0,0.0,0.0,0.0,0.0,0.0,0.0,0.0,0.0,0.0,0.0,0.0,0.0,0.0,0.0,0.0,0.0,0.0,0.0,0.0,0.0,0.0,0.0,0.0,0.0,0.0,0.0,0.0,0.0,-0.2351,-0.3204,0.0,0.0,0.0,0.0,0.0,0.0,0.0,0.0,0.0,0.0,0.0,0.0,0.0,-1.0103,-1.1295,-1.201,-1.2795,-1.367,-1.4349,-1.466,-1.466,-1.466,-1.468,-1.4707,-1.4459,0.0,-1.2171,-1.2024,0.0,0.0,0.0,0.0,0.0,0.0,0.0,0.0,0.0,0.0,0.0,0.0,0.0,0.0,0.0,0.0,0.0,0.0,0.0,0.0,0.0,-0.2394,-0.2761,-0.3182,-0.3307,-0.3314,-0.3125,0.0,0.0,-0.2815,-0.1839,-0.1453,-0.1802,-0.129,-0.1506,-0.2506,-0.2928,-0.3378,-0.3863,-0.3919,0.0,-0.1982,-0.1903,-0.1322,-0.0383,-0.0385,0.0,0.0,0.0,0.0,0.0,0.0,0.0,0.0,0.0,0.0,0.0,0.0,0.0,0.0,0.0,0.0,0.0,0.0,0.0,0.0,0.0,0.0,0.0,0.0,0.0,0.0,0.0,0.0,0.0,0.0,0.0,0.0,0.0,0.0,0.0,0.0,0.0,0.0,0.0,-0.2541,-0.3203,-0.3788,-0.4017,-0.4343,0.0,0.0,0.0,0.0,0.0,0.0,0.0,0.0,0.0,-1.1527,-1.1963,-1.2534,-1.3274,-1.3849,-1.4381,-1.483,-1.5251,-1.5451,-1.5451,-1.5451,-1.5451,-1.5451,-1.5451,-1.4917,-1.3988,-1.3327,-1.2478,-1.1584,0.0,0.0,0.0,0.0,-1.0802,-1.0988,0.0,0.0,0.0,0.0,0.0,0.0,0.0,0.0,0.0,0.0,0.0,0.0,-0.2395,-0.2939,-0.3333,-0.3472,-0.3443,0.0,0.0,0.0,-0.2642,-0.2497,-0.1766,-0.1597,-0.2088,-0.1861,-0.2431,-0.3838,-0.3941,-0.4312,0.0,0.0,0.0,0.0,0.0,0.0,0.0,0.0,0.0,0.0,0.0,0.0,0.0,0.0,0.0,0.0,0.0,0.0,0.0,0.0,0.0,0.0,0.0,0.0,0.0,0.0,0.0,0.0,0.0,0.0,0.0,0.0,0.0,0.0,0.0,0.0,0.0,0.0,0.0,0.0,0.0,0.0,0.0,0.0,0.0,0.0,0.0,-0.3513,-0.4105,-0.4404,-0.4877,-0.5457,0.0,0.0,0.0,0.0,0.0,0.0,-1.0424,-1.0005,-1.0783,-1.3191,-1.3707,-1.42,-1.485,-1.5291,-1.5504,-1.5504,-1.5678,-1.5784,-1.5784,-1.5784,-1.5784,-1.5784,-1.5784,-1.5705,-1.5431,-1.4402,-1.3627,-1.3079,-1.2525,-1.2144,-1.1917,-1.2218,-1.2325,-1.2398,0.0,0.0,0.0,0.0,0.0,0.0,0.0,0.0,0.0,0.0,0.0,-0.317,-0.3068,0.0,-0.4235,-0.3982,0.0,0.0,0.0,0.0,-0.1588,-0.1396,-0.151,-0.1651,-0.1823,-0.2895,-0.3797,0.0,0.0,0.0,0.0,0.0,0.0,0.0,0.0,0.0,0.0,0.0,0.0,0.0,0.0,0.0,0.0,0.0,0.0,0.0,0.0,0.0,0.0,0.0,0.0,0.0,0.0,0.0,0.0,0.0,0.0,0.0,0.0,0.0,0.0,0.0,0.0,0.0,0.0,0.0,0.0,0.0,0.0,0.0,0.0,0.0,0.0,0.0,0.0,0.0,0.0,0.0,0.0,-0.5056,-0.5578,0.0,0.0,0.0,0.0,-0.8763,-0.989,-1.0369,-0.9771,-1.0041,-1.1147,-1.3321,-1.3414,-1.4176,-1.5711,-1.5744,-1.5758,-1.5758,-1.5771,-1.5784,-1.5784,-1.5784,-1.5784,-1.5784,-1.5784,-1.5771,-1.5758,-1.515,-1.4593,-1.3988,-1.3633,-1.3333,-1.3153,-1.3407,-1.3513,-1.3553,0.0,0.0,0.0,-0.0914,-0.1083,-0.1263,-0.1571,-0.1692,-0.1947,-0.2511,-0.2851,-0.3213,0.0,-0.395,-0.4132,0.0,0.0,0.0,0.0,0.0,-0.1661,-0.15,-0.1635,-0.2115,-0.2938,-0.3764,-0.4407,0.0,0.0,0.0,0.0,0.0,0.0,0.0,0.0,0.0,0.0,0.0,0.0,0.0,0.0,0.0,0.0,0.0,0.0,0.0,0.0,0.0,0.0,0.0,0.0,0.0,0.0,0.0,0.0,0.0,0.0,0.0,0.0,0.0,0.0,0.0,0.0,0.0,0.0,0.0,0.0,0.0,0.0,0.0,0.0,0.0,0.0,0.0,0.0,0.0,0.0,0.0,0.0,-0.6732,-0.6696,0.0,-0.7542,-0.823,-0.8945,-0.9637,-0.963,-0.997,-1.0829,-1.107,-1.1564,-1.239,-1.3261,-1.4023,-1.4555,-1.4561,-1.4997,-1.5784,-1.5784,-1.5784,-1.5784,-1.5784,-1.5784,-1.5784,-1.5784,-1.5784,-1.5764,-1.5605,-1.5284,-1.4917,-1.4816,-1.4596,-1.4349,-1.4456,-1.4496,-1.4509,-0.0311,-0.0568,0.0,-0.123,-0.1396,-0.1541,-0.177,-0.2051,-0.2421,-0.2962,-0.329,-0.3658,0.0,0.0,0.0,0.0,0.0,0.0,0.0,0.0,-0.1266,-0.143,-0.2071,-0.2865,-0.3871,-0.4435,0.0,0.0,0.0,0.0,0.0,0.0,0.0,0.0,0.0,0.0,0.0,0.0,0.0,0.0,0.0,0.0,0.1091,0.0,0.0,0.0,0.0,0.0,0.0,0.0,0.0,0.0,0.0,0.0,0.0,0.0,0.0,0.0,0.0,0.0,0.0,0.0,0.0,0.0,0.0,0.0,0.0,0.0,0.0,0.0,0.0,0.0,0.0,0.0,0.0,0.0,0.0,0.0,-0.7036,-0.7948,-0.753,-0.7592,-0.8695,-0.8854,-0.9385,-1.0533,-0.9793,-0.9597,-1.0263,-1.0492,-1.1035,-1.2056,-1.2959,-1.3886,-1.4832,-1.4832,-1.5232,-1.5979,-1.5979,-1.5925,-1.5784,-1.5784,-1.5784,-1.5784,-1.5784,-1.5784,-1.5784,-1.5784,-1.5718,-1.5538,-1.5538,-1.5424,-1.5257,-1.5257,-1.5257,-1.5257,-0.0356,-0.0881,-0.1296,-0.131,-0.1582,-0.1803,-0.1803,-0.2298,-0.2828,-0.3237,-0.4046,-0.4608,0.0,0.0,0.0,0.0,0.0,0.0,0.0,-0.042,-0.0384,-0.1141,-0.2743,-0.3885,-0.4511,0.0,0.0,0.0,0.0,0.0,0.0,0.0,0.0,0.0,0.0,0.0,0.0,0.0,0.0,0.0,0.0,0.0,0.1191,0.0,0.0,0.0,0.0,0.0,0.0,0.0,0.0,0.0,0.0,0.0,0.0,0.0,0.0,0.0,0.0,0.0,0.0,0.0,0.0,0.0,0.0,0.0,0.0,0.0,0.0,0.0,0.0,0.0,0.0,0.0,0.0,0.0,-0.8949,-0.8675,-0.8554,-0.8736,-0.8139,-0.8544,-1.0643,-1.0228,-1.0244,-1.137,-1.0524,-0.9373,-0.8095,-0.8245,-0.9583,-1.2239,-1.2486,-1.3874,-1.66,-1.6657,-1.6517,-1.6286,-1.6286,-1.6132,-1.5804,-1.5798,-1.5798,-1.5798,-1.5784,-1.5784,-1.5784,-1.5784,-1.5784,-1.5784,-1.5784,-1.5784,-1.5784,-1.5784,-1.5784,-1.5784,-0.0658,-0.0892,-0.115,-0.1582,-0.1736,-0.1803,-0.1803,-0.2104,-0.2529,-0.3086,-0.3574,0.0,0.0,0.0,0.0,0.0,0.0,0.0,-0.1118,-0.0912,-0.1434,-0.2854,-0.3352,0.0,0.0,0.0,0.0,0.0,0.0,0.0,0.0,0.0,0.0,0.0,0.0,0.0,0.0,0.0,0.0,0.0,0.0,0.0,0.1066,0.0,0.0,0.0,0.0,0.0,0.0,0.0,0.0,0.0,0.0,0.0,0.0,0.0,0.0,0.0,0.0,0.0,0.0,0.0,0.0,0.0,0.0,0.0,0.0,0.0,0.0,0.0,0.0,0.0,0.0,0.0,0.0,-1.1304,-1.1194,-1.0796,-1.088,-1.1968,-1.1276,-1.0953,-1.1539,-1.0596,-1.0064,-1.04,-0.9406,-0.861,-0.8258,-0.9259,-1.0213,-1.1131,-1.2101,-1.3467,-1.5311,-1.5311,-1.5739,-1.6587,-1.6587,-1.654,-1.646,-1.6246,-1.6152,-1.6139,-1.5925,-1.5784,-1.5784,-1.5784,-1.5784,-1.5784,-1.5784,-1.5784,-1.5784,-1.5784,-1.5784,-1.5784,-0.0625,-0.0892,-0.1183,-0.153,-0.1703,-0.1803,-0.1803,-0.2189,-0.268,-0.3203,-0.361,0.0,0.0,0.0,0.0,0.0,0.0,-0.0966,-0.0671,-0.1295,-0.2119,-0.31,0.0,0.0,0.0,0.0,0.0,0.0,0.0,0.0,0.0,0.0,0.0,0.0,0.0,0.0,0.0,0.0,0.0,0.0,0.0,0.0,0.1104,0.0303,0.0,0.0,0.0,0.0,-0.0074,-0.0501,0.0,0.0,0.0,0.0,0.0,0.0,0.0,0.0,0.0,0.0,0.0,0.0,0.0,0.0,0.0,0.0,0.0,0.0,0.0,0.0,0.0,0.0,0.0,0.0,-1.2275,-1.3361,-1.3483,-1.2718,-1.2556,-1.3508,-1.2587,-1.2139,-1.2673,-1.1556,-1.0811,-1.0942,-0.9811,-0.89,-0.8408,-0.9223,-1.0294,-1.1642,-1.2459,-1.3868,-1.5964,-1.5964,-1.6273,-1.6894,-1.6894,-1.6827,-1.67,-1.6533,-1.6453,0.0,-1.6139,-1.6012,-1.6005,-1.5879,-1.5784,0.0,0.0,0.0,0.0,0.0,-1.5784,-1.5784,-0.039,-0.0836,-0.1219,-0.1285,-0.1552,-0.1759,-0.1792,-0.2374,-0.297,-0.3365,0.0,0.0,0.0,0.0,0.0,0.0,0.0,0.0,0.0,0.0,0.0,-0.2781,0.0,0.0,0.0,0.0,0.0,0.0,0.0,0.0,0.0,0.0,0.0,0.0,0.0,0.0,0.0,0.0,0.0,0.0,0.0,0.0,0.1082,0.0298,0.0,0.0,0.0,-0.0058,-0.014,-0.0132,0.0,0.0,0.0,0.0,0.0,0.0,0.0,0.0,0.0,0.0,0.0,0.0,0.0,0.0,0.0,0.0,0.0,0.0,0.0,0.0,0.0,0.0,0.0,0.0,-1.3877,-1.5162,-1.5404,-1.4437,-1.3761,-1.4094,-1.306,-1.2818,-1.4022,-1.2937,-1.2258,-1.2403,-1.1107,-0.984,-0.8811,0.0,0.0,0.0,0.0,-1.4502,-1.7582,-1.7417,-1.7344,-1.7253,-1.7253,-1.7112,-1.6807,-1.6774,-1.676,-1.674,-1.6446,-1.6348,-1.6301,-1.5985,-1.5811,-1.5784,-1.5784,-1.5784,-1.5784,-1.5784,-1.5784,-1.5784,-0.0356,-0.049,-0.0725,-0.1219,-0.1352,-0.1485,-0.1759,-0.2105,-0.2456,-0.2802,-0.3269,0.0,0.0,0.0,0.0,0.0,0.0,0.0,0.0,0.0,0.0,0.0,0.0,0.0,0.0,0.0,0.0,0.0,0.0,0.0,0.0,0.0,0.0,0.0,0.0,0.0,0.0,0.0,0.0,0.0,0.0,0.0,0.0216,0.0068,0.0,0.0,0.0,-0.0457,-0.1026,-0.0924,-0.1799,-0.2807,-0.2169,0.0,0.0,0.0,0.0,0.0,0.0,0.0,0.0,0.0,0.0,0.0,0.0,0.0,0.0,0.0,0.0,0.0,0.0,0.0,0.0,-1.3799,-1.4761,-1.5418,-1.5705,-1.5502,-1.5373,-1.5432,-1.5194,-1.5146,-1.5391,-1.4461,-1.3857,-1.3903,-1.1929,-1.068,-1.0453,-0.9454,-1.019,-1.3145,-1.2113,-1.348,-1.7582,-1.644,-1.6415,-1.7502,0.0,0.0,-1.7402,-1.7219,-1.7112,-1.7099,-1.6754,-1.6486,-1.6266,-1.6213,-1.6046,-1.5784,-1.5784,-1.5784,-1.5784,-1.5784,-1.5784,-1.5784,-0.0201,-0.0446,-0.0747,-0.105,-0.1349,-0.1607,-0.1773,-0.1977,-0.2218,-0.2558,-0.2711,0.0,0.0,0.0,0.0,0.0,0.0,0.0,0.0,0.0,0.0,0.0,0.0,0.0,0.0,0.0,0.0,0.0,0.0,0.0,0.0,0.0,0.0,0.0,0.0,0.0,0.0,0.0,0.0,0.0,0.0,0.0,0.0,0.0,0.0,0.0,0.0,-0.0575,-0.1291,-0.1228,-0.2065,-0.3143,-0.3033,-0.3304,-0.3644,0.0,0.0,0.0,0.0,0.0,0.0,0.0,0.0,0.0,0.0,0.0,0.0,0.0,0.0,-1.0417,-1.2086,0.0,-1.2699,-1.3784,-1.4331,-1.4697,-1.4829,-1.5391,-1.5784,-1.5784,-1.5784,-1.5885,-1.6039,-1.5583,-1.5128,-1.4681,-1.3585,-1.2399,-1.1069,-1.0354,-1.0676,-1.2132,-1.1487,-1.2507,-1.5423,-1.4716,-1.4716,-1.5476,-1.5476,-1.5802,-1.6493,-1.6354,-1.6723,-1.74,-1.7054,-1.6898,-1.6737,-1.6442,-1.6099,-1.5784,-1.5784,-1.5784,-1.5784,-1.5784,-1.5784,-1.5784,-0.0056,-0.0481,-0.0903,-0.0903,-0.1349,-0.1729,-0.1792,-0.1913,-0.209,-0.234,-0.225,-0.1988,-0.1517,-0.1218,-0.0781,0.0,0.0,0.0,0.0,0.0,0.0,0.0,0.0,0.0,0.0,0.0,0.0,0.0,0.0,0.0,0.0,0.0,0.0,0.0,0.0,0.0,0.0,0.0,0.0,0.0,0.0,0.0,0.0,0.0,0.0,0.0,0.0,-0.0559,-0.1286,-0.128,-0.201,-0.3009,-0.3539,-0.3643,-0.3683,-0.4332,-0.4211,0.0,0.0,0.0,0.0,0.0,0.0,0.0,0.0,0.0,-0.749,-0.8856,-1.005,-1.1334,-1.2901,-1.2729,-1.2524,-1.3017,-1.3357,-1.3488,-1.3488,-1.4609,-1.5439,-1.5439,-1.5635,-1.5945,-1.6295,-1.6375,-1.6119,-1.5472,-1.4978,-1.3768,-1.1638,-1.1,-1.0781,-1.1105,-1.0836,-1.1542,-1.3264,-1.2999,-1.2999,-1.3318,-1.3588,-1.4288,-1.5417,-1.5689,-1.6499,-1.7569,-1.7326,-1.7199,-1.7159,-1.6563,-1.6132,-1.5912,-1.5852,-1.5784,-1.5784,-1.5784,-1.5784,-1.5784,-0.0056,-0.0481,-0.0903,-0.0903,-0.115,-0.1452,-0.1759,-0.1913,-0.1972,-0.1888,-0.1969,-0.1763,-0.1053,-0.0951,-0.0677,-0.0044,0.0,0.0,0.0,0.0,0.0,0.0,0.0,0.0,0.0,0.0,0.0,0.0,0.0,0.0,0.0,0.0,0.0,0.0,0.0,0.0,0.0,0.0,0.0,0.0,0.0,0.0,0.0,0.0,0.0,0.0,0.0,-0.055,-0.1283,-0.1155,-0.225,-0.3638,-0.3416,-0.3897,-0.455,-0.4501,0.0,-0.4227,-0.4518,-0.4806,-0.5103,-0.5569,-0.5701,-0.5969,0.0,0.0,-0.8615,-0.9155,-1.0243,-1.1202,-1.1636,-1.1677,-1.1701,-1.2009,-1.2124,-1.2139,-1.2139,-1.3247,-1.4118,-1.4118,-1.5092,-1.5945,-1.6295,-1.6506,-1.6743,-1.6967,-1.4824,-1.3347,-1.3048,-1.0566,-0.9754,-1.1051,-0.9809,-1.0457,-1.3264,-1.2023,-1.2023,-1.3324,-1.4556,-1.5257,-1.5417,-1.677,-1.7417,-1.7569,-1.7326,-1.7199,-1.7159,-1.6563,-1.6301,-1.6192,-1.5932,-1.5784,-1.5784,-1.5784,-1.5784,-1.5784,-0.0291,-0.0715,-0.1083,-0.0925,-0.1116,-0.1408,-0.1748,-0.1846,-0.1837,-0.1699,-0.1488,-0.1207,-0.0834,-0.0539,-0.0281,-0.0021,-0.1056,0.0,0.0,0.0,0.0,0.0,0.0,0.0,0.0,0.0,0.0,0.0,0.0,0.0,0.0,0.0,0.0,0.0,0.0,0.0,0.0,0.0,0.0,0.0,0.0,0.0,0.0,0.0,0.0,0.0,0.0,-0.0574,0.0,0.0,-0.2766,-0.3864,-0.4144,-0.4434,-0.4677,-0.4641,-0.4616,0.0,-0.5209,-0.5491,0.0,0.0,-0.639,-0.6654,-0.7136,-0.768,-0.8337,-0.9388,-1.0061,-1.0738,-1.1591,-1.1129,-1.0674,0.0,-1.0779,-1.0779,-1.0779,-1.1945,-1.2721,-1.2721,-1.3204,-1.434,-1.6331,-1.6633,-1.6901,-1.742,-1.6436,-1.5043,-1.3372,-1.2132,-1.0945,-0.986,-0.921,-0.9482,-1.0726,-1.0135,-1.0131,-1.0731,-1.1324,-1.2077,-1.294,-1.4395,-1.6015,-1.7575,-1.7507,-1.7353,-1.7166,-1.67,-1.6426,-1.6295,-1.5945,-1.5784,-1.5784,-1.5784,-1.5784,-1.5784,-0.0446,-0.0747,-0.1016,-0.0914,-0.0983,-0.1161,-0.1502,-0.1556,-0.1489,-0.1289,-0.0978,-0.069,-0.0532,-0.0202,-0.007,-0.0233,-0.1446,-0.2352,0.0,0.0,0.0,0.0,0.0,0.0,0.0,0.0,0.0,0.0,0.0,0.0,0.0,0.0,0.0,0.0,0.0,0.0,0.0,0.0,0.0,0.0,0.0,0.0,0.0,0.0,0.0,0.0,0.0,-0.0531,0.0,0.0,-0.2943,-0.3798,-0.4477,-0.4684,-0.4646,-0.4728,-0.4918,-0.5206,-0.5674,0.0,0.0,-0.6573,-0.6966,-0.7233,-0.727,-0.7529,-0.8034,-0.9099,-0.9372,-0.9752,-1.0632,-1.0092,-0.946,-0.946,-0.946,-0.946,-0.946,-1.0583,-1.1365,-1.1365,-1.1707,-1.2834,-1.527,-1.582,-1.6309,-1.6885,-1.6924,-1.583,-1.3426,-1.2891,-1.1538,-0.8992,-0.8885,-0.8885,-0.8885,-0.8885,-0.8885,-0.8885,-0.932,-1.0076,-1.116,-1.3048,-1.5043,-1.7041,-1.7417,-1.7514,-1.73,-1.6947,-1.666,-1.6359,-1.6066,-1.5905,-1.5784,-1.5784,-1.5784,-1.5784,-0.0401,-0.0412,-0.0523,-0.0847,-0.0635,-0.0546,-0.0881,-0.0931,-0.0811,-0.0485,-0.0428,-0.0314,-0.005,-0.0017,-0.0228,-0.0814,-0.1679,-0.2516,-0.3232,-0.4157,0.0,0.0,0.0,0.0,0.0,0.0,0.0,0.0,0.0,0.0,0.0,0.0,0.0,0.0,0.0,0.0,0.0,0.0,0.0,0.0,0.0,0.0,0.0,0.0,0.0,0.0,0.0,0.0,0.0,0.0,-0.2644,-0.3503,-0.4041,-0.4362,0.0,-0.4823,-0.5223,0.0,0.0,0.0,-0.6566,-0.6964,-0.7353,-0.7621,-0.776,-0.7864,-0.7978,-0.8031,-0.8035,-0.8088,-0.8088,-0.8088,-0.8038,-0.8038,-0.8038,-0.8038,-0.8038,-0.9217,-1.0047,-1.0047,-1.117,-1.2085,0.0,-1.3628,-1.4639,-1.5231,-1.5157,-1.4575,-1.3362,-1.1919,-1.0457,-0.8937,-0.8885,-0.8885,-0.8885,-0.8885,-0.8885,-0.894,-1.0347,-1.1051,-1.1214,-1.4019,-1.5364,-1.5524,-1.6988,-1.7582,-1.7549,-1.7306,-1.7012,-1.666,-1.6373,-1.6086,-1.5784,-1.5784,-1.5784,-1.5784,-0.0401,-0.0401,-0.0434,-0.0546,-0.0324,-0.0168,-0.028,-0.0647,-0.0774,-0.0443,-0.0245,0.0,0.0,0.0,0.0,0.0,-0.1015,-0.1582,-0.1831,-0.2596,0.0,0.0,0.0,0.0,0.0,0.0,0.0,0.0,0.0,0.0,0.0,0.0,0.0,0.0,0.0,0.0,0.0,0.0,0.0,0.0,0.0,0.0,-0.0071,-0.0648,-0.0516,-0.0061,0.0,0.0,0.0,0.0,0.0,0.0,-0.4184,0.0,0.0,-0.5095,0.0,0.0,0.0,0.0,-0.7,-0.7356,-0.7594,-0.778,-0.788,-0.7955,-0.7961,-0.7909,-0.7889,-0.7858,-0.7767,-0.7824,-0.7889,-0.7889,-0.7924,-0.7988,-0.7988,-0.8524,-0.8801,-0.8691,-0.9168,0.0,0.0,0.0,0.0,-1.3681,-1.3713,-1.3133,-1.1905,-1.1378,-1.0402,-0.8937,-0.8885,-0.8885,-0.8885,-0.8885,-0.8885,-0.8885,-0.9427,-1.0131,-1.1105,-1.2077,-1.3583,-1.5417,-1.5902,-1.6717,-1.7562,-1.732,-1.6974,-1.6673,-1.6386,-1.6092,-1.5784,-1.5784,-1.5784,-1.5784,-0.0379,-0.0324,-0.029,-0.0379,-0.0179,0.0,0.0,0.0,0.0,0.0,0.0,0.0,0.0,0.0,0.0,0.0,0.0,-0.1451,-0.1715,0.0,0.0,0.0,0.0,0.0,0.0,0.0,0.0,0.0,0.0,0.0,0.0,0.0,0.0,0.0,0.0,0.0,0.0,0.0,0.0,0.0,0.0,0.0,-0.0802,-0.1102,-0.0866,0.0,0.0,0.0,0.0,0.0,0.0,0.0,0.0,0.0,0.0,0.0,0.0,-0.6162,0.0,-0.7037,-0.7309,-0.7668,-0.7824,-0.7919,-0.7968,-0.7948,-0.7867,-0.7767,-0.7692,-0.7607,-0.7461,-0.7509,-0.7607,-0.7719,-0.7862,-0.7948,-0.8106,-0.8252,-0.8309,-0.8211,-0.8286,-0.8306,0.0,0.0,0.0,-1.2159,-1.2618,-1.2423,-1.1241,-1.1147,-1.0493,-0.9071,-0.9015,-0.8991,-0.8885,-0.8885,-0.8885,-0.8885,-0.8885,-0.9372,-1.0351,-1.0836,-1.2132,-1.3906,-1.4931,-1.563,-1.6109,-1.7003,-1.6805,-1.5966,-1.6295,-1.6179,-1.5784,-1.5784,-1.5784,-1.5784,-0.0335,-0.018,-0.0079,0.0,0.0,0.0,0.0,0.0,0.0,0.0,0.0,0.0,0.0,0.0,0.0,0.0,0.0,0.0,0.0,0.0,0.0,0.0,0.0,0.0,-0.4823,-0.4881,0.0,0.0,0.0,0.0,0.0,0.0,0.0,0.0,0.0,0.0,0.0,0.0,0.0,0.0,0.0,0.0,-0.2083,-0.1456,0.0,0.0,0.0,0.0,0.0,0.0,0.0,0.0,0.0,0.0,0.0,0.0,0.0,-0.6603,-0.7001,-0.7282,-0.7506,-0.7884,-0.7988,-0.7988,-0.7978,-0.7909,-0.7756,-0.7597,-0.7444,-0.7285,0.0,0.0,-0.7189,-0.7519,-0.7716,-0.7936,-0.8231,-0.8397,-0.8489,0.0,0.0,0.0,0.0,0.0,0.0,-1.0633,0.0,-1.228,-1.1239,-1.1212,-1.0603,-0.9267,-0.921,-0.9083,-0.8885,-0.8885,-0.8885,-0.8885,-0.8885,-0.8885,-0.8937,-1.0347,-1.1055,-1.1269,-1.4014,-1.4449,-1.3534,-1.6234,-1.6231,-1.4648,-1.6035,-1.6241,-1.5784,-1.5784,-1.5784,-1.5784,0.0,0.0,0.0,0.0,0.0,0.0,0.0,0.0,0.0,0.0,0.0,0.0,0.0,0.0,0.0,0.0,0.0,0.0,0.0,0.0,0.0,0.0,0.0,0.0,0.0,0.0,0.0,0.0,0.0,0.0,0.0,0.0,0.0,0.0,0.0,0.0,0.0,0.0,0.0,0.0,0.0,0.0,-0.1502,0.0,0.0,0.0,0.0,0.0,0.0,0.0,0.0,0.0,0.0,0.0,-0.5962,0.0,0.0,-0.7044,-0.739,-0.7672,-0.7847,-0.7961,-0.7988,-0.7961,-0.7896,-0.7756,-0.755,-0.7177,-0.698,-0.6756,-0.6343,0.0,0.0,-0.7058,-0.7692,0.0,-0.831,-0.8489,0.0,0.0,0.0,-0.8652,-0.8652,-0.9075,0.0,0.0,-1.0811,-1.1025,-0.9811,-0.9824,-0.9663,-0.9214,-0.921,-0.9083,-0.8885,-0.8885,-0.8885,-0.8885,-0.8885,-0.8885,-0.894,-0.9265,-1.0076,-1.116,-1.186,-1.2615,-1.3372,-1.4073,-1.4483,-1.4603,-1.4907,-1.5337,-1.5784,-1.5784,-1.5784,-1.5784,0.0,0.0,0.0,0.0,0.0,0.0,0.0,0.0,0.0,0.0,0.0,0.0,0.0,0.0,0.0,0.0,0.0,0.0,0.0,0.0,0.0,0.0,0.0,0.0,0.0,0.0,0.0,0.0,0.0,0.0,0.0,0.0,0.0,0.0,0.0,0.0,0.0,0.0,0.0,0.0,0.0,0.0,0.0,0.0,0.0,0.0,0.0,0.0,0.0,0.0,0.0,-0.5627,-0.5849,-0.6132,-0.6428,-0.6698,0.0,-0.7394,-0.7631,-0.7862,-0.7988,-0.7988,-0.7938,-0.7882,-0.7668,-0.7455,-0.716,-0.66,-0.6413,0.0,-0.5806,0.0,0.0,0.0,0.0,0.0,-0.8326,-0.8564,-0.8703,0.0,-0.8815,0.0,-0.8906,-0.9594,-0.9833,0.0,-0.996,-1.0092,-0.9402,-0.9435,-0.9442,-0.9357,-0.9347,-0.915,-0.8885,-0.8885,-0.8885,-0.8885,-0.8885,-0.8885,-0.8885,-0.8885,-0.9375,-1.0186,0.0,-1.1214,-1.1542,-1.3426,-1.401,-1.3784,-1.5008,-1.559,-1.5784,-1.5784,-1.5784,-1.5784,0.0,0.0,0.0,0.0,0.0,0.0,0.0,0.0,0.0,0.0,0.0,0.0,0.0,0.0,0.0,0.0,0.0,0.0,0.0,0.0,0.0,0.0,0.0,0.0,0.0,0.0,0.0,0.0,0.0,0.0,0.0,0.0,0.0,0.0,0.0,0.0,0.0,0.0,0.0,0.0,0.0,0.0,0.0,0.0,0.0,0.0,0.0,0.0,0.0,0.0,-0.5739,-0.5973,-0.632,-0.6671,-0.7001,-0.7142,-0.7417,-0.7658,-0.7801,-0.7887,-0.7988,-0.7988,-0.7909,-0.7706,-0.7407,-0.7082,-0.6633,-0.6054,0.0,-0.562,-0.5358,0.0,-0.6104,-0.6573,0.0,-0.7807,-0.8397,-0.8615,-0.8767,-0.8865,-0.9049,-0.9197,-0.9234,-1.0433,-1.0709,-0.9552,-0.9422,-0.9469,-0.9602,-0.9608,-0.9591,-0.9551,-0.9401,-0.9198,-0.8885,-0.8885,-0.8885,-0.8885,-0.8885,-0.8885,-0.8885,-0.8885,-0.8885,-0.8992,-1.0241,0.0,-0.921,-1.3205,-1.3846,-1.2659,-1.5368,-1.6143,-1.5784,-1.5784,-1.5784,-1.5784,0.0,0.0,0.0,0.0,0.0,0.0,0.0,0.0,0.0,0.0,0.0,0.0,0.0,0.0,0.0,0.0,0.0,0.0,0.0,0.0,0.0,0.0,0.0,0.0,0.0,0.0,0.0,0.0,0.0,0.0,0.0,0.0,0.0,0.0,0.0,0.0,0.0,0.0,0.0,0.0,0.0,0.0,0.0,0.0,0.0,0.0,0.0,0.0,0.0,0.0,-0.6013,-0.6597,-0.6895,-0.7214,-0.7512,-0.7651,-0.7733,-0.7807,-0.7911,-0.7968,-0.7988,-0.7988,-0.7834,-0.7556,-0.7206,-0.6763,0.0,0.0,0.0,-0.5127,-0.486,-0.5372,0.0,-0.6323,0.0,0.0,0.0,0.0,-0.8767,0.0,0.0,0.0,0.0,0.0,0.0,0.0,0.0,-0.9581,-0.9608,-0.9608,-0.9493,-0.9299,-0.9093,-0.8935,-0.8885,-0.8885,-0.8885,-0.8885,-0.8885,-0.8885,-0.8885,-0.8885,-0.8885,-0.894,-0.9154,0.0,-0.9047,-1.1055,-1.2051,-1.2551,-1.4242,-1.5239,-1.5784,-1.5784,-1.5784,-1.5784,0.0,0.0,0.0,0.0,0.0,0.0,0.0,0.0,0.0,0.0,-0.0535,-0.1095,-0.1638,-0.1969,0.0,0.0,0.0,0.0,0.0,0.0,0.0,0.0,0.0,0.0,0.0,0.0,0.0,0.0,0.0,0.0,0.0,0.0,0.0,0.0,0.0,0.0,0.0,0.0,0.0,0.0,0.0,0.0,0.0,0.0,0.0,0.0,0.0,0.0,0.0,0.0,-0.547,-0.6444,-0.693,-0.7353,-0.7628,-0.777,-0.7811,-0.7845,-0.7948,-0.7988,-0.7988,-0.7988,-0.7756,-0.736,-0.6898,0.0,0.0,0.0,0.0,-0.4833,-0.4641,0.0,0.0,0.0,0.0,0.0,0.0,0.0,0.0,0.0,0.0,0.0,0.0,0.0,0.0,0.0,0.0,-0.9608,-0.9608,-0.9534,-0.9388,-0.9217,-0.9086,-0.9015,-0.8885,-0.8885,-0.8885,-0.8885,-0.8885,-0.8885,-0.8885,-0.8885,-0.8885,-0.8885,-0.8885,0.0,-1.0123,-1.1428,-1.2585,-1.3671,-1.4958,-1.5615,-1.5784,-1.5784,-1.5784,-1.5784,0.0,0.0,0.0,0.0,0.0,0.0,0.0,0.0,0.0,0.0,-0.0408,-0.0928,-0.1542,-0.2055,-0.2197,0.0,0.0,0.0,0.0,0.0,0.0,0.0,0.0,0.0,0.0,0.0,0.0,0.0,0.0,0.0,0.0,0.0,0.0,0.0,0.0,0.0,0.0,0.0,0.0,0.0,0.0,0.0,0.0,0.0,0.0,0.0,0.0,0.0,0.0,0.0,-0.4675,-0.5728,-0.6518,-0.7126,-0.7522,-0.7634,-0.7736,-0.7838,-0.7911,-0.7965,-0.7988,-0.7988,-0.7678,-0.7173,-0.6644,-0.6074,0.0,0.0,-0.4663,-0.4634,-0.4511,0.0,0.0,0.0,0.0,0.0,0.0,0.0,0.0,0.0,0.0,0.0,0.0,0.0,0.0,0.0,0.0,0.0,-0.951,-0.9398,-0.9262,-0.9169,-0.9163,-0.9052,-0.8885,-0.8885,-0.8885,-0.8885,-0.8885,-0.8885,-0.8885,-0.8885,-0.8885,-0.8885,-0.8885,0.0,0.0,-1.191,-1.2909,-1.3858,-1.5326,-1.5693,-1.5439,-1.5683,-1.5784,-1.5784,0.0,0.0,0.0,0.0,0.0,0.0,0.0,0.0,0.0,0.0,-0.0049,-0.03,-0.0923,-0.1516,-0.1852,0.0,0.0,0.0,0.0,0.0,0.0,0.0,0.0,0.0,0.0,0.0,0.0,0.0,0.0,0.0,0.0,0.0,0.0,0.0,0.0,0.0,0.0,0.0,0.0,0.0,0.0,0.0,0.0,0.0,0.0,0.0,0.0,0.0,0.0,0.0,0.0,-0.4382,-0.5411,-0.64,-0.7139,-0.7152,0.0,0.0,-0.7828,-0.7884,-0.7988,-0.7988,-0.755,-0.6997,-0.6576,0.0,0.0,0.0,-0.4607,-0.4508,-0.4491,-0.4638,0.0,0.0,0.0,0.0,0.0,0.0,0.0,0.0,0.0,0.0,0.0,0.0,0.0,0.0,0.0,0.0,-0.9251,-0.9238,-0.9106,-0.8908,-0.8902,-0.8895,-0.8885,-0.8885,-0.8885,-0.8885,-0.8885,-0.8885,-0.8885,-0.8885,-0.8885,-0.8885,-0.8885,0.0,0.0,-1.0531,-1.0975,-1.1039,-1.3507,-1.4296,-1.4214,-1.5384,-1.5784,-1.5784,0.0,0.0,0.0,0.0,0.0,0.0,0.0,0.0,0.0,0.0,0.0,-0.0229,-0.0832,-0.1109,-0.1248,-0.1259,0.0,0.0,0.0,0.0,0.0,0.0,0.0,0.0,0.0,0.0,0.0,0.0,0.0,0.0,0.0,0.0,0.0,0.0,0.0,0.0,0.0,0.0,0.0,0.0,0.0,0.0,0.0,0.0,0.0,0.0,0.0,0.0,0.0,0.0,0.0,0.0,-0.4255,-0.5173,0.0,0.0,-0.7085,-0.7422,-0.7736,-0.7874,-0.7968,-0.7877,-0.7473,-0.6933,-0.6349,0.0,0.0,-0.4692,-0.4532,-0.4491,-0.4491,-0.4539,-0.475,0.0,-0.5393,0.0,0.0,0.0,0.0,0.0,0.0,0.0,0.0,0.0,0.0,0.0,0.0,0.0,-0.9028,-0.9025,-0.8998,-0.8885,-0.8885,-0.8885,-0.8885,-0.8885,-0.8885,-0.8885,-0.8885,-0.8885,-0.8885,-0.8885,-0.8885,-0.8885,-0.8885,0.0,0.0,-1.0473,-1.1009,-1.1678,-1.2503,-1.3288,-1.3968,-1.4459,-1.514,-1.5784,0.0,0.0,0.0,0.0,0.0,0.0,0.0,0.0,0.0,0.0,0.0,-0.0153,-0.0575,-0.0786,-0.0825,-0.0642,-0.173,0.0,0.0,0.0,0.0,0.0,0.0,0.0,0.0,0.0,0.0,0.0,0.0,0.0,0.0,0.0,0.0,0.0,0.0,0.0,0.0,0.0,0.0,0.0,0.0,0.0,0.0,0.0,0.0,0.0,0.0,0.0,0.0,0.0,0.0,0.0,0.0,0.0,0.0,0.0,-0.6675,-0.7045,-0.7451,-0.7726,-0.7882,-0.7777,-0.7377,-0.6795,0.0,0.0,-0.5167,-0.4604,-0.4491,-0.4491,-0.4491,-0.4491,-0.4607,0.0,-0.503,-0.5335,-0.6184,0.0,0.0,0.0,0.0,0.0,0.0,0.0,0.0,0.0,0.0,0.0,0.0,-0.8885,-0.8885,-0.8885,-0.8885,-0.8885,-0.8885,-0.8885,-0.8885,-0.8885,-0.8885,-0.8885,-0.8885,-0.8885,-0.8858,-0.8817,-0.8817,0.0,0.0,-0.9871,-1.034,-1.1207,-1.13,-1.194,-1.2861,-1.3632,-1.4459,-1.5242,0.0,0.0,0.0,0.0,0.0,0.0,0.0,0.0,0.0,0.0,0.0,0.0,0.0,-0.0536,-0.0667,-0.0072,-0.1122,0.0,0.0,0.0,0.0,0.0,0.0,0.0,0.0,0.0,0.0,0.0,0.0,0.0,0.0,0.0,0.0,0.0,0.0,0.0,0.0,0.0,0.0,0.0,0.0,0.0,-0.1118,0.0,0.0,0.0,0.0,0.0,0.0,0.0,0.0,0.0,0.0,0.0,0.0,0.0,-0.6125,-0.6739,-0.6852,-0.7265,-0.7604,-0.76,-0.7149,-0.6586,0.0,-0.5531,-0.4975,-0.4583,-0.4491,-0.4491,-0.4491,-0.4491,-0.4542,-0.467,-0.5098,0.0,0.0,0.0,0.0,0.0,0.0,0.0,0.0,0.0,0.0,0.0,0.0,0.0,0.0,-0.8885,-0.8885,-0.8885,-0.8885,-0.8885,-0.8885,-0.8885,-0.8885,-0.8885,-0.8885,-0.8885,-0.8885,-0.8885,-0.8801,0.0,0.0,0.0,0.0,-0.8381,-0.8323,-0.8456,-0.9581,-1.0047,-1.0337,-1.2958,-1.3926,-1.392,0.0,0.0,0.0,0.0,0.0,0.0,0.0,0.0,0.0,0.0,0.0,0.0,0.0,-0.0162,-0.0206,-0.0023,-0.0722,0.0,0.0,0.0,0.0,0.0,0.0,0.0,0.0,0.0,0.0,0.0,0.0,0.0,0.0,0.0,0.0,0.0,0.0,0.0,0.0,0.0,0.0,0.0,0.0,-0.198,-0.1034,0.0,0.0,0.0,0.0,0.0,0.0,0.0,0.0,0.0,0.0,0.0,0.0,-0.4887,0.0,0.0,-0.6236,-0.6566,-0.678,-0.6576,-0.6305,-0.5969,-0.5484,-0.516,-0.4887,-0.4563,-0.4491,-0.4491,-0.4491,-0.4491,-0.4675,-0.5213,0.0,0.0,0.0,0.0,0.0,0.0,0.0,0.0,0.0,0.0,0.0,0.0,0.0,0.0,0.0,-0.8885,-0.8885,-0.8885,-0.8885,-0.8885,-0.8885,-0.8885,-0.8885,-0.8885,-0.8885,-0.8828,-0.8781,-0.8781,-0.8699,0.0,0.0,0.0,0.0,-0.834,-0.8208,-0.8106,-0.8499,-0.9217,-1.0096,-1.0921,-1.1794,-1.2528,0.0,0.0,0.0,0.0,0.0,0.0,0.0,0.0,0.0,0.0,0.0,0.0,0.0,0.0,0.0,0.0,-0.0337,0.0,0.0,0.0,0.0,0.0,0.0,0.0,0.0,0.0,0.0,0.0,0.0,0.0,0.0,0.0,0.0,0.0,0.0,0.0,0.0,0.0,0.0,0.0,-0.2093,-0.134,-0.0643,0.0,0.0,0.0,0.0,0.0,0.0,0.0,0.0,0.0,0.0,0.0,0.0,0.0,-0.4975,-0.544,0.0,-0.5993,-0.6176,-0.5989,-0.5789,-0.5549,-0.5177,-0.4945,-0.4762,-0.4542,-0.4491,-0.4491,-0.4491,-0.4491,-0.4665,-0.5165,-0.5345,0.0,0.0,0.0,0.0,0.0,0.0,0.0,0.0,0.0,0.0,0.0,0.0,0.0,0.0,-0.8885,-0.8885,-0.8885,-0.8885,-0.8885,-0.8885,-0.8885,-0.8885,-0.8885,-0.8824,-0.8804,-0.871,-0.8652,-0.8543,0.0,0.0,0.0,0.0,-0.8184,-0.8126,-0.7988,-0.7988,-0.8528,-0.9312,-0.9805,-1.0485,-1.117,0.0,0.0,0.0,0.0,0.0,0.0,0.0,0.0045,0.005,0.0083,0.0055,0.0059,0.0041,0.0021,0.0,0.0,0.0,0.0,0.0,0.0,0.0,0.0,0.0,0.0,0.0,0.0,0.0,0.0,0.0,0.0,0.0,0.0,0.0,0.0,0.0,0.0,0.0,0.0,0.0,0.0,-0.1368,-0.067,0.0,0.0,0.0,0.0,0.0,0.0,0.0,0.0,0.0,0.0,0.0,0.0,0.0,0.0,0.0,0.0,0.0,-0.5539,-0.5722,-0.5708,-0.5535,-0.5293,-0.5114,-0.487,0.0,-0.4518,-0.4491,-0.4501,-0.4532,-0.4522,-0.458,-0.4765,0.0,0.0,0.0,0.0,0.0,0.0,0.0,0.0,0.0,0.0,0.0,0.0,0.0,0.0,-0.8885,-0.8871,-0.8868,-0.8868,-0.8858,-0.8861,-0.8885,-0.8885,-0.8878,-0.8865,-0.8777,-0.8699,-0.8672,-0.853,-0.8387,0.0,0.0,0.0,0.0,-0.7988,-0.7988,-0.7988,-0.7988,-0.7988,-0.8137,-0.941,-0.9854,-0.9854,0.0,0.0,0.0,0.0,0.0,0.0,0.0,0.0,0.0,0.0,0.0669,0.0527,0.0533,0.021,0.0,0.0,0.0,0.0,0.0,0.0,0.0,0.0,0.0,0.0,0.0,0.0,0.0,0.0,0.0,0.0,0.0,0.0,0.0,0.0,0.0,0.0,0.0,0.0,0.0,0.0,-0.1174,-0.0661,0.0,0.0,0.0,0.0,-0.2255,-0.281,0.0,0.0,0.0,0.0,0.0,0.0,0.0,0.0,-0.4515,-0.4569,-0.4675,0.0,-0.4925,-0.4836,-0.4754,-0.4692,0.0,-0.4593,-0.4535,0.0,0.0,-0.4597,-0.4911,-0.4789,-0.4945,0.0,0.0,0.0,0.0,0.0,0.0,0.0,0.0,0.0,0.0,0.0,0.0,0.0,0.0,-0.8885,-0.8885,-0.8828,-0.8764,-0.8764,-0.8652,-0.8703,-0.8881,-0.8885,-0.8824,-0.8764,-0.8726,-0.8591,-0.8374,-0.8336,-0.8238,0.0,0.0,0.0,-0.7988,-0.7988,-0.7988,-0.7988,-0.7988,-0.7988,-0.8038,-0.8333,-0.8482,-0.8482,0.0,0.0,0.0,0.0,0.0,0.0,0.0,0.0,0.0,0.0,0.0,0.0,0.0,0.0,0.0,0.0,0.0,0.0,0.0,0.0,0.0,0.0,0.0,0.0,0.0,0.0,0.0,0.0,0.0,0.0,0.0,0.0,0.0,0.0,0.0,0.0,0.0,0.0,0.0,0.0,-0.0727,0.0,0.0,0.0,0.0,0.0,-0.2639,-0.3311,0.0,-0.4227,-0.4187,-0.3959,0.0,0.0,0.0,0.0,-0.368,-0.3873,-0.3539,-0.4104,-0.4775,-0.4694,-0.467,-0.467,-0.467,0.0,0.0,0.0,0.0,-0.4586,-0.487,-0.4908,0.0,0.0,0.0,0.0,0.0,0.0,0.0,0.0,0.0,0.0,0.0,0.0,0.0,0.0,0.0,-0.873,-0.873,-0.8652,-0.8604,-0.8604,-0.8526,-0.856,-0.8726,-0.873,-0.8686,-0.8604,-0.854,-0.8425,-0.832,-0.8197,-0.8119,0.0,0.0,0.0,-0.7988,-0.7988,-0.7988,-0.7988,-0.7988,-0.7988,-0.7988,-0.7988,-0.7988,-0.7988,0.0,0.0,0.0,0.0,0.0,0.0,0.0,0.0,0.0,0.0,0.0,0.0,0.0,0.0,0.0,0.0,0.0,0.0,0.0,0.0,0.0,0.0,0.0,0.0,0.0,0.0,0.0,0.0,0.0,0.0,0.0,0.0,-0.0505,0.0,0.0,0.0,0.0,0.0,0.0,-0.0866,-0.0251,0.0,0.0,0.0,0.0,0.0,0.0,0.0,0.0,-0.4056,-0.369,-0.3264,-0.3237,0.0,0.0,0.0,0.0,0.0,-0.2605,-0.3581,-0.4778,-0.4689,-0.4806,-0.4911,-0.4864,0.0,0.0,0.0,0.0,0.0,0.0,0.0,0.0,0.0,0.0,0.0,0.0,0.0,0.0,0.0,0.0,0.0,0.0,0.0,0.0,0.0,0.0,-0.8482,-0.8482,-0.8462,-0.8452,-0.8452,-0.8428,-0.8414,-0.8414,-0.8459,-0.8472,-0.8448,-0.833,-0.831,-0.8231,-0.8099,-0.7988,-0.7988,0.0,0.0,-0.7988,-0.7988,-0.7988,-0.7988,-0.7988,-0.7988,-0.7988,-0.7988,-0.7988,-0.7988,0.0,0.0,0.0,0.0,0.0,0.0,0.0,0.0,0.0,0.0,0.0,0.0,0.0,0.0,0.0,0.0,0.0,0.0,0.0,0.0,0.0,0.0,0.0,0.0,0.0,0.0,0.0,0.0,0.0,0.0,-0.1101,-0.0973,-0.0989,-0.1143,0.0,0.0,0.0,0.0,0.0,-0.0168,0.0,0.0,0.0,0.0,0.0,0.0,0.0,0.0,0.0,-0.3447,-0.3219,-0.3048,-0.2536,0.0,0.0,0.0,0.0,0.0,-0.347,-0.391,-0.4199,-0.3756,-0.4362,-0.5002,-0.4782,0.0,0.0,0.0,0.0,0.0,0.0,0.0,0.0,0.0,0.0,0.0,0.0,0.0,0.0,0.0,0.0,0.0,0.0,0.0,0.0,0.0,0.0,0.0,-0.8482,-0.8367,-0.8354,-0.8354,-0.8177,-0.8056,-0.8056,-0.8357,-0.8421,-0.8354,-0.8333,-0.8201,-0.8025,-0.8002,-0.7988,-0.7988,0.0,-0.7988,-0.7988,-0.7988,-0.7988,-0.7988,-0.7988,-0.7988,-0.7988,-0.7988,-0.7988,-0.7988,0.0,0.0,0.0,0.0,0.0,0.0,0.0,0.0,0.0,0.0,0.0,0.0,0.0,0.0,0.0,0.0,0.0,0.0,0.0,0.0,0.0,0.0,0.0,0.0,0.0,0.0,0.0,0.0,0.0,-0.1488,-0.2045,-0.1917,-0.158,-0.1115,0.0,0.0,0.0,0.0,0.0,0.0,0.0,0.0,0.0,0.0,0.0,0.0,0.0,0.0,0.0,0.0,-0.2555,-0.1962,-0.1696,0.0,0.0,0.0,0.0,0.0,-0.1784,-0.2565,-0.3342,-0.3091,-0.4273,-0.5477,-0.5426,0.0,0.0,0.0,0.0,0.0,0.0,0.0,0.0,0.0,0.0,0.0,0.0,0.0,0.0,0.0,0.0,0.0,0.0,0.0,0.0,0.0,0.0,0.0,-0.8241,-0.818,-0.8147,-0.8147,-0.8025,-0.7988,-0.7988,-0.8174,-0.8211,-0.8147,-0.8147,-0.8109,-0.7988,-0.7988,-0.7988,-0.7988,0.0,-0.7988,-0.7988,-0.7988,-0.7988,-0.7988,-0.7988,-0.7988,-0.7988,-0.7988,-0.7988,-0.7988,0.0,0.0,0.0,0.0,0.0,0.0,0.0,0.0,0.0,0.0,0.0,0.0,0.0,0.0,0.0,0.0,0.0,0.0,0.0,0.0,0.0,0.0,0.0,0.0,0.0,0.0,-0.1392,-0.0999,-0.1576,-0.2199,-0.2857,-0.2795,-0.2243,0.0,0.0,0.0,0.0,0.0,0.0,0.0,0.0,0.0,0.0,0.0,0.0,0.0,0.0,0.0,0.0,0.0,0.0,0.0,0.0,0.0,0.0,-0.0212,-0.0493,-0.0944,-0.0511,-0.1526,-0.2759,-0.2981,-0.4367,-0.5711,-0.5936,0.0,0.0,0.0,0.0,0.0,0.0,0.0,0.0,0.0,0.0,0.0,0.0,0.0,0.0,0.0,0.0,0.0,0.0,0.0,0.0,0.0,0.0,0.0,-0.7988,-0.7988,-0.7988,-0.7988,-0.7988,-0.7988,-0.7988,-0.7988,-0.7988,-0.7988,-0.7988,-0.7988,-0.7988,-0.7988,-0.7988,-0.7988,-0.7988,-0.7988,-0.7988,-0.7988,-0.7988,-0.7988,-0.7988,-0.7988,-0.7988,-0.7988,-0.7988,-0.7988,0.0,0.0,0.0,0.0,0.0,0.0,0.0,0.0,0.0,0.0,0.0,0.0,0.0,0.0,0.0,0.0,0.0,0.0,0.0,0.0,0.0,0.0,0.0,0.0,0.0,-0.1591,-0.1647,-0.0088,-0.233,-0.3392,-0.336,-0.3472,-0.3029,-0.2091,0.0,0.0,0.0,0.0,0.0,0.0,0.0,0.0,0.0,0.0,0.0,0.0,0.0,0.0,0.0,0.0,0.0,0.0,0.0,0.0,-0.079,-0.0184,-0.0441,-0.1006,-0.1394,-0.2076,-0.2936,-0.3848,-0.4629,0.0,-0.5861,-0.5901,0.0,0.0,0.0,0.0,0.0,0.0,0.0,0.0,0.0,0.0,0.0,0.0,0.0,0.0,0.0,0.0,0.0,0.0,0.0,0.0,0.0,0.0,-0.7988,-0.7988,-0.7988,-0.7988,-0.7988,-0.7988,-0.7988,-0.7988,-0.7988,-0.7988,-0.7988,-0.7988,-0.7988,-0.7988,-0.7988,-0.7988,-0.7988,-0.7988,-0.7988,-0.7988,-0.7988,-0.7988,-0.7988,-0.7988,-0.7988,-0.7988,-0.7988,-0.7988,0.0,0.0,0.0,0.0,0.0,0.0,0.0,0.0,0.0,0.0,0.0,0.0,0.0,0.0,0.0,0.0,0.0,0.0,0.0,0.0,0.0,0.0,0.0,-0.0178,-0.054,-0.1831,-0.2201,-0.1556,-0.2543,-0.2903,-0.2636,-0.2315,0.0,0.0,0.0,0.0,0.0,0.0,0.0,0.0,0.0,0.0,0.0,0.0,0.0,0.0,0.0,0.0,0.0,0.0,-0.083,-0.0297,-0.0075,-0.0153,-0.0286,-0.0077,-0.0151,-0.0373,-0.0568,-0.1679,-0.2928,-0.3302,0.0,0.0,0.0,0.0,0.0,0.0,0.0,0.0,0.0,0.0,0.0,0.0,0.0,0.0,0.0,0.0,0.0,0.0,0.0,0.0,0.0,0.0,0.0,0.0,0.0,0.0,0.0,-0.7988,-0.7988,-0.7988,-0.7988,-0.7988,-0.7988,-0.7988,-0.7988,-0.7988,-0.7988,-0.7988,-0.7988,-0.7988,-0.7988,-0.7988,-0.7988,-0.7988,-0.7988,-0.7988,-0.7988,-0.7988,-0.7988,-0.7988,-0.7988,-0.7988,-0.7988,-0.7988,0.0,0.0,0.0,0.0,0.0,0.0,0.0,0.0,0.0,0.0,0.0,0.0,0.0,0.0,0.0,0.0,0.0,0.0,0.0,0.0,0.0,0.0,0.0,-0.0294,-0.0941,-0.1684,-0.2144,-0.2337,-0.2474,-0.2413,-0.2193,0.0,0.0,0.0,0.0,0.0,0.0,0.0,0.0,0.0,-0.0202,-0.0171,0.0,0.0,0.0,0.0,0.0,0.0,0.0,0.0,-0.0494,0.0,0.0,0.0,0.0,0.0,0.0,0.0,0.0,-0.1351,-0.2807,0.0,0.0,0.0,0.0,0.0,0.0,0.0,0.0,0.0,0.0,0.0,0.0,0.0,0.0,0.0,0.0,0.0,0.0,0.0,0.0,0.0,0.0,0.0,0.0,0.0,0.0,0.0,0.0,-0.7988,-0.7988,-0.7988,-0.7988,-0.7988,-0.7988,-0.7988,-0.7988,-0.7988,-0.7988,-0.7988,-0.7988,-0.7988,-0.7988,-0.7988,-0.7988,-0.7988,-0.7988,-0.7988,-0.7988,-0.7988,-0.7988,-0.7988,-0.7988,-0.7988,-0.7988,-0.7988,0.0,0.0,0.0,0.0,0.0,0.0,0.0,0.0,0.0,0.0,0.0,0.0,0.0,0.0,0.0,0.0,0.0,0.0,0.0,0.0,0.0,0.0,0.0,-0.0343,-0.1093,-0.1099,-0.1401,-0.2006,-0.2131,-0.2188,-0.2174,-0.1424,0.0,0.0,0.0,0.0,0.0,0.0,0.0,0.0,-0.0639,-0.0524,-0.0071,0.0,0.0,0.0,0.0,0.0,0.0,0.0,-0.0487,0.0,0.0,0.0,0.0,0.0,0.0,0.0,0.0,-0.1232,-0.2582,0.0,0.0,0.0,0.0,0.0,0.0,0.0,0.0,0.0,0.0,0.0,0.0,0.0,0.0,0.0,0.0,0.0,0.0,0.0,0.0,0.0,0.0,0.0,0.0,0.0,0.0,0.0,0.0,-0.7988,-0.7988,-0.7988,-0.7988,-0.7988,-0.7988,-0.7988,-0.7988,-0.7988,-0.7988,-0.7988,-0.7988,-0.7988,-0.7988,-0.7988,-0.7988,-0.7988,-0.7988,-0.7988,-0.7988,-0.7988,-0.7988,-0.7988,-0.7988,-0.7988,-0.7988,-0.7988,0.0,0.0,0.0,0.0,0.0,0.0,0.0,0.0,0.0,0.0,0.0,0.0,0.0,0.0,0.0,0.0,0.0,0.0,0.0,0.0,0.0,0.0,0.0,0.0,0.0,0.0,-0.1874,-0.2152,-0.1143,-0.0926,0.0,0.0,0.0,-0.0308,0.0,0.0,0.0,0.0,0.0,0.0,-0.0201,-0.0171,-0.0072,0.0,0.0,0.0,0.0,0.0,0.0,0.0,0.0,0.0,0.0,0.0,0.0,0.0,0.0,0.0,0.0,-0.1424,0.0,0.0,0.0,0.0,0.0,0.0,0.0,0.0,0.0,0.0,0.0,0.0,0.0,0.0,0.0,0.0,0.0,0.0,0.0,0.0,0.0,0.0,0.0,0.0,0.0,0.0,0.0,0.0,0.0,-0.7988,-0.7988,-0.7988,-0.7988,-0.7988,-0.7988,-0.7988,-0.7988,-0.7988,-0.7988,-0.7988,-0.7988,-0.7988,-0.7988,-0.7988,-0.7988,-0.7988,-0.7988,-0.7988,-0.7988,-0.7988,-0.7988,-0.7988,-0.7988,-0.7988,-0.7988,-0.7988,0.0,0.0,0.0,0.0,0.0,0.0,0.0,0.0,0.0,0.0,0.0,0.2696,0.0,0.0,0.0,0.0,0.0,0.0,0.0,0.0,0.0,0.0,0.0,0.0,0.0,-0.0987,-0.124,0.0,0.0,0.0,0.0,0.0,0.0,0.0,0.0,0.0,0.0,0.0,0.0,0.0,-0.0273,-0.0219,-0.0072,0.0,0.0,0.0,0.0,0.0,0.0,0.0,0.0,0.0,0.0,0.0,-0.005,-0.0361,-0.0229,-0.0164,-0.087,0.0,0.0,0.0,0.0,0.0,0.0,0.0,0.0,0.0,0.0,0.0,0.0,0.0,0.0,0.0,0.0,0.0,0.0,0.0,0.0,0.0,0.0,0.0,0.0,0.0,0.0,0.0,0.0,0.0,0.0,-0.7988,-0.7988,-0.7988,-0.7988,-0.7988,-0.7988,-0.7988,-0.7988,-0.7988,-0.7988,-0.7988,-0.7988,-0.7988,-0.7988,-0.7988,-0.7988,-0.7988,-0.7988,-0.7988,-0.7988,-0.7988,-0.7988,-0.7988,-0.7988,-0.7988,-0.7988,-0.7988,0.0,0.0,0.2498,0.2498,0.0,0.0,0.0,0.0,0.0,0.0,0.2696,0.2696,0.0,0.0,0.0,0.2047,0.0,0.0,0.0,0.0,0.0,0.0,0.0,0.0,0.0,0.0,0.0,0.0,0.0,0.0,0.0,0.0,0.0,0.0,0.0,0.0,0.0,0.0,0.0,0.0,-0.0603,-0.0501,-0.0072,-0.0619,0.0,0.0,0.0,0.0,0.0,0.0,0.0,0.0,0.0,0.0,-0.0137,-0.0868,-0.0616,-0.0481,-0.2221,0.0,0.0,0.0,0.0,0.0,0.0,0.0,0.0,0.0,0.0,0.0,0.0,0.0,0.0,0.0,0.0,0.0,0.0,0.0,0.0,0.0,0.0,0.0,0.0,0.0,0.0,0.0,0.0,0.0,0.0,-0.7988,-0.7988,-0.7988,-0.7988,-0.7988,-0.7988,-0.7988,-0.7988,-0.7988,-0.7988,-0.7982,-0.7968,-0.7982,-0.7988,-0.7988,-0.7988,-0.7988,-0.7988,-0.7988,-0.7988,-0.7988,-0.7975,-0.7968,-0.7968,-0.7955,-0.7948,-0.7948,0.0,0.0,0.2498,0.2498,0.0,0.0,0.0,0.0,0.2696,0.2696,0.2696,0.2696,0.2696,0.2696,0.0,0.2047,0.1997,0.0,0.0,0.0,0.0,0.0,0.0,0.0,0.0,0.0,0.0,0.0,0.0,0.0,0.0,0.0,0.0,0.0,0.0,0.0,0.0,0.0,0.0,0.0,-0.0144,-0.0119,-0.0024,-0.0143,-0.0116,0.0,0.0,0.0,0.0,0.0,0.0,0.0,0.0,0.0,-0.0117,-0.0754,-0.0913,-0.1111,0.0,0.0,0.0,0.0,0.0,0.0,0.0,0.0,0.0,0.0,0.0,0.0,0.0,0.0,0.0,0.0,0.0,0.0,0.0,0.0,0.0,0.0,0.0,0.0,0.0,0.0,0.0,0.0,0.0,0.0,-0.7988,-0.7988,-0.7988,-0.7988,-0.7988,-0.7988,-0.7988,-0.7988,-0.7988,0.0,-0.7988,-0.7928,-0.7865,-0.7934,-0.7988,-0.7988,-0.7988,-0.7988,-0.7988,-0.7988,-0.7988,-0.7978,-0.7909,-0.7862,-0.7845,-0.7736,-0.7695,-0.7695,0.0,0.0,0.0,0.0,0.0,0.0,0.0,0.0,0.2696,0.2696,0.2696,0.2696,0.2696,0.2497,0.0,0.0,0.1795,0.1392,0.0,0.0,0.0,0.0,0.0,0.0,0.0,0.0,0.0,0.0,0.0,0.0,0.0,0.0,0.0,0.0,0.0,0.0,0.0,0.0,0.0,0.0,0.0,0.0,0.0,0.0,0.0,0.0,0.0,0.0,0.0,0.0,0.0,0.0,0.0,0.0,-0.0139,-0.0808,-0.0791,-0.0862,0.0,0.0,0.0,0.0,0.0,0.0,0.0,0.0,0.0,0.0,0.0,0.0,0.0,0.0,0.0,0.0,0.0,0.0,0.0,0.0,0.0,0.0,0.0,0.0,0.0,0.0,0.0,0.0,0.0,-0.7988,-0.7988,-0.7988,-0.7988,-0.7988,-0.7988,-0.7955,-0.788,-0.7955,-0.7921,-0.7831,-0.7896,-0.7851,-0.7716,-0.7862,-0.788,-0.788,-0.788,-0.7892,-0.7828,-0.7828,-0.7828,-0.7821,-0.774,-0.7709,-0.7699,-0.7628,-0.76,-0.76,0.0,0.0,0.0,0.0,0.0,0.0,0.0,0.0,0.0,0.2696,0.2696,0.2696,0.2696,0.2347,0.2064,0.0,0.0,0.0,0.0723,0.0,0.0,0.0,0.0,0.0,0.0,0.0,0.0,0.0,0.0,0.0,0.0,0.0,0.0,0.0,0.0,0.0,0.0,0.0,0.0,0.0,0.0,0.0,0.0,0.0,0.0,0.0,0.0,0.0,0.0,0.0,0.0,0.0,0.0,0.0,-0.0134,-0.0854,-0.0637,-0.0555,0.0,0.0,0.0,0.0,0.0,0.0,0.0,0.0,0.0,0.0,0.0,0.0,0.0,0.0,0.0,0.0,0.0,0.0,0.0,0.0,0.0,0.0,0.0,0.0,0.0,0.0,0.0,0.0,0.0,-0.7914,-0.7914,-0.7914,-0.7914,-0.7914,-0.7914,-0.7902,-0.7777,-0.785,-0.7841,-0.76,-0.7692,-0.7689,-0.7604,-0.7692,-0.775,-0.7773,-0.7773,-0.7709,-0.76,-0.76,-0.76,-0.7597,-0.757,-0.756,-0.7556,-0.7529,-0.7519,-0.7519,0.0,0.0,0.0,0.0,0.0,0.0,0.0,0.0,0.0,0.0,0.2696,0.2696,0.2696,0.2646,0.2278,0.1471,0.1338,0.1122,0.0,0.0,0.0,0.0,0.0,0.0,0.0,0.0,0.0,0.0,0.0,0.0,0.0,0.0,0.0,0.0,0.0,0.0,0.0,0.0,0.0,0.0,0.0,0.0,0.0,0.0,0.0,0.0,0.0,0.0,0.0,0.0,0.0,0.0,0.0,0.0,0.0,0.0,-0.0928,0.0,0.0,0.0,0.0,0.0,0.0,0.0,0.0,0.0,0.0,0.0,0.0,0.0,0.0,0.0,0.0,0.0,0.0,0.0,0.0,0.0,0.0,0.0,0.0,0.0,0.0,0.0,0.0,0.0,0.0,0.0,-0.7658,-0.7658,-0.7658,-0.7658,-0.7658,-0.7648,-0.7628,-0.7648,-0.7638,-0.7597,-0.7485,-0.7489,-0.7597,-0.7482,-0.7502,-0.7628,-0.7628,-0.7617,-0.76,-0.76,-0.76,-0.7587,-0.7455,-0.7446,-0.7387,-0.7251,-0.7156,-0.7156,0.0,0.0,0.0,0.0,0.0,0.0,0.0,0.0,0.0,0.0,0.0,0.2696,0.2696,0.2464,0.2245,0.2092,0.1842,0.0,0.0,0.0,0.0,0.0,0.0,0.0,0.0,0.0,0.0,0.0,0.0,0.0,0.0,0.0,0.0,0.0,0.0,0.0,0.0,0.0,0.0,0.0,0.0,0.0,0.0,0.0,0.0,0.0,0.0,0.0,0.0,0.0,0.0,0.0,0.0,0.0,0.0,0.0,0.0,0.0,0.0,0.0,0.0,0.0,0.0,0.0,0.0,0.0,0.0,0.0,0.0,0.0,0.0,0.0,0.0,0.0,0.0,0.0,0.0,0.0,0.0,0.0,0.0,0.0,0.0,0.0,0.0,0.0,0.0,-0.6882,-0.755,-0.76,-0.76,-0.76,-0.76,-0.756,-0.7472,-0.7556,-0.7556,-0.7468,-0.7316,-0.7275,-0.7339,-0.7272,-0.7326,-0.7472,-0.7472,-0.7421,-0.7343,-0.7343,-0.7343,-0.7336,-0.7268,-0.7241,-0.7234,-0.7122,-0.7095,-0.7095,0.0,0.0,0.0,0.0,0.0,0.0,0.0,0.0,0.0,0.0,0.0,0.2696,0.2696,0.0,0.0,0.0,0.2197,0.0,0.0,0.0,0.0,0.0,0.0,0.0,0.0,0.0,0.0,0.0,0.0,0.0,0.0,0.0,0.0,0.0,0.0,0.0,0.0,0.0,0.0,0.0,0.0,0.0,0.0,0.0,0.0,0.0,0.0,0.0,0.0,0.0,0.0,0.0,0.0,0.0,0.0,0.0,0.0,0.0,0.0,0.0,0.0,0.0,0.0,0.0,0.0,0.0,0.0,0.0,0.0,0.0,0.0,0.0,0.0,0.0,0.0,0.0,0.0,0.0,0.0,0.0,0.0,0.0,0.0,0.0,0.0,0.0,0.0,-0.5745,-0.6969,-0.7062,-0.7154,-0.7482,-0.7482,-0.7428,-0.7316,-0.7424,-0.7424,-0.7312,-0.7149,-0.7095,-0.7095,-0.7095,-0.7204,-0.7312,-0.7312,-0.7248,-0.7095,-0.7095,-0.7095,-0.7095,-0.7095,-0.7095,-0.7095,-0.7095,-0.7095,-0.7095,0.0,0.0,0.0,0.0,0.0,0.0,0.0,0.0,0.0,0.0,0.0,0.2696,0.2696,0.2679,0.2497,0.2081,0.2014,0.0,0.0,0.0,0.0,0.0,0.0,0.0,0.0,0.0,0.0,0.0,0.0,0.0,0.0,0.0,0.0,0.0,0.0,0.0,0.0,0.0,0.0,0.0,0.0,0.0,0.0,0.0,0.0,0.0,0.0,0.0,0.0,0.0,0.0,0.0,0.0,0.0,0.0,0.0,0.0,0.0,0.0,0.0,0.0,0.0,0.0,0.0,0.0,0.0,0.0,0.0,0.0,0.0,0.0,0.0,0.0,0.0,0.0,0.0,0.0,0.0,0.0,0.0,0.0,0.0,0.0,0.0,0.0,0.0,0.0,-0.4253,-0.5466,-0.551,-0.6002,-0.7074,-0.7122,-0.7115,-0.7109,-0.7115,-0.7115,-0.7109,-0.7098,-0.7095,-0.7095,-0.7095,-0.7098,-0.7109,-0.7109,-0.7102,-0.7095,-0.7095,-0.7095,-0.7095,-0.7095,-0.7095,-0.7095,-0.7095,-0.7095,-0.7095,0.0,0.0,0.0,0.0,0.0,0.0,0.0,0.0,0.0,0.0,0.0,0.0,0.0,0.2696,0.263,0.2464,0.2447,0.0,0.0,0.0,0.0,0.0,0.0,0.0,0.0,0.0,0.0,0.0,0.0,0.0,0.0,0.0,0.0,0.0,0.0,0.0,0.0,0.0,0.0,0.0,0.0,0.0,0.0,0.0,0.0,0.0,0.0,0.0,0.0,0.0,0.0,0.0,0.0,0.0,0.0,0.0,0.0,0.0,0.0,0.0,0.0,0.0,0.0,0.0,0.0,0.0,0.0,0.0,0.0,0.0,0.0,0.0,0.0,0.0,0.0,0.0,0.0,0.0,0.0,0.0,0.0,0.0,0.0,0.0,0.0,0.0,0.0,0.0,-0.4194,-0.4239,-0.4774,-0.5983,-0.6027,-0.634,-0.7095,-0.7095,-0.7095,-0.7095,-0.7095,-0.7095,-0.7095,-0.7095,-0.7095,-0.7095,-0.7095,-0.7095,-0.7095,-0.7095,-0.7095,-0.7095,-0.7095,-0.7095,-0.7095,-0.7095,-0.7095,-0.7095,0.0,0.0,0.0,0.3253,0.0,0.2774,0.2774,0.2774,0.2774,0.2774,0.0,0.0,0.0,0.0,0.2808,0.2778,0.2774,0.2751,0.2699,0.0,0.0,0.0,0.0,0.0,0.0,0.0,0.0,0.0,0.0,0.0,0.0,0.0,0.0,0.0,0.0,0.0,0.0,0.0,0.0,0.0,0.0,0.0,0.0,0.0,0.0,0.0,0.0,0.0,0.0,0.0,0.0,0.0,0.0,0.0,0.0,0.0,0.0,0.0,0.0,0.0,0.0,0.0,0.0,0.0,0.0,0.0,0.0,0.0,0.0,0.0,0.0,0.0,0.0,0.0,0.0,0.0,0.0,0.0,0.0,0.0,0.0,0.0,0.0,0.0,0.0,0.0,0.0,0.0,-0.2917,-0.2981,-0.3561,-0.4775,-0.4805,-0.5318,-0.6421,-0.6511,-0.6716,-0.7024,-0.7024,-0.7024,-0.7024,-0.7024,-0.7024,-0.7028,-0.7075,-0.7095,-0.7095,-0.7095,-0.7095,-0.7095,-0.7095,-0.7095,-0.7095,-0.7095,-0.7095,-0.7095,0.4294,0.3989,0.3663,0.3197,0.3005,0.2899,0.2899,0.2899,0.2899,0.2899,0.0,0.0,0.0,0.0,0.0,0.2916,0.2899,0.2852,0.2716,0.2699,0.0,0.0,0.0,0.0,0.0,0.0,0.0,0.0,0.0,0.0,0.0,0.0,0.0,0.0,0.0,0.0,0.0,0.0,0.0,0.0,0.0,0.0,0.0,0.0,0.0,0.0,0.0,0.0,0.0,0.0,0.0,0.0,0.0,0.0,0.0,0.0,0.0,0.0,0.0,0.0,0.0,0.0,0.0,0.0,0.0,0.0,0.0,0.0,0.0,0.0,0.0,0.0,0.0,0.0,0.0,0.0,0.0,0.0,0.0,0.0,0.0,0.0,0.0,0.0,0.0,0.0,0.0,-0.0533,-0.169,-0.1767,-0.2345,-0.3507,-0.3573,-0.4059,-0.5061,-0.5236,-0.5868,-0.6833,-0.6833,-0.6879,-0.6879,-0.6879,-0.6879,-0.6886,-0.7028,-0.7088,-0.7092,-0.7095,-0.7095,-0.7095,-0.7095,-0.7095,-0.7095,-0.7095,-0.7095,-0.7095,0.4551,0.4116,0.3763,0.3625,0.33,0.3044,0.3044,0.3044,0.3044,0.0,0.0,0.0,0.3114,0.3179,0.3229,0.3192,0.3108,0.2983,0.2856,0.2761,0.2696,0.2696,0.2696,0.248,0.0,0.0,0.0,0.0,0.0,0.0,0.0,0.0,0.0,0.0,0.0,0.0,0.0,0.0,0.0,0.0,0.0,0.0,0.0,0.0,0.0,0.0,0.0,0.0,0.0,0.0,0.0,0.0,0.0,0.0,0.0,0.0,0.0,0.0,0.0,0.0,0.0,0.0,0.0,0.0,0.0,0.0,0.0,0.0,0.0,0.0,0.0,0.0,0.0,0.0,0.0,0.0,0.0,0.0,0.0,0.0,0.0,0.0,0.0,0.0,0.0,0.0,0.0,-0.0128,-0.0467,-0.1321,-0.1958,-0.2285,-0.3147,-0.3731,-0.402,-0.4069,-0.4589,-0.5613,-0.5613,-0.5996,-0.6763,-0.6763,-0.6763,-0.6773,-0.6879,-0.6943,-0.6953,-0.7055,-0.7095,-0.7095,-0.7095,-0.7095,-0.7095,-0.7095,-0.7095,-0.7095,0.4752,0.4187,0.3725,0.3793,0.3517,0.3334,0.3392,0.3402,0.3402,0.0,0.0,0.0,0.3482,0.3587,0.3604,0.3441,0.3364,0.3198,0.2927,0.2825,0.2764,0.2699,0.2761,0.2654,0.2379,0.0,0.0,0.0,0.0,0.0,0.0,0.0,0.0,0.0,0.0,0.0,0.0,0.0,0.0,0.0,0.0,0.0,0.0,0.0,0.0,0.0,0.0,0.0,0.0,0.0,0.0,0.0,0.0,0.0,0.0,0.0,0.0,0.0,0.0,0.0,0.0,0.0,0.0,0.0,0.0,0.0,0.0,0.0,0.0,0.0,0.0,0.0,0.0,0.0,0.0,0.0,0.0,0.0,0.0,0.0,0.0,0.0,0.0,0.0,0.0,0.0,0.0,0.0,0.0,-0.0666,-0.1035,-0.1035,-0.1712,-0.2493,-0.338,-0.3445,-0.4209,-0.5691,-0.5691,-0.6025,-0.6607,-0.6607,-0.6607,-0.6614,-0.6766,-0.6834,-0.6841,-0.6922,-0.6987,-0.7092,-0.7031,-0.7045,-0.7095,-0.7095,-0.7095,-0.7095,0.0,0.4179,0.3665,0.3771,0.3723,0.3696,0.3799,0.3816,0.3816,0.0,0.3948,0.4038,0.4089,0.4186,0.4085,0.3737,0.3655,0.3447,0.3012,0.2937,0.2849,0.273,0.2839,0.29,0.2883,0.2489,0.0,0.0,0.0,0.0,0.0,0.0,0.0,0.0,0.0,0.0,0.0,0.0,0.0,0.0,0.0,0.0,0.0,0.0,0.0,0.0,0.0,0.0,0.0,0.0,0.0,0.0,0.0,0.0,0.0,0.0,0.0,0.0,0.0,0.0,0.0,0.0,0.0,0.0,0.0,0.0,0.0,0.0,0.0,0.0,0.0,0.0,0.0,0.0,0.0,0.0,0.0,0.0,0.0,0.0,0.0,0.0,0.0,0.0,0.0,0.0,0.0,0.0,0.0,0.0,0.0,0.0,0.0,-0.0941,-0.293,-0.2933,-0.4071,-0.6284,-0.6165,-0.6245,-0.6491,-0.6491,-0.6491,-0.6497,-0.661,-0.6675,-0.6675,-0.6675,-0.6841,-0.7034,-0.691,-0.6937,-0.7048,-0.7048,-0.7048,-0.7048,0.4542,0.4089,0.3761,0.3785,0.387,0.392,0.3947,0.395,0.395,0.395,0.4085,0.4314,0.4675,0.4548,0.4412,0.4324,0.3982,0.3686,0.3484,0.311,0.2896,0.2866,0.2893,0.2852,0.2744,0.2866,0.2591,0.0,0.0,0.0,0.0,0.0,0.0,0.0,0.0,0.0,0.0,0.0,0.0,0.0,0.0,0.0,0.0,0.0,0.0,0.0,0.0,0.0,0.0,0.0,0.0,0.0,0.0,0.0,0.0,0.0,0.0,0.0,0.0,0.0,0.0,0.0,0.0,0.0,0.0,0.0,0.0,0.0,0.0,0.0,0.0,0.0,0.0,0.0,0.0,0.0,0.0,0.0,0.0,0.0,0.0,0.0,0.0,0.0,0.0,0.0,0.0,0.0,0.0,0.0,0.0,0.0,0.0,-0.0594,-0.188,-0.1068,-0.2138,-0.5034,-0.4166,-0.468,-0.634,-0.634,-0.634,-0.6351,-0.6494,-0.6555,-0.6555,-0.6555,-0.6624,-0.6783,-0.6756,-0.6763,-0.6787,-0.6787,-0.6787,-0.6787,0.45,0.407,0.3816,0.389,0.4008,0.4132,0.4229,0.4239,0.4294,0.4422,0.4663,0.4802,0.4806,0.4735,0.4599,0.4375,0.4122,0.3894,0.3621,0.3389,0.3144,0.2902,0.2956,0.2959,0.2903,0.2956,0.2756,0.0,0.0,0.0,0.0,0.0,0.0,0.0,0.0,0.0,0.0,0.0,0.0,0.0,0.0,0.0,0.0,0.0,0.0,0.0,0.0,0.0,0.0,0.0,0.0,0.0,0.0,0.0,0.0,0.0,0.0,0.0,0.0,0.0,0.0,0.0,0.0,0.0,0.0,0.0,0.0,0.0,0.0,0.0,0.0,0.0,0.0,0.0,0.0,0.0,0.0,0.0,0.0,0.0,0.0,0.0,0.0,0.0,0.0,0.0,0.0,0.0,0.0,0.0,0.0,0.0,0.0,-0.051,-0.1607,-0.1058,-0.2113,-0.4686,-0.3632,-0.4217,-0.63,-0.5747,-0.5786,-0.6303,-0.6375,-0.6405,-0.6405,-0.6405,-0.6453,-0.6488,-0.6559,-0.6634,-0.6702,-0.6702,-0.6702,-0.6702,0.4417,0.4028,0.3873,0.3974,0.4142,0.4301,0.447,0.4491,0.461,0.4884,0.5169,0.0,0.0,0.0,0.0,0.0,0.0,0.4166,0.0,0.3699,0.345,0.3093,0.3134,0.3131,0.3101,0.302,0.2841,0.2546,0.0,0.0,0.0,0.0,0.0,0.0,0.0,0.0,0.0,0.0,0.0,0.0,0.0,0.0,0.0,0.0,0.0,0.0,0.0,0.0,0.0,0.0,0.0,0.0038,0.0211,0.0275,0.0,0.0,0.0,0.0,0.0,0.0,0.0,0.0,0.0,0.0,0.0,0.0,0.0,0.0,0.0,0.0,0.0,0.0,0.0,0.0,0.0,0.0,0.0,0.0,0.0,0.0,0.0,0.0,0.0,0.0,0.0,0.0,0.0,0.0,0.0,0.0,0.0,0.0,0.0,-0.051,-0.1607,-0.1411,-0.2348,-0.4373,-0.332,-0.3828,-0.567,-0.4805,-0.496,-0.5983,-0.5983,-0.6103,-0.63,-0.63,-0.63,-0.631,-0.6426,-0.6549,-0.6617,-0.6617,-0.6617,-0.6617,0.4012,0.3849,0.3974,0.3991,0.4253,0.447,0.4487,0.4491,0.4644,0.0,0.0,0.0,0.0,0.0,0.0,0.0,0.0,0.0,0.4762,0.0,0.3634,0.3687,0.3477,0.3279,0.3104,0.3199,0.3075,0.268,0.0,0.0,0.0,0.0,0.0669,0.0607,0.0183,0.0,0.0,0.0,0.0,0.0,0.0,0.0,0.0,0.0,0.0,0.0,0.0,0.0,0.0,0.0,0.0,0.012,0.0,0.1282,0.1398,0.0,0.0,0.0,0.0,0.0,0.0,0.0,0.0,0.0,0.0,0.0,0.0,0.0,0.0,0.0,0.0,0.0,0.0,0.0,0.0,0.0,0.0,0.0,0.0,0.0,0.0,0.0,0.0,0.0,0.0,0.0,0.0,0.0,0.0,0.0,0.0,0.0,0.0,-0.051,-0.1607,-0.0667,-0.1214,-0.3279,-0.227,-0.2347,-0.3474,-0.3318,-0.3865,-0.4882,-0.4882,-0.5431,-0.63,-0.63,-0.63,-0.6303,-0.6317,-0.6334,-0.6351,-0.6351,-0.6351,-0.6351,0.4355,0.4302,0.4383,0.3952,0.4232,0.446,0.4351,0.4782,0.5184,0.0,0.0,0.0,0.0,0.0,0.0,0.0,0.0,0.5128,0.0,0.0,0.0,0.3805,0.3696,0.3559,0.3392,0.3256,0.3104,0.2937,0.263,0.0,0.0,0.0,0.0771,0.0277,0.0089,0.0,0.0,0.0,0.0,0.0,0.0,0.0,0.0,0.0,0.0,0.0,0.0,0.0,0.0,0.0,0.0,0.0,0.0,0.0,0.0,0.0,0.0,0.0,0.0,0.0,0.0,0.0,0.0,0.0,0.0782,0.0,0.1276,0.0,0.0,0.0,0.0,0.0,0.0,0.0,0.0,0.0,0.0,0.0,0.0,0.0,0.0,0.0,0.0,0.0,0.0,0.0,0.0,0.0,0.0,0.0,0.0,0.0,0.0,-0.0236,-0.0667,-0.0236,-0.0745,-0.2229,-0.1176,-0.1527,-0.3085,-0.2501,-0.3127,-0.4688,-0.4688,-0.5315,-0.63,-0.63,-0.63,-0.63,-0.63,-0.63,-0.63,-0.63,-0.63,-0.63,0.5037,0.0,0.0,0.4025,0.4245,0.4481,0.4409,0.4955,0.5423,0.5511,0.0,0.0,0.6207,0.6115,0.0,0.0,0.6027,0.5677,0.0,0.0,0.4575,0.4175,0.3961,0.3826,0.3765,0.3425,0.3225,0.3185,0.2927,0.0,0.0,0.0,0.0,0.045,0.0,0.0377,0.0031,0.0,0.0,0.0,0.0,0.0,0.0,0.0,0.0,0.0,0.0,0.0,0.0,0.0,0.0203,0.0,0.1694,0.0,0.0,0.0,0.0,0.0,0.1829,0.0,0.0,0.0,0.0,0.0,0.0,0.0,0.0,0.0,0.0,0.0,0.0,0.0,0.0,0.0,0.0,0.0,0.0,0.0,0.0,0.0,0.0,0.0,0.0,0.0,0.0,0.0,0.0,0.0,0.0,0.0,0.0,0.0,0.0,0.0,0.0,0.0,-0.0392,-0.1137,-0.0353,-0.0784,-0.2228,-0.1488,-0.2152,-0.3869,-0.4139,-0.4882,-0.5867,-0.618,-0.63,-0.63,-0.63,-0.63,-0.63,-0.63,-0.63,-0.63,0.6052,0.5385,0.0,0.0,0.0,0.459,0.4853,0.4891,0.5145,0.0,0.0,0.0,0.0,0.0,0.0,0.0,0.0,0.6419,0.6265,0.0,0.4935,0.5052,0.4368,0.4055,0.0,0.3792,0.3515,0.3385,0.3185,0.3068,0.0,0.0,0.0,0.0,0.0,0.1346,0.0062,0.0888,0.0776,0.0,0.0,0.0,0.0,0.0,0.0,0.0,0.0,0.0,0.0,0.0,0.0797,0.0,0.0,0.0,0.0,0.0,0.0,0.0,0.0,0.0,0.0,0.2496,0.0,0.0,0.0,0.0,0.2592,0.0,0.0,0.0,0.0,0.0,0.0,0.0,0.0,0.0,0.0,0.0,0.0,0.0,0.0,0.0,0.0,0.0,0.0,0.0,0.0,0.0,0.0,0.0,0.0,0.0,0.0,0.0,0.0,0.0,0.0,-0.0039,0.0,-0.0039,-0.0118,-0.0079,-0.0667,-0.1762,-0.2735,-0.3748,-0.4844,-0.5867,-0.63,-0.63,-0.63,-0.63,-0.63,-0.63,-0.63,-0.63,0.0,0.0,0.0,0.0,0.0,0.4627,0.4968,0.5366,0.5796,0.0,0.0,0.0,0.0,0.7204,0.7265,0.0,0.0,0.6962,0.6573,0.6084,0.0,0.0,0.0,0.484,0.0,0.4345,0.4017,0.3665,0.3374,0.3135,0.0,0.0,0.0,0.0,0.0,0.1556,0.0,0.0,0.0,0.0,0.0,0.0,0.0,0.0,0.0,0.0,0.0,0.0,0.0,0.0926,0.1461,0.209,0.3784,0.4518,0.4874,0.5398,0.5098,0.0,0.0,0.0,0.3871,0.3001,0.0,0.0,0.0,0.0,0.0,0.0,0.0,0.0,0.0,0.0,0.0,0.0,0.0,0.0,0.0,0.0,0.0,0.0,0.0,0.0,0.0,0.0,0.0,0.0,0.0,0.0,0.0,0.0,0.0,0.0,0.0,0.0,0.0,0.0,0.0,0.0,0.0,0.0,0.0,0.0,-0.0941,-0.2618,-0.2968,-0.41,-0.5786,-0.6141,-0.63,-0.63,-0.63,-0.63,-0.63,-0.63,-0.63,-0.63,0.6082,0.0,0.0,0.0,0.0,0.0,0.5233,0.0,0.0,0.0,0.6817,0.0,0.7556,0.0,0.755,0.0,0.7638,0.7316,0.6814,0.6603,0.0,0.5979,0.5728,0.0,0.0,0.0,0.4507,0.4111,0.3789,0.3504,0.0,0.0,0.0,0.0,0.0,0.0,0.0,0.0,0.1649,0.0,0.0,0.0389,0.0,0.0,0.0359,0.0,0.0,0.0269,0.0763,0.1522,0.2371,0.33,0.4673,0.5227,0.5521,0.607,0.574,0.5129,0.5045,0.5095,0.0,0.4082,0.4659,0.0,0.4264,0.0,0.0,0.0,0.0,0.0,0.0,0.0,0.0,0.0,0.0,0.0,0.0,0.0,0.0,0.0,0.0,0.0,0.0,0.0,0.0,0.0,0.0,0.0,0.0,0.0,0.0,0.0,0.0,0.0,0.0,0.0,0.0,0.0,0.0,0.0,0.0,0.0,-0.0941,-0.2579,-0.2929,-0.41,-0.5747,-0.6141,-0.63,-0.63,-0.63,-0.63,-0.63,-0.63,-0.63,-0.63,0.0,0.0,0.0,0.0,0.4863,0.0,0.0,0.0,0.6576,0.0,0.694,0.7233,0.7587,0.7621,0.7675,0.7811,0.7821,0.758,0.6967,0.6923,0.0,0.0,0.6166,0.5966,0.5847,0.0,0.0,0.0,0.4372,0.4123,0.0,0.0,0.0,0.0,0.4083,0.0,0.2815,0.3992,0.3372,0.1686,0.176,0.1121,0.0225,0.1299,0.1031,0.009,0.009,0.0852,0.1879,0.1969,0.3486,0.5401,0.5435,0.6018,0.6698,0.6681,0.6481,0.6269,0.6081,0.6003,0.5936,0.5684,0.0,0.0,0.0,0.0,0.5334,0.0,0.0,0.0,0.0,0.0,0.0,0.0,0.0,0.0,0.0,0.0,0.0,0.0,0.0,0.0,0.0,0.0,0.0,0.0,0.0,0.0,0.0,0.0,0.0,0.0,0.0,0.0,0.0,0.0,0.0,0.0,0.0,0.0,0.0,0.0,-0.0588,-0.1646,-0.2618,-0.3671,-0.4766,-0.5786,-0.6261,-0.63,-0.63,-0.63,-0.63,-0.63,-0.63,-0.63,0.5908,0.5438,0.5201,0.0,0.5334,0.5515,0.0,0.0,0.0,0.0,0.7363,0.7597,0.7843,0.7877,0.7891,0.7928,0.7931,0.0,0.0,0.0,0.0,0.7261,0.6898,0.6627,0.6474,0.5813,0.0,0.4985,0.0,0.0,0.4133,0.0,0.0,0.0,0.0,0.0,0.355,0.3834,0.3534,0.2798,0.208,0.1612,0.0,0.0,0.0807,0.1344,0.1344,0.2102,0.326,0.4152,0.4868,0.5507,0.6154,0.6508,0.6658,0.6477,0.6361,0.6289,0.6252,0.6242,0.6156,0.5966,0.583,0.5688,0.0,0.0,0.0,0.0,0.0,0.0,0.0,0.0,0.0,0.0,0.0,0.0,0.0,0.0,0.0,0.0,0.0,0.0,0.0,0.0,0.0,0.0,0.0,0.0,0.0,0.0,0.0,0.0,0.0,0.0,0.0,0.0,0.0,0.0,0.0,0.0,0.0,0.0,-0.0588,-0.1607,-0.188,-0.301,-0.4727,-0.5002,-0.5589,-0.63,-0.63,-0.63,-0.63,-0.63,-0.63,-0.63,0.58,0.0,0.0,0.5986,0.0,0.0,0.6439,0.0,0.0,0.7234,0.7516,0.0,0.7834,0.7914,0.7988,0.7988,0.7988,0.0,0.7733,0.0,0.0,0.7509,0.738,0.718,0.6898,0.6291,0.0,0.5332,0.0,0.0,0.419,0.0,0.0,0.0,0.0,0.4298,0.0,0.4232,0.4159,0.4031,0.3588,0.0,0.0,0.2416,0.2772,0.3396,0.3396,0.3796,0.4508,0.5179,0.5714,0.6213,0.6659,0.6756,0.6654,0.646,0.6351,0.63,0.63,0.63,0.6279,0.6152,0.6067,0.5945,0.5732,0.5742,0.5752,0.0,0.0,0.0,0.0,0.0,0.0,0.0,0.0,0.0,0.0,0.0,0.0,0.0,0.0,0.0,0.0,0.0163,0.0,0.0,0.0,0.0,0.0,0.0,0.0,0.0,0.0,0.0,0.0,0.0,0.0,0.0,0.0,0.0,0.0,0.0,-0.0588,-0.1607,-0.1607,-0.2503,-0.3982,-0.3982,-0.4373,-0.496,-0.5434,-0.5589,-0.567,-0.6141,-0.63,-0.63,0.0,0.0,0.0,0.0,0.0,0.0,0.0,0.7132,0.0,0.7196,0.0,0.7794,0.7672,0.7837,0.7988,0.7988,0.0,0.788,0.7675,0.7847,0.7865,0.7475,0.7685,0.7617,0.7166,0.6722,0.0,0.0,0.0,0.0,0.0,0.0,0.0,0.0,0.0,0.0,0.0,0.4957,0.5108,0.0,0.5401,0.4776,0.3927,0.4821,0.527,0.5403,0.5403,0.5492,0.5625,0.5625,0.6293,0.7071,0.693,0.6824,0.6671,0.6559,0.6412,0.63,0.63,0.63,0.63,0.63,0.63,0.6228,0.5922,0.5861,0.5861,0.5861,0.5692,0.5661,0.0,0.0,0.0,0.0,0.0,0.0,0.0,0.0,0.0,0.0,0.0,0.0,0.0,0.0355,0.0,0.0,0.0,0.0,0.0,0.0,0.0,0.0,0.0,0.0,0.0,0.0,0.0,0.0,0.0,0.0,0.0,0.0,-0.051,-0.1372,-0.1372,-0.1957,-0.289,-0.289,-0.2968,-0.3202,-0.4139,-0.4569,-0.4805,-0.5747,-0.618,-0.63,0.0,0.0,0.0,0.0,0.0,0.7299,0.7424,0.7404,0.7448,0.7665,0.7823,0.7941,0.7917,0.7958,0.7988,0.7988,0.7988,0.0,0.0,0.0,0.0,0.7877,0.7851,0.7719,0.7522,0.6831,0.6279,0.0,0.5043,0.4473,0.0,0.0,0.0,0.0,0.0,0.0,0.5515,0.5995,0.0,0.6506,0.5714,0.527,0.5001,0.4196,0.4552,0.5403,0.5403,0.5983,0.6786,0.6786,0.6918,0.7071,0.693,0.6824,0.6671,0.6559,0.6412,0.63,0.63,0.63,0.63,0.63,0.63,0.6286,0.6231,0.6218,0.6218,0.6218,0.6177,0.6095,0.5908,0.0,0.0,0.0,0.0,0.0,0.0,0.0,0.0,0.0,0.0,0.0,0.0,0.0,0.0,0.0,0.0,0.0,0.0,0.0,0.0,0.0,0.0,0.0,0.0,0.0,0.0,0.0,0.0,0.0,0.0,0.0,-0.0118,-0.0275,-0.0275,-0.0902,-0.188,-0.188,-0.2347,-0.3124,-0.3318,-0.3904,-0.4727,-0.4921,-0.555,-0.63,0.0,0.0,0.0,0.0,0.0,0.0,0.0,0.7767,0.0,0.7702,0.7831,0.7892,0.7821,0.7897,0.7988,0.7988,0.7988,0.7988,0.7988,0.7988,0.7988,0.7988,0.7921,0.0,0.7712,0.7122,0.6563,0.6078,0.5287,0.4687,0.0,0.0,0.0,0.0,0.0,0.4975,0.0,0.0,0.0,0.6857,0.6464,0.6293,0.6204,0.562,0.5755,0.6293,0.6293,0.665,0.7095,0.7095,0.7095,0.7071,0.693,0.6836,0.6773,0.6539,0.6463,0.6395,0.632,0.63,0.6416,0.6949,0.6683,0.6451,0.6945,0.6679,0.63,0.63,0.63,0.6204,0.5857,0.5501,0.0,0.0,0.0,0.0,0.0,0.0,0.0,0.0,0.0,0.0,0.0,0.0,0.0,0.0,0.0,0.0,0.0,0.0,0.0,0.0,0.0,0.0,0.0,0.0,0.0,0.0,0.0,0.0,0.0,0.0,0.0,0.0,0.0,-0.0275,-0.0784,-0.0784,-0.1058,-0.1565,-0.2112,-0.262,-0.3205,-0.4297,-0.504,-0.555,0.0,1.0762,0.0,0.0,1.0237,0.0,0.9099,0.8753,0.8368,0.7781,0.779,0.7818,0.7706,0.785,0.7988,0.7988,0.7988,0.7988,0.7988,0.7988,0.7988,0.7988,0.7988,0.7917,0.7814,0.7404,0.6898,0.0,0.5583,0.0,0.0,0.0,0.4237,0.421,0.0,0.0,0.0,0.0,0.6695,0.694,0.7051,0.7095,0.7095,0.7095,0.7095,0.7095,0.7095,0.7095,0.7095,0.7095,0.7095,0.7078,0.6964,0.691,0.6839,0.6641,0.6562,0.6487,0.6375,0.6475,0.6795,0.7591,0.7365,0.7138,0.7936,0.7326,0.6602,0.6602,0.6451,0.6204,0.5857,0.561,0.0,0.0,0.0,0.0,0.0,0.0,0.0,0.0,0.0,0.0,0.0,0.0,0.0,0.0,0.0,0.0,0.0,0.0,0.0,0.0,0.0,0.0,0.0,0.0,0.0,0.0,0.0,0.0,0.0,0.0,0.0,0.0,0.0,0.0,0.0,0.0,0.0,-0.0079,-0.0941,-0.1411,-0.1802,-0.3439,-0.4181,-0.4491,0.0,0.0,0.0,0.0,0.0,0.0,1.2183,1.1193,0.9851,0.8184,0.7961,0.7965,0.7948,0.7975,0.7988,0.7988,0.7988,0.7988,0.7988,0.7988,0.7988,0.7988,0.7988,0.7917,0.7814,0.7509,0.7098,0.0,0.0,0.0,0.0,0.0,0.4582,0.4827,0.0,0.0,0.0,0.6546,0.6851,0.7078,0.7092,0.7095,0.7095,0.7095,0.7095,0.7095,0.7095,0.7095,0.7095,0.7095,0.7095,0.7095,0.7082,0.6991,0.6879,0.6852,0.6688,0.6508,0.6497,0.7055,0.7668,0.7783,0.8428,0.9031,0.9145,0.8389,0.7668,0.7668,0.6945,0.6204,0.5857,0.5779,0.562,0.0,0.0,0.0,0.0,0.0,0.0,0.0,0.0,0.0,0.0,0.0,0.0,0.0,0.0,0.0,0.0,0.0,0.0,0.0,0.0,0.0,0.0,0.0,0.0,0.0,0.0,0.0,0.0,0.0,0.0,0.0,0.0,0.0,0.0,0.0,0.0,0.0,-0.0118,-0.0745,-0.1607,-0.1802,-0.2464,-0.3279,0.0,0.0,0.0,0.0,0.0,0.0,0.0,1.2319,1.1415,0.9835,0.886,0.8272,0.8187,0.8177,0.814,0.7998,0.7988,0.7988,0.7988,0.7988,0.7988,0.7988,0.7988,0.7961,0.7901,0.7743,0.7383,0.0,0.0,0.0,0.0,0.5206,0.5298,0.0,0.0,0.6322,0.6681,0.6976,0.7224,0.7407,0.7316,0.7278,0.7268,0.7132,0.7095,0.7095,0.7095,0.7095,0.7095,0.7095,0.7095,0.7095,0.7095,0.7581,0.8072,0.801,0.8371,0.8774,0.8506,0.8661,0.9039,0.9506,0.9442,0.9448,1.0045,0.9405,0.8542,0.7936,0.6984,0.6235,0.5979,0.5793,0.5616,0.0,0.0,0.0,0.0,0.0,0.0,0.0,0.0,0.0,0.0,0.0,0.0,0.0,0.0,0.0308,0.0023,0.0,0.0,0.0,0.0,0.0,0.0,0.0,0.0,0.0,0.0,0.0,0.0,0.0,0.0,0.0,0.0,0.0,0.0,0.0,0.0,0.0,0.0,-0.0275,-0.0706,-0.1372,-0.1841,-0.2268,1.5675,0.0,1.638,0.0,1.5469,1.508,1.4449,1.389,1.3211,1.2216,1.0444,0.9011,0.8405,0.8347,0.8225,0.8116,0.8015,0.7988,0.7988,0.8382,0.8432,0.8041,0.8382,0.0,0.7988,0.7889,0.7634,0.723,0.6868,0.0,0.0,0.5918,0.601,0.0,0.6556,0.6814,0.7075,0.7329,0.7502,0.759,0.7482,0.7438,0.7428,0.7316,0.723,0.723,0.723,0.7203,0.7207,0.7207,0.7132,0.7095,0.7095,0.7929,0.8865,0.8772,0.9531,1.0331,0.9978,1.0037,1.029,1.0796,1.0553,1.0383,1.1093,1.0453,0.9442,0.8461,0.7397,0.6608,0.6455,0.5965,0.5576,0.5566,0.0,0.0,0.0,0.0,0.0,0.0,0.0,0.4375,0.0,0.0,0.0,0.0,0.0,0.0954,0.0046,0.0,0.0,0.0,0.0,0.0,0.0,0.0,0.0,0.0,0.0,0.0,0.0,0.0,0.0,0.0,0.0,0.0,0.0,0.0,0.0,0.0,0.0,0.0,-0.0079,-0.0863,-0.1137,-0.1215,1.7088,1.7192,1.7286,1.7522,1.7569,1.7569,1.7575,1.6327,1.5352,1.5352,1.2822,1.0421,0.8667,0.8353,0.8323,0.832,0.813,0.7988,0.7988,0.9217,0.9361,0.0,0.0,0.9361,0.8038,0.7889,0.774,0.7594,0.0,0.0,0.6685,0.6532,0.6624,0.6879,0.7024,0.7217,0.7422,0.7533,0.7597,0.76,0.7597,0.7597,0.7597,0.7594,0.7594,0.7594,0.7594,0.7499,0.7412,0.7412,0.7265,0.7095,0.7095,0.7929,0.889,0.889,0.96,1.0397,1.0392,1.0761,1.1194,1.1188,1.1715,1.2268,1.2268,1.1502,1.049,0.9485,0.8337,0.7495,0.7495,0.6457,0.5542,0.5423,0.0,0.0,0.0,0.0,0.0,0.0,0.4338,0.4277,0.4474,0.0,0.0,0.0,0.0,0.0,0.01,0.0,0.0,0.0,0.0,0.0,0.0,0.0,0.0,0.0,0.0,0.0,0.0,0.0,0.0,0.0,0.0,0.0,0.0,0.0,0.0,0.0,0.0,0.0,0.0,0.0,0.0,-0.0039,1.7428,1.7442,1.7475,1.7569,1.7582,1.7582,1.7582,1.7199,1.6552,1.5524,1.4609,1.3472,1.1951,0.9872,0.8489,0.0,0.8225,0.815,0.0,0.9266,0.941,0.8038,0.9266,0.9361,0.8038,0.7941,0.7892,0.7743,0.0,0.0,0.0,0.7153,0.7193,0.7394,0.7533,0.7624,0.7682,0.7834,0.785,0.784,0.7787,0.7743,0.7733,0.7638,0.76,0.76,0.76,0.7567,0.7529,0.7529,0.7495,0.7434,0.7329,0.8593,1.0053,1.0053,1.1423,1.2866,1.2638,1.2716,1.2736,1.2376,1.2482,1.2589,1.2351,1.1502,1.0708,1.0378,0.9456,0.8612,0.832,0.742,0.6645,0.6349,0.5782,0.0,0.0,0.0,0.0,0.0,0.0,0.444,0.0,0.4361,0.0,0.0,0.0,0.0,0.0,0.0,0.0,0.0,0.0,0.0,0.0,0.0,0.0,0.0,0.0,0.0,0.0,0.0,0.0,0.0,0.0,0.0,0.0,0.0,0.0,0.0,0.0,0.0,0.0,0.0,0.0,0.0,1.7756,1.7662,1.7582,1.7582,1.7582,1.7582,1.7582,1.7582,1.7259,1.6333,1.5743,1.5097,1.418,1.1908,0.0,0.9332,0.909,0.8975,0.8818,1.0471,1.0627,0.8825,0.9998,0.985,0.8038,0.7988,0.0,0.7896,0.7807,0.7716,0.7624,0.7624,0.7675,0.777,0.7855,0.7896,0.7902,0.7948,0.7988,0.7982,0.7887,0.7896,0.7885,0.7797,0.7763,0.7763,0.7763,0.7729,0.7678,0.7678,0.7645,0.7573,0.7463,0.8906,1.0678,1.0593,1.2254,1.4048,1.382,1.3686,1.3513,1.3173,1.3038,1.2878,1.2576,1.1888,1.1354,1.1354,1.0533,0.9711,0.9414,0.8192,0.7138,0.6902,0.5965,0.5192,0.4921,0.0,0.0,0.0,0.0,0.0,0.0,0.4662,0.0,0.0,0.0,0.0,0.0,0.0,0.0,0.0029,0.0,0.0,0.0,0.0,0.0,0.0,0.0,0.0,0.0,0.0,0.0,0.0,0.0,0.0,0.0,0.0,0.0,0.0,0.0,0.0,0.0,0.0,0.0,0.0,1.8022,1.7842,1.7642,0.0,1.7615,0.0,1.7589,1.7582,1.7582,1.7582,1.6393,1.5524,1.5524,1.4288,1.2856,1.1336,0.0,0.0,0.0,1.2616,1.2737,1.0162,1.1224,1.0681,0.8038,0.7988,0.7988,0.7988,0.8088,0.8088,0.7988,0.8187,0.8187,0.7988,0.8088,0.8088,0.7988,0.7988,0.7988,0.7988,0.7988,0.7988,0.7988,0.7988,0.7988,0.7988,0.7988,0.7897,0.7828,0.7828,0.774,0.7604,0.7586,0.9067,1.081,1.0643,1.2254,1.4088,1.4088,1.3881,1.3626,1.3606,1.3387,1.3126,1.2857,1.2569,1.2325,1.2305,1.146,1.0695,1.0677,0.8789,0.7202,0.7185,0.6044,0.5112,0.4938,0.0,0.0,0.0,0.0,0.0,0.0,0.4897,0.4897,0.0,0.0,0.0,0.0,0.0,0.0842,0.0031,0.0,0.0,0.0,0.0072,0.0148,0.0228,0.0233,0.0196,0.0196,0.0196,0.0196,0.0118,0.0118,0.0079,0.0,0.0,0.0,0.0,0.0,0.0,0.0,0.0,0.0,0.0,0.0,0.0,1.8203,1.7976,1.7936,1.7856,1.7615,1.7582,1.7582,1.7582,1.7312,1.7094,1.7094,1.5796,1.4748,1.4366,1.3136,1.2284,1.2179,1.3463,1.3029,1.0406,1.1349,1.0681,0.8038,0.7988,0.7988,0.7988,0.9019,0.9019,0.8038,1.0047,0.9899,0.8038,0.9069,0.897,0.7988,0.7988,0.7988,0.7988,0.7988,0.7988,0.7988,0.7988,0.7988,0.7988,0.7988,0.7968,0.7934,0.7934,0.7914,0.8052,0.8937,1.0186,1.1241,1.0728,1.2254,1.4088,1.4088,1.4035,1.3928,1.366,1.3387,1.3126,1.2857,1.273,1.2616,1.2351,1.2098,1.1833,1.1618,0.9827,0.8349,0.8112,0.688,0.5696,0.4999,0.5363,0.0,0.0,0.4796,0.4877,0.4884,0.4985,0.5005,0.0,0.0,0.0,0.0,0.2647,0.1504,0.0033,0.0,0.0,0.0,0.0814,0.1591,0.2364,0.2377,0.2383,0.2383,0.2383,0.1956,0.1215,0.1215,0.0745,0.0,0.0,0.0,0.0,0.0,0.0,0.0,0.0,0.0,0.0,1.8691,1.8577,1.8437,1.8277,1.825,1.815,1.7842,1.7796,1.7742,1.7602,1.7582,1.7582,1.7582,1.6876,1.6393,1.6393,1.4861,1.3874,1.38,1.4785,1.4433,1.2269,1.2157,1.1412,0.9801,0.8627,0.8283,0.892,0.9657,0.9948,0.9801,1.1214,1.1116,0.9801,0.9948,0.9608,0.8871,0.8283,0.7988,0.7988,0.7988,0.7988,0.7988,0.7988,0.7988,0.8088,0.8676,0.892,0.9019,0.9604,0.9801,0.9866,1.0489,1.146,1.23,1.1908,1.297,1.4255,1.4122,1.4088,1.4048,1.3888,1.358,1.332,1.3193,1.2985,1.2737,1.2576,1.2398,1.2258,1.2098,1.0598,0.9317,0.9041,0.7814,0.6529,0.5536,0.5812,0.0,0.4981,0.5026,0.5148,0.522,0.5352,0.5379,0.5237,0.4898,0.0,0.4016,0.3159,0.2039,0.0639,0.021,0.0253,0.0741,0.1782,0.2546,0.3085,0.3085,0.3085,0.3085,0.3085,0.254,0.1607,0.1607,0.098,0.0,0.0,0.0,0.0,0.0,0.0,0.0,0.0,0.0,0.0,1.8991,1.8791,1.8611,1.8564,1.8557,1.8457,1.8102,1.8022,1.7896,1.7689,1.7609,1.7582,1.7582,1.7582,1.7582,1.7582,1.6233,1.5413,1.5413,1.626,1.6097,1.4483,1.3308,1.2436,1.2001,0.9764,0.9167,1.0288,1.0485,1.1019,1.1901,1.2285,1.2285,1.1848,1.097,1.0485,1.0194,0.9069,0.8577,0.8577,0.8577,0.8577,0.8577,0.8577,0.8577,0.8726,0.9899,1.0288,1.0435,1.156,1.1896,1.1915,1.2004,1.2698,1.3496,1.3531,1.4072,1.4583,1.4242,1.4122,1.4088,1.4088,1.3901,1.366,1.3613,1.3247,1.2904,1.2864,1.2616,1.2371,1.2371,1.1131,1.0018,0.973,0.8655,0.7481,0.6345,0.0,0.6397,0.565,0.5643,0.5748,0.5849,0.5835,0.5752,0.563,0.4879,0.4458,0.4458,0.3626,0.2725,0.1809,0.0929,0.1,0.2049,0.29,0.3435,0.3591,0.3591,0.3591,0.3591,0.3591,0.3047,0.2075,0.2075,0.1371,0.0235,0.0235,0.0157,0.0,0.0,0.0,0.0,0.0,0.0,0.0,1.9299,1.9259,1.9152,1.8898,1.8858,1.8758,1.8464,1.8155,1.7975,1.7929,1.7749,1.7582,1.7582,1.7582,1.7582,1.7582,1.7377,1.7193,1.7193,1.7138,1.6484,1.5136,1.44,1.3496,1.2328,1.1649,1.1409,1.1609,1.2716,1.2813,1.195,1.4178,1.4028,1.1945,1.2861,1.2668,1.1604,1.1361,1.1312,1.1312,1.1312,1.1312,1.1312,1.1312,1.1312,1.1312,1.1512,1.1609,1.1653,1.1848,1.1896,1.2086,1.3202,1.367,1.4005,1.4842,1.5153,1.5144,1.4603,1.4275,1.4088,1.4088,1.4055,1.3955,1.366,1.3533,1.3393,1.3186,1.2931,1.2717,1.2717,1.1293,1.0018,0.973,0.9108,0.8276,0.7235,0.0,0.8547,0.78,0.7285,0.6999,0.7028,0.6279,0.5793,0.5769,0.5623,0.5552,0.5552,0.4708,0.4158,0.3994,0.3097,0.3149,0.4194,0.4365,0.4921,0.5786,0.5786,0.5786,0.5786,0.5786,0.5237,0.4219,0.4219,0.3127,0.1333,0.1333,0.0824,0.0,0.0,0.0,0.0,0.0,0.0,0.0,1.9424,1.9424,1.9325,1.9185,1.9165,1.9065,1.8771,1.8604,1.8408,1.8303,1.8023,1.7836,1.7836,1.7682,1.7582,1.7582,1.7582,1.7582,1.7582,1.7455,1.7048,1.6317,1.533,1.4112,1.2663,1.2979,1.3199,1.3199,1.3653,1.3926,1.4034,1.5248,1.5146,1.3986,1.3926,1.3536,1.2909,1.2188,1.1896,1.1896,1.1896,1.1896,1.1896,1.1896,1.1896,1.1994,1.2716,1.2963,1.306,1.3788,1.3986,1.413,1.4704,1.4902,1.5019,1.5477,1.5404,1.507,1.4636,1.4422,1.4282,1.4128,1.4088,1.4048,1.3915,1.372,1.356,1.3427,1.3206,1.2985,1.2817,1.1983,1.1143,1.0678,1.0261,0.0,0.0,0.9127,0.9257,0.8599,0.7861,0.74,0.74,0.6585,0.6013,0.5932,0.5925,0.5925,0.5925,0.5538,0.5078,0.4607,0.4189,0.4212,0.4688,0.5276,0.5825,0.63,0.63,0.63,0.63,0.63,0.5709,0.4688,0.4688,0.3828,0.2347,0.1841,0.1293,0.0824,0.0236,0.0,0.0,0.0,0.0,0.0,1.9424,1.9424,1.9424,1.9424,1.9424,1.9292,1.9058,1.8965,1.8844,1.8617,1.8337,1.8069,1.8002,1.7836,1.7662,1.7589,1.7582,1.7582,1.7582,1.7582,1.7534,1.7313,1.6238,1.5027,1.3738,1.4454,1.485,1.485,1.4588,1.4948,1.5925,1.5865,1.5784,1.5778,1.48,1.4364,1.4262,1.3253,1.2818,1.2818,1.2818,1.2818,1.2818,1.2818,1.2818,1.2963,1.3974,1.4364,1.4507,1.5486,1.5784,1.5784,1.5784,1.5784,1.5784,1.5784,1.5518,1.5084,1.4723,1.4623,1.4556,1.4262,1.4188,1.4168,1.4102,1.3908,1.3706,1.3706,1.3473,1.324,1.3038,1.2652,1.2211,1.1623,0.0,0.0,0.0,1.0126,0.9965,0.9238,0.8425,0.7819,0.76,0.6794,0.6248,0.6091,0.6084,0.6084,0.6084,0.6084,0.5752,0.5076,0.4844,0.4805,0.5079,0.5906,0.63,0.63,0.63,0.63,0.63,0.63,0.5867,0.5079,0.5079,0.445,0.3396,0.262,0.2192,0.188,0.1058,0.0706,0.0706,0.0471,0.051,0.0666,1.9424,1.9424,1.9424,1.9424,1.9424,1.9417,1.9397,1.9098,1.8918,1.8891,1.8637,1.835,1.8022,1.7969,1.7896,1.7609,1.7582,1.7582,1.7582,1.7582,1.7569,1.7549,1.7243,1.6854,1.6406,1.648,1.6517,1.6517,1.6232,1.6191,1.6239,1.5959,1.5784,1.5784,1.5683,1.5683,1.5635,1.554,1.5486,1.5486,1.5486,1.5486,1.5486,1.5486,1.5486,1.554,1.5635,1.5683,1.5683,1.5784,1.5784,1.5784,1.5784,1.5784,1.5784,1.5784,1.5751,1.5645,1.5084,1.4975,1.4863,1.4563,1.4489,1.4422,1.4148,1.4068,1.4055,1.4055,1.3814,1.356,1.354,1.3106,1.2556,1.1966,0.0,0.0,1.1002,1.1388,1.1372,1.0414,0.9612,0.8817,0.7876,0.6899,0.6293,0.6282,0.6282,0.6282,0.6282,0.6282,0.6251,0.618,0.5237,0.5157,0.618,0.6261,0.63,0.63,0.63,0.63,0.63,0.63,0.6261,0.618,0.618,0.5589,0.4569,0.4491,0.3906,0.2968,0.289,0.289,0.2773,0.184,0.2074,0.2578,1.9424,1.9424,1.9424,1.9424,1.9424,1.9424,1.9424,1.9272,1.9199,1.9199,1.8938,1.8718,1.8548,1.843,1.8203,1.7896,1.7869,1.7789,1.7595,1.7582,1.7582,1.7582,1.7475,1.7361,1.7255,1.7125,1.7032,1.7032,1.6687,1.654,1.6533,1.6239,1.6106,1.6092,1.5912,1.5784,1.5784,1.5784,1.5784,1.5784,1.5784,1.5784,1.5784,1.5784,1.5784,1.5784,1.5784,1.5784,1.5784,1.5784,1.5784,1.5784,1.5784,1.5784,1.5784,1.5784,1.5784,1.5785,1.5558,1.5364,1.5164,1.487,1.4656,1.4489,1.4382,1.4215,1.3913,1.316,1.2898,1.2523,1.1649,1.1303,1.1061,1.0595,0.0,1.043,1.1198,1.1107,1.1184,1.1832,1.0905,1.0078,0.9696,0.8761,0.7897,0.7288,0.7211,0.6945,0.6338,0.63,0.63,0.63,0.5906,0.5906,0.63,0.63,0.63,0.63,0.63,0.63,0.63,0.63,0.63,0.63,0.63,0.606,0.5628,0.496,0.4453,0.4021,0.3357,0.3085,0.3046,0.2657,0.2773,0.3007,1.9424,1.9424,1.9424,1.9424,1.9424,1.9424,1.9424,1.9424,1.9424,1.9424,1.9192,1.9025,1.8931,1.8744,1.8504,1.8155,1.8135,1.8056,1.7749,1.7635,1.7582,1.7582,1.7582,1.7582,1.7582,1.744,1.734,1.734,1.6987,1.6847,1.684,1.6547,1.6413,1.6393,1.6099,1.5972,1.5965,1.5824,1.5784,1.5784,1.5784,1.5784,1.5784,1.5784,1.5784,1.5784,1.5784,1.5784,1.5784,1.5784,1.5784,1.5784,1.5784,1.5784,1.5784,1.5784,1.5784,1.5784,1.5784,1.5685,1.5464,1.517,1.4943,1.477,1.4676,1.4429,1.4002,1.3151,1.2601,1.2014,1.1048,1.0557,1.0354,1.0377,1.015,1.0466,1.1854,1.1617,1.1558,1.2363,1.1542,1.0799,1.0496,0.9749,0.8998,0.8313,0.797,0.7518,0.6795,0.649,0.6606,0.7211,0.6641,0.6606,0.7249,0.6606,0.63,0.63,0.63,0.63,0.63,0.63,0.63,0.63,0.63,0.63,0.6257,0.5512,0.5198,0.5118,0.4375,0.41,0.4062,0.3709,0.3826,0.4021,1.9424,1.9424,1.9424,1.9424,1.9424,1.9424,1.9424,1.9424,1.9424,1.9424,1.9424,1.931,1.8958,1.8925,1.8811,1.8517,1.8497,1.837,1.8015,1.7756,1.7589,1.7589,1.7582,1.7582,1.7582,1.7582,1.7582,1.7582,1.7347,1.7206,1.7199,1.6847,1.6707,1.6693,1.6406,1.6279,1.6259,1.5965,1.5791,1.5784,1.5791,1.5784,1.5784,1.5784,1.5784,1.5784,1.5784,1.5784,1.5784,1.5784,1.5784,1.5784,1.5784,1.5784,1.5784,1.5784,1.5784,1.5784,1.5784,1.5784,1.5758,1.5471,1.5398,1.5317,1.5075,1.4736,1.4479,1.4472,1.3305,1.2285,1.2279,1.1338,1.0877,1.1738,1.1863,1.2192,1.3048,1.3174,1.2803,1.1828,1.1437,1.0806,0.9826,0.9466,0.9339,0.9301,0.8389,0.7821,0.7821,0.6834,0.7211,0.9221,0.7365,0.7288,0.9263,0.7326,0.63,0.63,0.63,0.63,0.63,0.63,0.63,0.63,0.63,0.63,0.63,0.63,0.63,0.63,0.63,0.63,0.618,0.5118,0.5392,0.5983,2.2312,2.2492,2.2492,2.2492,2.2492,2.2492,2.2492,2.2492,2.2492,2.2492,2.1593,2.0887,2.0786,1.9901,1.9118,1.8818,1.8791,1.8671,1.8377,1.8076,1.7856,1.7856,1.7702,1.7582,1.7582,1.7582,1.7582,1.7582,1.7495,1.7507,1.7442,1.7206,1.7065,1.7058,1.6707,1.6573,1.6573,1.648,1.6326,1.6159,1.6366,1.6199,1.5852,1.6059,1.6012,1.5784,1.5784,1.5784,1.5784,1.5784,1.5784,1.5784,1.5784,1.5784,1.5784,1.5784,1.5784,1.5784,1.5784,1.5784,1.5758,1.5718,1.5545,1.5378,1.5291,1.5044,1.4542,1.3517,1.2963,1.2322,1.1284,1.0826,1.0418,0.9885,1.0378,1.0977,1.1332,1.1805,1.2382,1.2947,1.2763,1.2471,1.2189,1.1894,1.1459,1.0687,0.8889,0.8122,0.8808,0.7211,0.7211,0.9221,0.805,0.797,0.9296,0.8012,0.7365,0.7365,0.7365,0.6984,0.63,0.63,0.63,0.63,0.63,0.63,0.63,0.63,0.63,0.63,0.63,0.63,0.6261,0.5944,0.6025,0.6222,2.3909,2.3921,2.3822,2.3822,2.3822,2.3822,2.3822,2.3822,2.3822,2.3822,2.2533,2.1586,2.1586,2.0256,1.9574,1.994,1.9864,1.9444,1.8727,1.8384,1.8223,1.8223,1.7929,1.7709,1.7589,1.7582,1.7582,1.7582,1.7582,1.7582,1.7582,1.7454,1.7373,1.736,1.7065,1.6881,1.6874,1.676,1.6607,1.646,1.6633,1.6493,1.6192,1.6373,1.6266,1.6005,1.6005,1.5925,1.5784,1.5784,1.5784,1.5784,1.5784,1.5784,1.5784,1.5784,1.5784,1.5784,1.5784,1.5784,1.5784,1.5784,1.5698,1.5565,1.5565,1.5344,1.4896,1.402,1.3353,1.2659,1.1658,1.1091,1.0668,1.0323,1.075,1.1345,1.1932,1.2373,1.2946,1.3712,1.3561,1.334,1.334,1.3106,1.2531,1.1465,1.0105,0.9598,1.0219,0.8705,0.8783,1.0765,0.9357,0.9231,1.0688,0.9559,0.8571,0.7783,0.7783,0.7288,0.63,0.63,0.63,0.63,0.63,0.63,0.63,0.63,0.63,0.63,0.63,0.63,0.63,0.63,0.63,0.63,2.4895,2.4553,2.4253,2.422,2.4211,2.4211,2.4211,2.4211,2.4211,2.4211,2.2814,2.1805,2.1805,2.0479,2.0148,2.1472,2.1421,2.0698,1.9235,1.8908,1.869,1.8531,1.8243,1.7943,1.7629,1.7595,1.7582,1.7582,1.7582,1.7582,1.7582,1.7582,1.7582,1.7569,1.7353,1.7239,1.7226,1.6901,1.6767,1.6747,1.6774,1.6754,1.6707,1.6734,1.6567,1.6362,1.6362,1.6139,1.5905,1.5831,1.5804,1.5784,1.5784,1.5784,1.5784,1.5784,1.5784,1.5784,1.5784,1.5784,1.5784,1.5683,1.5635,1.5683,1.5784,1.5625,1.5431,1.5398,1.4343,1.3306,1.3069,1.2132,1.1651,1.2232,1.2448,1.2833,1.3786,1.4046,1.4088,1.4088,1.3848,1.364,1.364,1.338,1.2829,1.1908,1.1748,1.1742,1.1828,1.0813,1.1135,1.3134,1.1032,1.0818,1.2784,1.1589,0.9981,0.8084,0.797,0.7403,0.6416,0.6338,0.63,0.63,0.63,0.63,0.63,0.63,0.63,0.63,0.63,0.63,0.63,0.63,0.63,0.63,2.7855,2.7878,2.7708,2.7396,2.734,2.734,2.734,2.734,2.734,2.734,2.4994,2.3319,2.3319,2.204,2.1252,2.1586,2.2575,2.2592,2.1092,2.0742,2.008,1.8881,1.8551,1.8257,1.7902,1.7709,1.7582,1.7582,1.7582,1.7582,1.7582,1.7582,1.7582,1.7582,1.7515,1.7488,1.7482,1.7422,1.7261,1.7125,1.7301,1.7114,1.6734,1.7018,1.6867,1.6613,1.6613,1.6573,1.648,1.6253,1.6019,1.5784,1.5784,1.5784,1.5784,1.5784,1.5784,1.5784,1.5784,1.5784,1.5581,1.4561,1.4316,1.4555,1.5581,1.5785,1.5671,1.5444,1.516,1.4839,1.4552,1.4314,1.3811,1.285,1.3436,1.3719,1.2839,1.3512,1.4088,1.4088,1.4035,1.3988,1.3988,1.368,1.3333,1.2902,1.2154,1.2028,1.2843,1.1175,1.1135,1.3134,1.1933,1.1754,1.2784,1.252,1.1608,1.0147,0.9367,0.8466,0.7442,0.6641,0.63,0.63,0.63,0.63,0.63,0.63,0.63,0.63,0.63,0.63,0.63,0.63,0.63,0.63,2.9189,2.9062,2.8789,2.8369,2.8291,2.8291,2.8291,2.8291,2.8291,2.8291,2.5663,2.3822,2.3822,2.2476,2.1862,2.2589,2.4044,2.4267,2.2758,2.1872,2.1058,2.0231,1.9232,1.8624,1.8408,1.8029,1.7736,1.7582,1.7582,1.7582,1.7582,1.7582,1.7582,1.7582,1.7582,1.7582,1.7582,1.7582,1.7495,1.742,1.7522,1.7402,1.7141,1.7295,1.7226,1.6914,1.6914,1.6827,1.6687,1.6526,1.6373,1.6226,1.6086,1.6039,1.6012,1.5872,1.5784,1.5683,1.5051,1.4902,1.4561,1.3247,1.2963,1.3301,1.4609,1.4902,1.5054,1.5491,1.5605,1.5518,1.5224,1.517,1.4889,1.3996,1.4363,1.4397,1.3485,1.389,1.4242,1.4108,1.4088,1.4088,1.4088,1.3948,1.3794,1.3641,1.3123,1.3082,1.3586,1.2618,1.2535,1.3586,1.2947,1.2806,1.3173,1.3033,1.2575,1.174,1.01,0.8765,0.7783,0.6756,0.63,0.63,0.63,0.63,0.63,0.63,0.63,0.63,0.63,0.63,0.63,0.63,0.63,0.63,2.9766,2.9326,2.8896,2.8476,2.834,2.8291,2.8291,2.8291,2.8291,2.8291,2.5663,2.3877,2.4156,2.3095,2.2983,2.4433,2.5717,2.5827,2.4267,2.3039,2.2251,2.1975,2.0288,1.9355,1.9301,1.8554,1.7969,1.7662,1.7609,1.7582,1.7582,1.7582,1.7582,1.7582,1.7582,1.7582,1.7582,1.7582,1.7582,1.7582,1.7582,1.7582,1.7582,1.7582,1.7435,1.728,1.728,1.7085,1.678,1.678,1.6747,1.666,1.6426,1.6362,1.6274,1.5979,1.5824,1.5534,1.4268,1.3926,1.3536,1.1945,1.175,1.2188,1.3295,1.3734,1.4214,1.5242,1.5635,1.5711,1.5518,1.5471,1.5378,1.5129,1.5082,1.4981,1.4636,1.4596,1.4509,1.4269,1.4195,1.4142,1.4088,1.4088,1.4088,1.4088,1.4088,1.4088,1.4088,1.4088,1.4088,1.4088,1.3848,1.3653,1.36,1.3367,1.3126,1.2819,1.073,0.9143,0.8008,0.7022,0.6451,0.63,0.63,0.63,0.63,0.649,0.6451,0.63,0.649,0.6451,0.63,0.63,0.63,0.63,3.0205,2.9775,2.9346,2.8906,2.8535,2.8291,2.8291,2.8291,2.8291,2.8291,2.5663,2.4322,2.5654,2.5599,2.61,2.7565,2.7897,2.7384,2.5873,2.5599,2.4875,2.3543,2.205,2.1109,2.0822,1.9493,1.8482,1.7929,1.7716,1.7582,1.7582,1.7582,1.7582,1.7582,1.7582,1.7582,1.7582,1.7582,1.7582,1.7582,1.7582,1.7582,1.7582,1.7582,1.7555,1.7522,1.7522,1.7387,1.7139,1.7139,1.6921,1.67,1.666,1.6473,1.6315,1.6274,1.6032,1.5534,1.4268,1.3926,1.3295,1.0872,1.1068,1.195,1.2139,1.3054,1.3974,1.4118,1.5045,1.5771,1.5731,1.5772,1.5671,1.5384,1.5337,1.5237,1.4988,1.4948,1.4934,1.4894,1.4616,1.4362,1.4115,1.4088,1.4088,1.4088,1.4088,1.4088,1.4088,1.4088,1.4088,1.4088,1.4048,1.3901,1.3606,1.356,1.34,1.3146,1.1936,1.0573,0.9069,0.8046,0.7138,0.63,0.63,0.63,0.6377,0.7249,0.7099,0.6377,0.7249,0.7061,0.63,0.63,0.63,0.63,3.0293,3.0049,2.9707,2.9033,2.876,2.8564,2.833,2.8291,2.8291,2.8291,2.6445,2.5316,2.6045,2.61,2.6717,2.8184,2.8291,2.8014,2.7384,2.6545,2.5827,2.5096,2.287,2.1511,2.1369,1.9772,1.8798,1.8482,1.8237,1.8003,1.7842,1.7842,1.7749,1.7582,1.7582,1.7582,1.7582,1.7582,1.7582,1.7582,1.7582,1.7582,1.7582,1.7582,1.7582,1.7582,1.7582,1.7502,1.744,1.744,1.7353,1.7168,1.7058,1.6918,1.6777,1.656,1.6306,1.5631,1.3607,1.2916,1.2328,1.0485,1.0435,1.1023,1.175,1.2958,1.4118,1.48,1.5391,1.5784,1.5784,1.5784,1.5738,1.5658,1.5638,1.5538,1.5244,1.5204,1.5189,1.5028,1.4703,1.4469,1.4342,1.4182,1.4088,1.4088,1.4088,1.4088,1.4088,1.4088,1.4088,1.4088,1.4088,1.4021,1.3895,1.3895,1.3748,1.3413,1.2956,1.1927,1.033,0.9324,0.8533,0.797,0.797,0.797,0.8008,0.8466,0.8389,0.7974,0.7859,0.7173,0.63,0.63,0.63,0.63]}]]